<?xml version="1.0" encoding="UTF-8" standalone="no" ?>
<gpx xmlns="http://www.topografix.com/GPX/1/1" creator="Cyclopedia.no" version="1.1" xmlns:xsi="http://www.w3.org/2001/XMLSchema-instance" xsi:schemaLocation="http://www.topografix.com/GPX/1/1 http://www.topografix.com/GPX/1/1/gpx.xsd">
	<metadata>
		<link href="http://www.cyclopedia.no"><text>Cyclopedia.no</text></link>
		<time>2026-05-06T15:37:24Z</time>	</metadata>
	<wpt lat="58.1498908996582" lon="7.99277591705322"><ele>-30</ele><time>0001-01-01T00:00:00Z</time><name>Start</name></wpt>
	<wpt lat="58.5828132629395" lon="7.79789400100708"><ele>179</ele><time>0001-01-01T00:00:00Z</time><name>Evje</name></wpt>
	<wpt lat="59.0806732177734" lon="7.55342197418213"><ele>259</ele><time>0001-01-01T00:00:00Z</time><name>Rysstad</name></wpt>
	<wpt lat="59.0227355957031" lon="6.97098588943481"><ele>778</ele><time>0001-01-01T00:00:00Z</time><name>Suleskar</name></wpt>
	<wpt lat="59.0547218322754" lon="6.64541387557983"><ele>6</ele><time>0001-01-01T00:00:00Z</time><name>Slutt</name></wpt>
	<trk>
		<name>Kristiansand - Lysebotn</name>
		<trkseg>
				<trkpt lat="58.14989" lon="7.99278">
					<ele>-30</ele>
					<time>0001-01-01T00:00:00Z</time>
				</trkpt>
				<trkpt lat="58.14901" lon="7.99122">
					<ele>-30</ele>
					<time>0001-01-01T00:00:00Z</time>
				</trkpt>
				<trkpt lat="58.14763" lon="7.98894">
					<ele>-30</ele>
					<time>0001-01-01T00:00:00Z</time>
				</trkpt>
				<trkpt lat="58.14751" lon="7.98875">
					<ele>-30</ele>
					<time>0001-01-01T00:00:00Z</time>
				</trkpt>
				<trkpt lat="58.14763" lon="7.98895">
					<ele>-30</ele>
					<time>0001-01-01T00:00:00Z</time>
				</trkpt>
				<trkpt lat="58.14753" lon="7.98833">
					<ele>-30</ele>
					<time>0001-01-01T00:00:00Z</time>
				</trkpt>
				<trkpt lat="58.14763" lon="7.98895">
					<ele>-30</ele>
					<time>0001-01-01T00:00:00Z</time>
				</trkpt>
				<trkpt lat="58.14766" lon="7.98873">
					<ele>-30</ele>
					<time>0001-01-01T00:00:00Z</time>
				</trkpt>
				<trkpt lat="58.14703" lon="7.98792">
					<ele>-30</ele>
					<time>0001-01-01T00:00:00Z</time>
				</trkpt>
				<trkpt lat="58.14761" lon="7.98300">
					<ele>-26</ele>
					<time>0001-01-01T00:00:00Z</time>
				</trkpt>
				<trkpt lat="58.14806" lon="7.98060">
					<ele>-18</ele>
					<time>0001-01-01T00:00:00Z</time>
				</trkpt>
				<trkpt lat="58.14819" lon="7.98048">
					<ele>-18</ele>
					<time>0001-01-01T00:00:00Z</time>
				</trkpt>
				<trkpt lat="58.14853" lon="7.97991">
					<ele>-14</ele>
					<time>0001-01-01T00:00:00Z</time>
				</trkpt>
				<trkpt lat="58.14890" lon="7.97906">
					<ele>-11</ele>
					<time>0001-01-01T00:00:00Z</time>
				</trkpt>
				<trkpt lat="58.14900" lon="7.97835">
					<ele>-9</ele>
					<time>0001-01-01T00:00:00Z</time>
				</trkpt>
				<trkpt lat="58.14924" lon="7.97685">
					<ele>-1</ele>
					<time>0001-01-01T00:00:00Z</time>
				</trkpt>
				<trkpt lat="58.14936" lon="7.97649">
					<ele>0</ele>
					<time>0001-01-01T00:00:00Z</time>
				</trkpt>
				<trkpt lat="58.14957" lon="7.97605">
					<ele>3</ele>
					<time>0001-01-01T00:00:00Z</time>
				</trkpt>
				<trkpt lat="58.14965" lon="7.97576">
					<ele>4</ele>
					<time>0001-01-01T00:00:00Z</time>
				</trkpt>
				<trkpt lat="58.14980" lon="7.97403">
					<ele>14</ele>
					<time>0001-01-01T00:00:00Z</time>
				</trkpt>
				<trkpt lat="58.14976" lon="7.97244">
					<ele>12</ele>
					<time>0001-01-01T00:00:00Z</time>
				</trkpt>
				<trkpt lat="58.14978" lon="7.97183">
					<ele>11</ele>
					<time>0001-01-01T00:00:00Z</time>
				</trkpt>
				<trkpt lat="58.15038" lon="7.97050">
					<ele>11</ele>
					<time>0001-01-01T00:00:00Z</time>
				</trkpt>
				<trkpt lat="58.15075" lon="7.96888">
					<ele>15</ele>
					<time>0001-01-01T00:00:00Z</time>
				</trkpt>
				<trkpt lat="58.15107" lon="7.96744">
					<ele>20</ele>
					<time>0001-01-01T00:00:00Z</time>
				</trkpt>
				<trkpt lat="58.15145" lon="7.96563">
					<ele>23</ele>
					<time>0001-01-01T00:00:00Z</time>
				</trkpt>
				<trkpt lat="58.15212" lon="7.96103">
					<ele>22</ele>
					<time>0001-01-01T00:00:00Z</time>
				</trkpt>
				<trkpt lat="58.15279" lon="7.95850">
					<ele>22</ele>
					<time>0001-01-01T00:00:00Z</time>
				</trkpt>
				<trkpt lat="58.15357" lon="7.95621">
					<ele>20</ele>
					<time>0001-01-01T00:00:00Z</time>
				</trkpt>
				<trkpt lat="58.15434" lon="7.95535">
					<ele>21</ele>
					<time>0001-01-01T00:00:00Z</time>
				</trkpt>
				<trkpt lat="58.15740" lon="7.95318">
					<ele>23</ele>
					<time>0001-01-01T00:00:00Z</time>
				</trkpt>
				<trkpt lat="58.15956" lon="7.95164">
					<ele>23</ele>
					<time>0001-01-01T00:00:00Z</time>
				</trkpt>
				<trkpt lat="58.16168" lon="7.95015">
					<ele>24</ele>
					<time>0001-01-01T00:00:00Z</time>
				</trkpt>
				<trkpt lat="58.16288" lon="7.95007">
					<ele>22</ele>
					<time>0001-01-01T00:00:00Z</time>
				</trkpt>
				<trkpt lat="58.16468" lon="7.95018">
					<ele>21</ele>
					<time>0001-01-01T00:00:00Z</time>
				</trkpt>
				<trkpt lat="58.16615" lon="7.94973">
					<ele>23</ele>
					<time>0001-01-01T00:00:00Z</time>
				</trkpt>
				<trkpt lat="58.16751" lon="7.94854">
					<ele>24</ele>
					<time>0001-01-01T00:00:00Z</time>
				</trkpt>
				<trkpt lat="58.16882" lon="7.94672">
					<ele>25</ele>
					<time>0001-01-01T00:00:00Z</time>
				</trkpt>
				<trkpt lat="58.17029" lon="7.94497">
					<ele>27</ele>
					<time>0001-01-01T00:00:00Z</time>
				</trkpt>
				<trkpt lat="58.17187" lon="7.94322">
					<ele>27</ele>
					<time>0001-01-01T00:00:00Z</time>
				</trkpt>
				<trkpt lat="58.17310" lon="7.94226">
					<ele>28</ele>
					<time>0001-01-01T00:00:00Z</time>
				</trkpt>
				<trkpt lat="58.17478" lon="7.94132">
					<ele>27</ele>
					<time>0001-01-01T00:00:00Z</time>
				</trkpt>
				<trkpt lat="58.17641" lon="7.94030">
					<ele>27</ele>
					<time>0001-01-01T00:00:00Z</time>
				</trkpt>
				<trkpt lat="58.17729" lon="7.93893">
					<ele>27</ele>
					<time>0001-01-01T00:00:00Z</time>
				</trkpt>
				<trkpt lat="58.17830" lon="7.93780">
					<ele>28</ele>
					<time>0001-01-01T00:00:00Z</time>
				</trkpt>
				<trkpt lat="58.17987" lon="7.93678">
					<ele>33</ele>
					<time>0001-01-01T00:00:00Z</time>
				</trkpt>
				<trkpt lat="58.18070" lon="7.93565">
					<ele>31</ele>
					<time>0001-01-01T00:00:00Z</time>
				</trkpt>
				<trkpt lat="58.18120" lon="7.93387">
					<ele>29</ele>
					<time>0001-01-01T00:00:00Z</time>
				</trkpt>
				<trkpt lat="58.18137" lon="7.93169">
					<ele>29</ele>
					<time>0001-01-01T00:00:00Z</time>
				</trkpt>
				<trkpt lat="58.18182" lon="7.93010">
					<ele>29</ele>
					<time>0001-01-01T00:00:00Z</time>
				</trkpt>
				<trkpt lat="58.18272" lon="7.92890">
					<ele>28</ele>
					<time>0001-01-01T00:00:00Z</time>
				</trkpt>
				<trkpt lat="58.18370" lon="7.92877">
					<ele>28</ele>
					<time>0001-01-01T00:00:00Z</time>
				</trkpt>
				<trkpt lat="58.18469" lon="7.92904">
					<ele>28</ele>
					<time>0001-01-01T00:00:00Z</time>
				</trkpt>
				<trkpt lat="58.18599" lon="7.92896">
					<ele>22</ele>
					<time>0001-01-01T00:00:00Z</time>
				</trkpt>
				<trkpt lat="58.18719" lon="7.92876">
					<ele>25</ele>
					<time>0001-01-01T00:00:00Z</time>
				</trkpt>
				<trkpt lat="58.18829" lon="7.92857">
					<ele>27</ele>
					<time>0001-01-01T00:00:00Z</time>
				</trkpt>
				<trkpt lat="58.19000" lon="7.92830">
					<ele>27</ele>
					<time>0001-01-01T00:00:00Z</time>
				</trkpt>
				<trkpt lat="58.19071" lon="7.92903">
					<ele>26</ele>
					<time>0001-01-01T00:00:00Z</time>
				</trkpt>
				<trkpt lat="58.19171" lon="7.93015">
					<ele>22</ele>
					<time>0001-01-01T00:00:00Z</time>
				</trkpt>
				<trkpt lat="58.19355" lon="7.93144">
					<ele>17</ele>
					<time>0001-01-01T00:00:00Z</time>
				</trkpt>
				<trkpt lat="58.19486" lon="7.93207">
					<ele>17</ele>
					<time>0001-01-01T00:00:00Z</time>
				</trkpt>
				<trkpt lat="58.19595" lon="7.93225">
					<ele>21</ele>
					<time>0001-01-01T00:00:00Z</time>
				</trkpt>
				<trkpt lat="58.19743" lon="7.93234">
					<ele>22</ele>
					<time>0001-01-01T00:00:00Z</time>
				</trkpt>
				<trkpt lat="58.19850" lon="7.93193">
					<ele>19</ele>
					<time>0001-01-01T00:00:00Z</time>
				</trkpt>
				<trkpt lat="58.19975" lon="7.93130">
					<ele>22</ele>
					<time>0001-01-01T00:00:00Z</time>
				</trkpt>
				<trkpt lat="58.20053" lon="7.93018">
					<ele>23</ele>
					<time>0001-01-01T00:00:00Z</time>
				</trkpt>
				<trkpt lat="58.20147" lon="7.92892">
					<ele>24</ele>
					<time>0001-01-01T00:00:00Z</time>
				</trkpt>
				<trkpt lat="58.20158" lon="7.92860">
					<ele>24</ele>
					<time>0001-01-01T00:00:00Z</time>
				</trkpt>
				<trkpt lat="58.20170" lon="7.92793">
					<ele>26</ele>
					<time>0001-01-01T00:00:00Z</time>
				</trkpt>
				<trkpt lat="58.20203" lon="7.92737">
					<ele>27</ele>
					<time>0001-01-01T00:00:00Z</time>
				</trkpt>
				<trkpt lat="58.20233" lon="7.92725">
					<ele>28</ele>
					<time>0001-01-01T00:00:00Z</time>
				</trkpt>
				<trkpt lat="58.20304" lon="7.92667">
					<ele>28</ele>
					<time>0001-01-01T00:00:00Z</time>
				</trkpt>
				<trkpt lat="58.20446" lon="7.92571">
					<ele>23</ele>
					<time>0001-01-01T00:00:00Z</time>
				</trkpt>
				<trkpt lat="58.20590" lon="7.92468">
					<ele>20</ele>
					<time>0001-01-01T00:00:00Z</time>
				</trkpt>
				<trkpt lat="58.20767" lon="7.92400">
					<ele>19</ele>
					<time>0001-01-01T00:00:00Z</time>
				</trkpt>
				<trkpt lat="58.20920" lon="7.92393">
					<ele>18</ele>
					<time>0001-01-01T00:00:00Z</time>
				</trkpt>
				<trkpt lat="58.21064" lon="7.92512">
					<ele>19</ele>
					<time>0001-01-01T00:00:00Z</time>
				</trkpt>
				<trkpt lat="58.21132" lon="7.92557">
					<ele>18</ele>
					<time>0001-01-01T00:00:00Z</time>
				</trkpt>
				<trkpt lat="58.21178" lon="7.92555">
					<ele>15</ele>
					<time>0001-01-01T00:00:00Z</time>
				</trkpt>
				<trkpt lat="58.21195" lon="7.92549">
					<ele>15</ele>
					<time>0001-01-01T00:00:00Z</time>
				</trkpt>
				<trkpt lat="58.21238" lon="7.92509">
					<ele>14</ele>
					<time>0001-01-01T00:00:00Z</time>
				</trkpt>
				<trkpt lat="58.21249" lon="7.92490">
					<ele>14</ele>
					<time>0001-01-01T00:00:00Z</time>
				</trkpt>
				<trkpt lat="58.21289" lon="7.92365">
					<ele>15</ele>
					<time>0001-01-01T00:00:00Z</time>
				</trkpt>
				<trkpt lat="58.21323" lon="7.92355">
					<ele>13</ele>
					<time>0001-01-01T00:00:00Z</time>
				</trkpt>
				<trkpt lat="58.21486" lon="7.92357">
					<ele>5</ele>
					<time>0001-01-01T00:00:00Z</time>
				</trkpt>
				<trkpt lat="58.21568" lon="7.92299">
					<ele>8</ele>
					<time>0001-01-01T00:00:00Z</time>
				</trkpt>
				<trkpt lat="58.21655" lon="7.92271">
					<ele>8</ele>
					<time>0001-01-01T00:00:00Z</time>
				</trkpt>
				<trkpt lat="58.21741" lon="7.92276">
					<ele>10</ele>
					<time>0001-01-01T00:00:00Z</time>
				</trkpt>
				<trkpt lat="58.21759" lon="7.92296">
					<ele>10</ele>
					<time>0001-01-01T00:00:00Z</time>
				</trkpt>
				<trkpt lat="58.21786" lon="7.92292">
					<ele>10</ele>
					<time>0001-01-01T00:00:00Z</time>
				</trkpt>
				<trkpt lat="58.21809" lon="7.92273">
					<ele>11</ele>
					<time>0001-01-01T00:00:00Z</time>
				</trkpt>
				<trkpt lat="58.21892" lon="7.92207">
					<ele>13</ele>
					<time>0001-01-01T00:00:00Z</time>
				</trkpt>
				<trkpt lat="58.22033" lon="7.92083">
					<ele>12</ele>
					<time>0001-01-01T00:00:00Z</time>
				</trkpt>
				<trkpt lat="58.22095" lon="7.92019">
					<ele>14</ele>
					<time>0001-01-01T00:00:00Z</time>
				</trkpt>
				<trkpt lat="58.22158" lon="7.91907">
					<ele>20</ele>
					<time>0001-01-01T00:00:00Z</time>
				</trkpt>
				<trkpt lat="58.22205" lon="7.91758">
					<ele>25</ele>
					<time>0001-01-01T00:00:00Z</time>
				</trkpt>
				<trkpt lat="58.22213" lon="7.91727">
					<ele>26</ele>
					<time>0001-01-01T00:00:00Z</time>
				</trkpt>
				<trkpt lat="58.22229" lon="7.91635">
					<ele>28</ele>
					<time>0001-01-01T00:00:00Z</time>
				</trkpt>
				<trkpt lat="58.22242" lon="7.91601">
					<ele>28</ele>
					<time>0001-01-01T00:00:00Z</time>
				</trkpt>
				<trkpt lat="58.22299" lon="7.91526">
					<ele>31</ele>
					<time>0001-01-01T00:00:00Z</time>
				</trkpt>
				<trkpt lat="58.22351" lon="7.91429">
					<ele>37</ele>
					<time>0001-01-01T00:00:00Z</time>
				</trkpt>
				<trkpt lat="58.22399" lon="7.91273">
					<ele>43</ele>
					<time>0001-01-01T00:00:00Z</time>
				</trkpt>
				<trkpt lat="58.22455" lon="7.91113">
					<ele>49</ele>
					<time>0001-01-01T00:00:00Z</time>
				</trkpt>
				<trkpt lat="58.22502" lon="7.90963">
					<ele>56</ele>
					<time>0001-01-01T00:00:00Z</time>
				</trkpt>
				<trkpt lat="58.22539" lon="7.90853">
					<ele>61</ele>
					<time>0001-01-01T00:00:00Z</time>
				</trkpt>
				<trkpt lat="58.22570" lon="7.90753">
					<ele>60</ele>
					<time>0001-01-01T00:00:00Z</time>
				</trkpt>
				<trkpt lat="58.22607" lon="7.90646">
					<ele>68</ele>
					<time>0001-01-01T00:00:00Z</time>
				</trkpt>
				<trkpt lat="58.22653" lon="7.90566">
					<ele>74</ele>
					<time>0001-01-01T00:00:00Z</time>
				</trkpt>
				<trkpt lat="58.22706" lon="7.90473">
					<ele>75</ele>
					<time>0001-01-01T00:00:00Z</time>
				</trkpt>
				<trkpt lat="58.22763" lon="7.90349">
					<ele>74</ele>
					<time>0001-01-01T00:00:00Z</time>
				</trkpt>
				<trkpt lat="58.22858" lon="7.90159">
					<ele>77</ele>
					<time>0001-01-01T00:00:00Z</time>
				</trkpt>
				<trkpt lat="58.22903" lon="7.90065">
					<ele>83</ele>
					<time>0001-01-01T00:00:00Z</time>
				</trkpt>
				<trkpt lat="58.22965" lon="7.89985">
					<ele>88</ele>
					<time>0001-01-01T00:00:00Z</time>
				</trkpt>
				<trkpt lat="58.23044" lon="7.89894">
					<ele>94</ele>
					<time>0001-01-01T00:00:00Z</time>
				</trkpt>
				<trkpt lat="58.23129" lon="7.89745">
					<ele>101</ele>
					<time>0001-01-01T00:00:00Z</time>
				</trkpt>
				<trkpt lat="58.23218" lon="7.89579">
					<ele>106</ele>
					<time>0001-01-01T00:00:00Z</time>
				</trkpt>
				<trkpt lat="58.23279" lon="7.89408">
					<ele>111</ele>
					<time>0001-01-01T00:00:00Z</time>
				</trkpt>
				<trkpt lat="58.23360" lon="7.89155">
					<ele>115</ele>
					<time>0001-01-01T00:00:00Z</time>
				</trkpt>
				<trkpt lat="58.23454" lon="7.89005">
					<ele>116</ele>
					<time>0001-01-01T00:00:00Z</time>
				</trkpt>
				<trkpt lat="58.23700" lon="7.88689">
					<ele>122</ele>
					<time>0001-01-01T00:00:00Z</time>
				</trkpt>
				<trkpt lat="58.23794" lon="7.88533">
					<ele>122</ele>
					<time>0001-01-01T00:00:00Z</time>
				</trkpt>
				<trkpt lat="58.23872" lon="7.88409">
					<ele>131</ele>
					<time>0001-01-01T00:00:00Z</time>
				</trkpt>
				<trkpt lat="58.23965" lon="7.88305">
					<ele>137</ele>
					<time>0001-01-01T00:00:00Z</time>
				</trkpt>
				<trkpt lat="58.24048" lon="7.88197">
					<ele>139</ele>
					<time>0001-01-01T00:00:00Z</time>
				</trkpt>
				<trkpt lat="58.24210" lon="7.87957">
					<ele>140</ele>
					<time>0001-01-01T00:00:00Z</time>
				</trkpt>
				<trkpt lat="58.24282" lon="7.87862">
					<ele>148</ele>
					<time>0001-01-01T00:00:00Z</time>
				</trkpt>
				<trkpt lat="58.24363" lon="7.87788">
					<ele>156</ele>
					<time>0001-01-01T00:00:00Z</time>
				</trkpt>
				<trkpt lat="58.24438" lon="7.87719">
					<ele>161</ele>
					<time>0001-01-01T00:00:00Z</time>
				</trkpt>
				<trkpt lat="58.24508" lon="7.87608">
					<ele>164</ele>
					<time>0001-01-01T00:00:00Z</time>
				</trkpt>
				<trkpt lat="58.24590" lon="7.87446">
					<ele>170</ele>
					<time>0001-01-01T00:00:00Z</time>
				</trkpt>
				<trkpt lat="58.24646" lon="7.87338">
					<ele>177</ele>
					<time>0001-01-01T00:00:00Z</time>
				</trkpt>
				<trkpt lat="58.24714" lon="7.87205">
					<ele>182</ele>
					<time>0001-01-01T00:00:00Z</time>
				</trkpt>
				<trkpt lat="58.24762" lon="7.87109">
					<ele>186</ele>
					<time>0001-01-01T00:00:00Z</time>
				</trkpt>
				<trkpt lat="58.24821" lon="7.86981">
					<ele>187</ele>
					<time>0001-01-01T00:00:00Z</time>
				</trkpt>
				<trkpt lat="58.24883" lon="7.86852">
					<ele>196</ele>
					<time>0001-01-01T00:00:00Z</time>
				</trkpt>
				<trkpt lat="58.24949" lon="7.86669">
					<ele>199</ele>
					<time>0001-01-01T00:00:00Z</time>
				</trkpt>
				<trkpt lat="58.25034" lon="7.86463">
					<ele>201</ele>
					<time>0001-01-01T00:00:00Z</time>
				</trkpt>
				<trkpt lat="58.25140" lon="7.86344">
					<ele>202</ele>
					<time>0001-01-01T00:00:00Z</time>
				</trkpt>
				<trkpt lat="58.25248" lon="7.86218">
					<ele>202</ele>
					<time>0001-01-01T00:00:00Z</time>
				</trkpt>
				<trkpt lat="58.25320" lon="7.86052">
					<ele>205</ele>
					<time>0001-01-01T00:00:00Z</time>
				</trkpt>
				<trkpt lat="58.25386" lon="7.85799">
					<ele>208</ele>
					<time>0001-01-01T00:00:00Z</time>
				</trkpt>
				<trkpt lat="58.25394" lon="7.85765">
					<ele>209</ele>
					<time>0001-01-01T00:00:00Z</time>
				</trkpt>
				<trkpt lat="58.25402" lon="7.85717">
					<ele>209</ele>
					<time>0001-01-01T00:00:00Z</time>
				</trkpt>
				<trkpt lat="58.25410" lon="7.85548">
					<ele>214</ele>
					<time>0001-01-01T00:00:00Z</time>
				</trkpt>
				<trkpt lat="58.25396" lon="7.85375">
					<ele>220</ele>
					<time>0001-01-01T00:00:00Z</time>
				</trkpt>
				<trkpt lat="58.25378" lon="7.85165">
					<ele>226</ele>
					<time>0001-01-01T00:00:00Z</time>
				</trkpt>
				<trkpt lat="58.25362" lon="7.85044">
					<ele>226</ele>
					<time>0001-01-01T00:00:00Z</time>
				</trkpt>
				<trkpt lat="58.25365" lon="7.84814">
					<ele>220</ele>
					<time>0001-01-01T00:00:00Z</time>
				</trkpt>
				<trkpt lat="58.25368" lon="7.84526">
					<ele>215</ele>
					<time>0001-01-01T00:00:00Z</time>
				</trkpt>
				<trkpt lat="58.25378" lon="7.84282">
					<ele>210</ele>
					<time>0001-01-01T00:00:00Z</time>
				</trkpt>
				<trkpt lat="58.25425" lon="7.84116">
					<ele>203</ele>
					<time>0001-01-01T00:00:00Z</time>
				</trkpt>
				<trkpt lat="58.25478" lon="7.84068">
					<ele>202</ele>
					<time>0001-01-01T00:00:00Z</time>
				</trkpt>
				<trkpt lat="58.25648" lon="7.83975">
					<ele>199</ele>
					<time>0001-01-01T00:00:00Z</time>
				</trkpt>
				<trkpt lat="58.25733" lon="7.83827">
					<ele>193</ele>
					<time>0001-01-01T00:00:00Z</time>
				</trkpt>
				<trkpt lat="58.25856" lon="7.83666">
					<ele>191</ele>
					<time>0001-01-01T00:00:00Z</time>
				</trkpt>
				<trkpt lat="58.25992" lon="7.83477">
					<ele>188</ele>
					<time>0001-01-01T00:00:00Z</time>
				</trkpt>
				<trkpt lat="58.26157" lon="7.83206">
					<ele>177</ele>
					<time>0001-01-01T00:00:00Z</time>
				</trkpt>
				<trkpt lat="58.26258" lon="7.83124">
					<ele>173</ele>
					<time>0001-01-01T00:00:00Z</time>
				</trkpt>
				<trkpt lat="58.26403" lon="7.83066">
					<ele>170</ele>
					<time>0001-01-01T00:00:00Z</time>
				</trkpt>
				<trkpt lat="58.26504" lon="7.82972">
					<ele>166</ele>
					<time>0001-01-01T00:00:00Z</time>
				</trkpt>
				<trkpt lat="58.26605" lon="7.82862">
					<ele>164</ele>
					<time>0001-01-01T00:00:00Z</time>
				</trkpt>
				<trkpt lat="58.26710" lon="7.82797">
					<ele>164</ele>
					<time>0001-01-01T00:00:00Z</time>
				</trkpt>
				<trkpt lat="58.26857" lon="7.82799">
					<ele>165</ele>
					<time>0001-01-01T00:00:00Z</time>
				</trkpt>
				<trkpt lat="58.26978" lon="7.82804">
					<ele>168</ele>
					<time>0001-01-01T00:00:00Z</time>
				</trkpt>
				<trkpt lat="58.27079" lon="7.82821">
					<ele>166</ele>
					<time>0001-01-01T00:00:00Z</time>
				</trkpt>
				<trkpt lat="58.27188" lon="7.82890">
					<ele>165</ele>
					<time>0001-01-01T00:00:00Z</time>
				</trkpt>
				<trkpt lat="58.27298" lon="7.83033">
					<ele>165</ele>
					<time>0001-01-01T00:00:00Z</time>
				</trkpt>
				<trkpt lat="58.27452" lon="7.83279">
					<ele>166</ele>
					<time>0001-01-01T00:00:00Z</time>
				</trkpt>
				<trkpt lat="58.27619" lon="7.83541">
					<ele>167</ele>
					<time>0001-01-01T00:00:00Z</time>
				</trkpt>
				<trkpt lat="58.27754" lon="7.83698">
					<ele>168</ele>
					<time>0001-01-01T00:00:00Z</time>
				</trkpt>
				<trkpt lat="58.27944" lon="7.83685">
					<ele>172</ele>
					<time>0001-01-01T00:00:00Z</time>
				</trkpt>
				<trkpt lat="58.28024" lon="7.83619">
					<ele>176</ele>
					<time>0001-01-01T00:00:00Z</time>
				</trkpt>
				<trkpt lat="58.28088" lon="7.83566">
					<ele>175</ele>
					<time>0001-01-01T00:00:00Z</time>
				</trkpt>
				<trkpt lat="58.28186" lon="7.83588">
					<ele>178</ele>
					<time>0001-01-01T00:00:00Z</time>
				</trkpt>
				<trkpt lat="58.28273" lon="7.83701">
					<ele>180</ele>
					<time>0001-01-01T00:00:00Z</time>
				</trkpt>
				<trkpt lat="58.28363" lon="7.83937">
					<ele>181</ele>
					<time>0001-01-01T00:00:00Z</time>
				</trkpt>
				<trkpt lat="58.28436" lon="7.84127">
					<ele>182</ele>
					<time>0001-01-01T00:00:00Z</time>
				</trkpt>
				<trkpt lat="58.28540" lon="7.84261">
					<ele>181</ele>
					<time>0001-01-01T00:00:00Z</time>
				</trkpt>
				<trkpt lat="58.28607" lon="7.84337">
					<ele>185</ele>
					<time>0001-01-01T00:00:00Z</time>
				</trkpt>
				<trkpt lat="58.28691" lon="7.84361">
					<ele>188</ele>
					<time>0001-01-01T00:00:00Z</time>
				</trkpt>
				<trkpt lat="58.28783" lon="7.84331">
					<ele>184</ele>
					<time>0001-01-01T00:00:00Z</time>
				</trkpt>
				<trkpt lat="58.28924" lon="7.84288">
					<ele>185</ele>
					<time>0001-01-01T00:00:00Z</time>
				</trkpt>
				<trkpt lat="58.29045" lon="7.84307">
					<ele>188</ele>
					<time>0001-01-01T00:00:00Z</time>
				</trkpt>
				<trkpt lat="58.29185" lon="7.84373">
					<ele>191</ele>
					<time>0001-01-01T00:00:00Z</time>
				</trkpt>
				<trkpt lat="58.29278" lon="7.84363">
					<ele>194</ele>
					<time>0001-01-01T00:00:00Z</time>
				</trkpt>
				<trkpt lat="58.29367" lon="7.84279">
					<ele>195</ele>
					<time>0001-01-01T00:00:00Z</time>
				</trkpt>
				<trkpt lat="58.29419" lon="7.84142">
					<ele>194</ele>
					<time>0001-01-01T00:00:00Z</time>
				</trkpt>
				<trkpt lat="58.29483" lon="7.83918">
					<ele>196</ele>
					<time>0001-01-01T00:00:00Z</time>
				</trkpt>
				<trkpt lat="58.29565" lon="7.83792">
					<ele>194</ele>
					<time>0001-01-01T00:00:00Z</time>
				</trkpt>
				<trkpt lat="58.29615" lon="7.83712">
					<ele>198</ele>
					<time>0001-01-01T00:00:00Z</time>
				</trkpt>
				<trkpt lat="58.29658" lon="7.83583">
					<ele>202</ele>
					<time>0001-01-01T00:00:00Z</time>
				</trkpt>
				<trkpt lat="58.29677" lon="7.83437">
					<ele>204</ele>
					<time>0001-01-01T00:00:00Z</time>
				</trkpt>
				<trkpt lat="58.29695" lon="7.83282">
					<ele>213</ele>
					<time>0001-01-01T00:00:00Z</time>
				</trkpt>
				<trkpt lat="58.29721" lon="7.83130">
					<ele>219</ele>
					<time>0001-01-01T00:00:00Z</time>
				</trkpt>
				<trkpt lat="58.29755" lon="7.83011">
					<ele>219</ele>
					<time>0001-01-01T00:00:00Z</time>
				</trkpt>
				<trkpt lat="58.29784" lon="7.82925">
					<ele>221</ele>
					<time>0001-01-01T00:00:00Z</time>
				</trkpt>
				<trkpt lat="58.29810" lon="7.82840">
					<ele>230</ele>
					<time>0001-01-01T00:00:00Z</time>
				</trkpt>
				<trkpt lat="58.29857" lon="7.82696">
					<ele>233</ele>
					<time>0001-01-01T00:00:00Z</time>
				</trkpt>
				<trkpt lat="58.29898" lon="7.82561">
					<ele>239</ele>
					<time>0001-01-01T00:00:00Z</time>
				</trkpt>
				<trkpt lat="58.29938" lon="7.82445">
					<ele>245</ele>
					<time>0001-01-01T00:00:00Z</time>
				</trkpt>
				<trkpt lat="58.29980" lon="7.82331">
					<ele>258</ele>
					<time>0001-01-01T00:00:00Z</time>
				</trkpt>
				<trkpt lat="58.30018" lon="7.82210">
					<ele>262</ele>
					<time>0001-01-01T00:00:00Z</time>
				</trkpt>
				<trkpt lat="58.30072" lon="7.82077">
					<ele>261</ele>
					<time>0001-01-01T00:00:00Z</time>
				</trkpt>
				<trkpt lat="58.30146" lon="7.81984">
					<ele>263</ele>
					<time>0001-01-01T00:00:00Z</time>
				</trkpt>
				<trkpt lat="58.30239" lon="7.81908">
					<ele>271</ele>
					<time>0001-01-01T00:00:00Z</time>
				</trkpt>
				<trkpt lat="58.30328" lon="7.81801">
					<ele>273</ele>
					<time>0001-01-01T00:00:00Z</time>
				</trkpt>
				<trkpt lat="58.30401" lon="7.81678">
					<ele>273</ele>
					<time>0001-01-01T00:00:00Z</time>
				</trkpt>
				<trkpt lat="58.30519" lon="7.81530">
					<ele>274</ele>
					<time>0001-01-01T00:00:00Z</time>
				</trkpt>
				<trkpt lat="58.30659" lon="7.81395">
					<ele>275</ele>
					<time>0001-01-01T00:00:00Z</time>
				</trkpt>
				<trkpt lat="58.30784" lon="7.81301">
					<ele>276</ele>
					<time>0001-01-01T00:00:00Z</time>
				</trkpt>
				<trkpt lat="58.30885" lon="7.81212">
					<ele>278</ele>
					<time>0001-01-01T00:00:00Z</time>
				</trkpt>
				<trkpt lat="58.30953" lon="7.81074">
					<ele>278</ele>
					<time>0001-01-01T00:00:00Z</time>
				</trkpt>
				<trkpt lat="58.31010" lon="7.80966">
					<ele>278</ele>
					<time>0001-01-01T00:00:00Z</time>
				</trkpt>
				<trkpt lat="58.31062" lon="7.80921">
					<ele>278</ele>
					<time>0001-01-01T00:00:00Z</time>
				</trkpt>
				<trkpt lat="58.31144" lon="7.80844">
					<ele>279</ele>
					<time>0001-01-01T00:00:00Z</time>
				</trkpt>
				<trkpt lat="58.31213" lon="7.80741">
					<ele>279</ele>
					<time>0001-01-01T00:00:00Z</time>
				</trkpt>
				<trkpt lat="58.31305" lon="7.80604">
					<ele>279</ele>
					<time>0001-01-01T00:00:00Z</time>
				</trkpt>
				<trkpt lat="58.31439" lon="7.80494">
					<ele>279</ele>
					<time>0001-01-01T00:00:00Z</time>
				</trkpt>
				<trkpt lat="58.31594" lon="7.80457">
					<ele>280</ele>
					<time>0001-01-01T00:00:00Z</time>
				</trkpt>
				<trkpt lat="58.31804" lon="7.80448">
					<ele>280</ele>
					<time>0001-01-01T00:00:00Z</time>
				</trkpt>
				<trkpt lat="58.31934" lon="7.80468">
					<ele>280</ele>
					<time>0001-01-01T00:00:00Z</time>
				</trkpt>
				<trkpt lat="58.31956" lon="7.80478">
					<ele>280</ele>
					<time>0001-01-01T00:00:00Z</time>
				</trkpt>
				<trkpt lat="58.32099" lon="7.80620">
					<ele>280</ele>
					<time>0001-01-01T00:00:00Z</time>
				</trkpt>
				<trkpt lat="58.32259" lon="7.80878">
					<ele>281</ele>
					<time>0001-01-01T00:00:00Z</time>
				</trkpt>
				<trkpt lat="58.32280" lon="7.80906">
					<ele>281</ele>
					<time>0001-01-01T00:00:00Z</time>
				</trkpt>
				<trkpt lat="58.32311" lon="7.80918">
					<ele>281</ele>
					<time>0001-01-01T00:00:00Z</time>
				</trkpt>
				<trkpt lat="58.32442" lon="7.80928">
					<ele>279</ele>
					<time>0001-01-01T00:00:00Z</time>
				</trkpt>
				<trkpt lat="58.32610" lon="7.80934">
					<ele>278</ele>
					<time>0001-01-01T00:00:00Z</time>
				</trkpt>
				<trkpt lat="58.32637" lon="7.80950">
					<ele>278</ele>
					<time>0001-01-01T00:00:00Z</time>
				</trkpt>
				<trkpt lat="58.32686" lon="7.81014">
					<ele>278</ele>
					<time>0001-01-01T00:00:00Z</time>
				</trkpt>
				<trkpt lat="58.32748" lon="7.81138">
					<ele>278</ele>
					<time>0001-01-01T00:00:00Z</time>
				</trkpt>
				<trkpt lat="58.32812" lon="7.81218">
					<ele>278</ele>
					<time>0001-01-01T00:00:00Z</time>
				</trkpt>
				<trkpt lat="58.32927" lon="7.81253">
					<ele>278</ele>
					<time>0001-01-01T00:00:00Z</time>
				</trkpt>
				<trkpt lat="58.33017" lon="7.81231">
					<ele>278</ele>
					<time>0001-01-01T00:00:00Z</time>
				</trkpt>
				<trkpt lat="58.33025" lon="7.81229">
					<ele>278</ele>
					<time>0001-01-01T00:00:00Z</time>
				</trkpt>
				<trkpt lat="58.33107" lon="7.81257">
					<ele>278</ele>
					<time>0001-01-01T00:00:00Z</time>
				</trkpt>
				<trkpt lat="58.33202" lon="7.81320">
					<ele>262</ele>
					<time>0001-01-01T00:00:00Z</time>
				</trkpt>
				<trkpt lat="58.33342" lon="7.81374">
					<ele>249</ele>
					<time>0001-01-01T00:00:00Z</time>
				</trkpt>
				<trkpt lat="58.33504" lon="7.81364">
					<ele>236</ele>
					<time>0001-01-01T00:00:00Z</time>
				</trkpt>
				<trkpt lat="58.33663" lon="7.81285">
					<ele>236</ele>
					<time>0001-01-01T00:00:00Z</time>
				</trkpt>
				<trkpt lat="58.33818" lon="7.81146">
					<ele>229</ele>
					<time>0001-01-01T00:00:00Z</time>
				</trkpt>
				<trkpt lat="58.33928" lon="7.81068">
					<ele>229</ele>
					<time>0001-01-01T00:00:00Z</time>
				</trkpt>
				<trkpt lat="58.34093" lon="7.81073">
					<ele>230</ele>
					<time>0001-01-01T00:00:00Z</time>
				</trkpt>
				<trkpt lat="58.34209" lon="7.81022">
					<ele>229</ele>
					<time>0001-01-01T00:00:00Z</time>
				</trkpt>
				<trkpt lat="58.34309" lon="7.80890">
					<ele>228</ele>
					<time>0001-01-01T00:00:00Z</time>
				</trkpt>
				<trkpt lat="58.34394" lon="7.80791">
					<ele>227</ele>
					<time>0001-01-01T00:00:00Z</time>
				</trkpt>
				<trkpt lat="58.34425" lon="7.80779">
					<ele>227</ele>
					<time>0001-01-01T00:00:00Z</time>
				</trkpt>
				<trkpt lat="58.34513" lon="7.80797">
					<ele>229</ele>
					<time>0001-01-01T00:00:00Z</time>
				</trkpt>
				<trkpt lat="58.34599" lon="7.80786">
					<ele>231</ele>
					<time>0001-01-01T00:00:00Z</time>
				</trkpt>
				<trkpt lat="58.34689" lon="7.80754">
					<ele>233</ele>
					<time>0001-01-01T00:00:00Z</time>
				</trkpt>
				<trkpt lat="58.34783" lon="7.80771">
					<ele>234</ele>
					<time>0001-01-01T00:00:00Z</time>
				</trkpt>
				<trkpt lat="58.34913" lon="7.80821">
					<ele>234</ele>
					<time>0001-01-01T00:00:00Z</time>
				</trkpt>
				<trkpt lat="58.35005" lon="7.80783">
					<ele>235</ele>
					<time>0001-01-01T00:00:00Z</time>
				</trkpt>
				<trkpt lat="58.35125" lon="7.80633">
					<ele>231</ele>
					<time>0001-01-01T00:00:00Z</time>
				</trkpt>
				<trkpt lat="58.35342" lon="7.80353">
					<ele>230</ele>
					<time>0001-01-01T00:00:00Z</time>
				</trkpt>
				<trkpt lat="58.35424" lon="7.80312">
					<ele>228</ele>
					<time>0001-01-01T00:00:00Z</time>
				</trkpt>
				<trkpt lat="58.35488" lon="7.80307">
					<ele>228</ele>
					<time>0001-01-01T00:00:00Z</time>
				</trkpt>
				<trkpt lat="58.35571" lon="7.80314">
					<ele>233</ele>
					<time>0001-01-01T00:00:00Z</time>
				</trkpt>
				<trkpt lat="58.35644" lon="7.80298">
					<ele>234</ele>
					<time>0001-01-01T00:00:00Z</time>
				</trkpt>
				<trkpt lat="58.35724" lon="7.80218">
					<ele>236</ele>
					<time>0001-01-01T00:00:00Z</time>
				</trkpt>
				<trkpt lat="58.35867" lon="7.80031">
					<ele>235</ele>
					<time>0001-01-01T00:00:00Z</time>
				</trkpt>
				<trkpt lat="58.35955" lon="7.79966">
					<ele>236</ele>
					<time>0001-01-01T00:00:00Z</time>
				</trkpt>
				<trkpt lat="58.36075" lon="7.79960">
					<ele>234</ele>
					<time>0001-01-01T00:00:00Z</time>
				</trkpt>
				<trkpt lat="58.36114" lon="7.79956">
					<ele>234</ele>
					<time>0001-01-01T00:00:00Z</time>
				</trkpt>
				<trkpt lat="58.36136" lon="7.79945">
					<ele>234</ele>
					<time>0001-01-01T00:00:00Z</time>
				</trkpt>
				<trkpt lat="58.36149" lon="7.79948">
					<ele>229</ele>
					<time>0001-01-01T00:00:00Z</time>
				</trkpt>
				<trkpt lat="58.36236" lon="7.79928">
					<ele>231</ele>
					<time>0001-01-01T00:00:00Z</time>
				</trkpt>
				<trkpt lat="58.36338" lon="7.79827">
					<ele>233</ele>
					<time>0001-01-01T00:00:00Z</time>
				</trkpt>
				<trkpt lat="58.36385" lon="7.79733">
					<ele>234</ele>
					<time>0001-01-01T00:00:00Z</time>
				</trkpt>
				<trkpt lat="58.36427" lon="7.79522">
					<ele>231</ele>
					<time>0001-01-01T00:00:00Z</time>
				</trkpt>
				<trkpt lat="58.36419" lon="7.79295">
					<ele>229</ele>
					<time>0001-01-01T00:00:00Z</time>
				</trkpt>
				<trkpt lat="58.36411" lon="7.79028">
					<ele>227</ele>
					<time>0001-01-01T00:00:00Z</time>
				</trkpt>
				<trkpt lat="58.36462" lon="7.78835">
					<ele>229</ele>
					<time>0001-01-01T00:00:00Z</time>
				</trkpt>
				<trkpt lat="58.36561" lon="7.78526">
					<ele>233</ele>
					<time>0001-01-01T00:00:00Z</time>
				</trkpt>
				<trkpt lat="58.36663" lon="7.78263">
					<ele>235</ele>
					<time>0001-01-01T00:00:00Z</time>
				</trkpt>
				<trkpt lat="58.36783" lon="7.78094">
					<ele>239</ele>
					<time>0001-01-01T00:00:00Z</time>
				</trkpt>
				<trkpt lat="58.36948" lon="7.77885">
					<ele>239</ele>
					<time>0001-01-01T00:00:00Z</time>
				</trkpt>
				<trkpt lat="58.37077" lon="7.77661">
					<ele>237</ele>
					<time>0001-01-01T00:00:00Z</time>
				</trkpt>
				<trkpt lat="58.37216" lon="7.77414">
					<ele>235</ele>
					<time>0001-01-01T00:00:00Z</time>
				</trkpt>
				<trkpt lat="58.37320" lon="7.77336">
					<ele>231</ele>
					<time>0001-01-01T00:00:00Z</time>
				</trkpt>
				<trkpt lat="58.37438" lon="7.77301">
					<ele>233</ele>
					<time>0001-01-01T00:00:00Z</time>
				</trkpt>
				<trkpt lat="58.37515" lon="7.77209">
					<ele>234</ele>
					<time>0001-01-01T00:00:00Z</time>
				</trkpt>
				<trkpt lat="58.37539" lon="7.77158">
					<ele>233</ele>
					<time>0001-01-01T00:00:00Z</time>
				</trkpt>
				<trkpt lat="58.37565" lon="7.77046">
					<ele>230</ele>
					<time>0001-01-01T00:00:00Z</time>
				</trkpt>
				<trkpt lat="58.37555" lon="7.76790">
					<ele>224</ele>
					<time>0001-01-01T00:00:00Z</time>
				</trkpt>
				<trkpt lat="58.37537" lon="7.76391">
					<ele>218</ele>
					<time>0001-01-01T00:00:00Z</time>
				</trkpt>
				<trkpt lat="58.37571" lon="7.76118">
					<ele>216</ele>
					<time>0001-01-01T00:00:00Z</time>
				</trkpt>
				<trkpt lat="58.37664" lon="7.75744">
					<ele>221</ele>
					<time>0001-01-01T00:00:00Z</time>
				</trkpt>
				<trkpt lat="58.37733" lon="7.75463">
					<ele>226</ele>
					<time>0001-01-01T00:00:00Z</time>
				</trkpt>
				<trkpt lat="58.37796" lon="7.75202">
					<ele>226</ele>
					<time>0001-01-01T00:00:00Z</time>
				</trkpt>
				<trkpt lat="58.37855" lon="7.75048">
					<ele>225</ele>
					<time>0001-01-01T00:00:00Z</time>
				</trkpt>
				<trkpt lat="58.37936" lon="7.74986">
					<ele>226</ele>
					<time>0001-01-01T00:00:00Z</time>
				</trkpt>
				<trkpt lat="58.38026" lon="7.74988">
					<ele>229</ele>
					<time>0001-01-01T00:00:00Z</time>
				</trkpt>
				<trkpt lat="58.38063" lon="7.74990">
					<ele>230</ele>
					<time>0001-01-01T00:00:00Z</time>
				</trkpt>
				<trkpt lat="58.38128" lon="7.74938">
					<ele>232</ele>
					<time>0001-01-01T00:00:00Z</time>
				</trkpt>
				<trkpt lat="58.38147" lon="7.74911">
					<ele>231</ele>
					<time>0001-01-01T00:00:00Z</time>
				</trkpt>
				<trkpt lat="58.38169" lon="7.74862">
					<ele>231</ele>
					<time>0001-01-01T00:00:00Z</time>
				</trkpt>
				<trkpt lat="58.38202" lon="7.74672">
					<ele>230</ele>
					<time>0001-01-01T00:00:00Z</time>
				</trkpt>
				<trkpt lat="58.38250" lon="7.74313">
					<ele>221</ele>
					<time>0001-01-01T00:00:00Z</time>
				</trkpt>
				<trkpt lat="58.38310" lon="7.74075">
					<ele>220</ele>
					<time>0001-01-01T00:00:00Z</time>
				</trkpt>
				<trkpt lat="58.38409" lon="7.73904">
					<ele>219</ele>
					<time>0001-01-01T00:00:00Z</time>
				</trkpt>
				<trkpt lat="58.38525" lon="7.73822">
					<ele>221</ele>
					<time>0001-01-01T00:00:00Z</time>
				</trkpt>
				<trkpt lat="58.38720" lon="7.73867">
					<ele>220</ele>
					<time>0001-01-01T00:00:00Z</time>
				</trkpt>
				<trkpt lat="58.38807" lon="7.73980">
					<ele>220</ele>
					<time>0001-01-01T00:00:00Z</time>
				</trkpt>
				<trkpt lat="58.38892" lon="7.74113">
					<ele>222</ele>
					<time>0001-01-01T00:00:00Z</time>
				</trkpt>
				<trkpt lat="58.39005" lon="7.74287">
					<ele>224</ele>
					<time>0001-01-01T00:00:00Z</time>
				</trkpt>
				<trkpt lat="58.39103" lon="7.74447">
					<ele>221</ele>
					<time>0001-01-01T00:00:00Z</time>
				</trkpt>
				<trkpt lat="58.39212" lon="7.74616">
					<ele>219</ele>
					<time>0001-01-01T00:00:00Z</time>
				</trkpt>
				<trkpt lat="58.39377" lon="7.74871">
					<ele>215</ele>
					<time>0001-01-01T00:00:00Z</time>
				</trkpt>
				<trkpt lat="58.39469" lon="7.75019">
					<ele>217</ele>
					<time>0001-01-01T00:00:00Z</time>
				</trkpt>
				<trkpt lat="58.39584" lon="7.75169">
					<ele>216</ele>
					<time>0001-01-01T00:00:00Z</time>
				</trkpt>
				<trkpt lat="58.39776" lon="7.75305">
					<ele>213</ele>
					<time>0001-01-01T00:00:00Z</time>
				</trkpt>
				<trkpt lat="58.39898" lon="7.75467">
					<ele>206</ele>
					<time>0001-01-01T00:00:00Z</time>
				</trkpt>
				<trkpt lat="58.39996" lon="7.75706">
					<ele>197</ele>
					<time>0001-01-01T00:00:00Z</time>
				</trkpt>
				<trkpt lat="58.40132" lon="7.76151">
					<ele>182</ele>
					<time>0001-01-01T00:00:00Z</time>
				</trkpt>
				<trkpt lat="58.40242" lon="7.76412">
					<ele>173</ele>
					<time>0001-01-01T00:00:00Z</time>
				</trkpt>
				<trkpt lat="58.40365" lon="7.76575">
					<ele>167</ele>
					<time>0001-01-01T00:00:00Z</time>
				</trkpt>
				<trkpt lat="58.40531" lon="7.76686">
					<ele>166</ele>
					<time>0001-01-01T00:00:00Z</time>
				</trkpt>
				<trkpt lat="58.40724" lon="7.76786">
					<ele>161</ele>
					<time>0001-01-01T00:00:00Z</time>
				</trkpt>
				<trkpt lat="58.40871" lon="7.76802">
					<ele>163</ele>
					<time>0001-01-01T00:00:00Z</time>
				</trkpt>
				<trkpt lat="58.41011" lon="7.76818">
					<ele>163</ele>
					<time>0001-01-01T00:00:00Z</time>
				</trkpt>
				<trkpt lat="58.41143" lon="7.76922">
					<ele>161</ele>
					<time>0001-01-01T00:00:00Z</time>
				</trkpt>
				<trkpt lat="58.41324" lon="7.77057">
					<ele>163</ele>
					<time>0001-01-01T00:00:00Z</time>
				</trkpt>
				<trkpt lat="58.41474" lon="7.77205">
					<ele>161</ele>
					<time>0001-01-01T00:00:00Z</time>
				</trkpt>
				<trkpt lat="58.41516" lon="7.77363">
					<ele>163</ele>
					<time>0001-01-01T00:00:00Z</time>
				</trkpt>
				<trkpt lat="58.41578" lon="7.77704">
					<ele>164</ele>
					<time>0001-01-01T00:00:00Z</time>
				</trkpt>
				<trkpt lat="58.41619" lon="7.77825">
					<ele>166</ele>
					<time>0001-01-01T00:00:00Z</time>
				</trkpt>
				<trkpt lat="58.41639" lon="7.77861">
					<ele>166</ele>
					<time>0001-01-01T00:00:00Z</time>
				</trkpt>
				<trkpt lat="58.41730" lon="7.77923">
					<ele>168</ele>
					<time>0001-01-01T00:00:00Z</time>
				</trkpt>
				<trkpt lat="58.41950" lon="7.77981">
					<ele>171</ele>
					<time>0001-01-01T00:00:00Z</time>
				</trkpt>
				<trkpt lat="58.42141" lon="7.78014">
					<ele>172</ele>
					<time>0001-01-01T00:00:00Z</time>
				</trkpt>
				<trkpt lat="58.42356" lon="7.78046">
					<ele>173</ele>
					<time>0001-01-01T00:00:00Z</time>
				</trkpt>
				<trkpt lat="58.42512" lon="7.78115">
					<ele>171</ele>
					<time>0001-01-01T00:00:00Z</time>
				</trkpt>
				<trkpt lat="58.42656" lon="7.78190">
					<ele>170</ele>
					<time>0001-01-01T00:00:00Z</time>
				</trkpt>
				<trkpt lat="58.42842" lon="7.78291">
					<ele>168</ele>
					<time>0001-01-01T00:00:00Z</time>
				</trkpt>
				<trkpt lat="58.43037" lon="7.78393">
					<ele>169</ele>
					<time>0001-01-01T00:00:00Z</time>
				</trkpt>
				<trkpt lat="58.43076" lon="7.78414">
					<ele>168</ele>
					<time>0001-01-01T00:00:00Z</time>
				</trkpt>
				<trkpt lat="58.43441" lon="7.78652">
					<ele>169</ele>
					<time>0001-01-01T00:00:00Z</time>
				</trkpt>
				<trkpt lat="58.43660" lon="7.78684">
					<ele>169</ele>
					<time>0001-01-01T00:00:00Z</time>
				</trkpt>
				<trkpt lat="58.43842" lon="7.78770">
					<ele>170</ele>
					<time>0001-01-01T00:00:00Z</time>
				</trkpt>
				<trkpt lat="58.44048" lon="7.78898">
					<ele>167</ele>
					<time>0001-01-01T00:00:00Z</time>
				</trkpt>
				<trkpt lat="58.44211" lon="7.78996">
					<ele>165</ele>
					<time>0001-01-01T00:00:00Z</time>
				</trkpt>
				<trkpt lat="58.44387" lon="7.79104">
					<ele>161</ele>
					<time>0001-01-01T00:00:00Z</time>
				</trkpt>
				<trkpt lat="58.44570" lon="7.79215">
					<ele>164</ele>
					<time>0001-01-01T00:00:00Z</time>
				</trkpt>
				<trkpt lat="58.44731" lon="7.79299">
					<ele>166</ele>
					<time>0001-01-01T00:00:00Z</time>
				</trkpt>
				<trkpt lat="58.44832" lon="7.79318">
					<ele>165</ele>
					<time>0001-01-01T00:00:00Z</time>
				</trkpt>
				<trkpt lat="58.44875" lon="7.79373">
					<ele>165</ele>
					<time>0001-01-01T00:00:00Z</time>
				</trkpt>
				<trkpt lat="58.44965" lon="7.79587">
					<ele>169</ele>
					<time>0001-01-01T00:00:00Z</time>
				</trkpt>
				<trkpt lat="58.45058" lon="7.79679">
					<ele>167</ele>
					<time>0001-01-01T00:00:00Z</time>
				</trkpt>
				<trkpt lat="58.45121" lon="7.79726">
					<ele>165</ele>
					<time>0001-01-01T00:00:00Z</time>
				</trkpt>
				<trkpt lat="58.45136" lon="7.79747">
					<ele>165</ele>
					<time>0001-01-01T00:00:00Z</time>
				</trkpt>
				<trkpt lat="58.45147" lon="7.79759">
					<ele>167</ele>
					<time>0001-01-01T00:00:00Z</time>
				</trkpt>
				<trkpt lat="58.45218" lon="7.79854">
					<ele>170</ele>
					<time>0001-01-01T00:00:00Z</time>
				</trkpt>
				<trkpt lat="58.45291" lon="7.79865">
					<ele>171</ele>
					<time>0001-01-01T00:00:00Z</time>
				</trkpt>
				<trkpt lat="58.45342" lon="7.79798">
					<ele>170</ele>
					<time>0001-01-01T00:00:00Z</time>
				</trkpt>
				<trkpt lat="58.45351" lon="7.79777">
					<ele>170</ele>
					<time>0001-01-01T00:00:00Z</time>
				</trkpt>
				<trkpt lat="58.45414" lon="7.79425">
					<ele>168</ele>
					<time>0001-01-01T00:00:00Z</time>
				</trkpt>
				<trkpt lat="58.45428" lon="7.79372">
					<ele>167</ele>
					<time>0001-01-01T00:00:00Z</time>
				</trkpt>
				<trkpt lat="58.45500" lon="7.79274">
					<ele>166</ele>
					<time>0001-01-01T00:00:00Z</time>
				</trkpt>
				<trkpt lat="58.45517" lon="7.79266">
					<ele>165</ele>
					<time>0001-01-01T00:00:00Z</time>
				</trkpt>
				<trkpt lat="58.45648" lon="7.79247">
					<ele>167</ele>
					<time>0001-01-01T00:00:00Z</time>
				</trkpt>
				<trkpt lat="58.45798" lon="7.79237">
					<ele>172</ele>
					<time>0001-01-01T00:00:00Z</time>
				</trkpt>
				<trkpt lat="58.45843" lon="7.79215">
					<ele>176</ele>
					<time>0001-01-01T00:00:00Z</time>
				</trkpt>
				<trkpt lat="58.45936" lon="7.79150">
					<ele>179</ele>
					<time>0001-01-01T00:00:00Z</time>
				</trkpt>
				<trkpt lat="58.46051" lon="7.79102">
					<ele>176</ele>
					<time>0001-01-01T00:00:00Z</time>
				</trkpt>
				<trkpt lat="58.46186" lon="7.79099">
					<ele>172</ele>
					<time>0001-01-01T00:00:00Z</time>
				</trkpt>
				<trkpt lat="58.46375" lon="7.79111">
					<ele>171</ele>
					<time>0001-01-01T00:00:00Z</time>
				</trkpt>
				<trkpt lat="58.46648" lon="7.79143">
					<ele>170</ele>
					<time>0001-01-01T00:00:00Z</time>
				</trkpt>
				<trkpt lat="58.46816" lon="7.79242">
					<ele>165</ele>
					<time>0001-01-01T00:00:00Z</time>
				</trkpt>
				<trkpt lat="58.46935" lon="7.79238">
					<ele>167</ele>
					<time>0001-01-01T00:00:00Z</time>
				</trkpt>
				<trkpt lat="58.47068" lon="7.79147">
					<ele>166</ele>
					<time>0001-01-01T00:00:00Z</time>
				</trkpt>
				<trkpt lat="58.47235" lon="7.79009">
					<ele>166</ele>
					<time>0001-01-01T00:00:00Z</time>
				</trkpt>
				<trkpt lat="58.47438" lon="7.78839">
					<ele>165</ele>
					<time>0001-01-01T00:00:00Z</time>
				</trkpt>
				<trkpt lat="58.47608" lon="7.78696">
					<ele>167</ele>
					<time>0001-01-01T00:00:00Z</time>
				</trkpt>
				<trkpt lat="58.47751" lon="7.78580">
					<ele>167</ele>
					<time>0001-01-01T00:00:00Z</time>
				</trkpt>
				<trkpt lat="58.47908" lon="7.78513">
					<ele>165</ele>
					<time>0001-01-01T00:00:00Z</time>
				</trkpt>
				<trkpt lat="58.48059" lon="7.78525">
					<ele>167</ele>
					<time>0001-01-01T00:00:00Z</time>
				</trkpt>
				<trkpt lat="58.48231" lon="7.78572">
					<ele>169</ele>
					<time>0001-01-01T00:00:00Z</time>
				</trkpt>
				<trkpt lat="58.48365" lon="7.78542">
					<ele>170</ele>
					<time>0001-01-01T00:00:00Z</time>
				</trkpt>
				<trkpt lat="58.48487" lon="7.78425">
					<ele>169</ele>
					<time>0001-01-01T00:00:00Z</time>
				</trkpt>
				<trkpt lat="58.48612" lon="7.78224">
					<ele>168</ele>
					<time>0001-01-01T00:00:00Z</time>
				</trkpt>
				<trkpt lat="58.48742" lon="7.78010">
					<ele>167</ele>
					<time>0001-01-01T00:00:00Z</time>
				</trkpt>
				<trkpt lat="58.48886" lon="7.77778">
					<ele>170</ele>
					<time>0001-01-01T00:00:00Z</time>
				</trkpt>
				<trkpt lat="58.48988" lon="7.77703">
					<ele>168</ele>
					<time>0001-01-01T00:00:00Z</time>
				</trkpt>
				<trkpt lat="58.49097" lon="7.77714">
					<ele>168</ele>
					<time>0001-01-01T00:00:00Z</time>
				</trkpt>
				<trkpt lat="58.49113" lon="7.77721">
					<ele>168</ele>
					<time>0001-01-01T00:00:00Z</time>
				</trkpt>
				<trkpt lat="58.49265" lon="7.77857">
					<ele>165</ele>
					<time>0001-01-01T00:00:00Z</time>
				</trkpt>
				<trkpt lat="58.49391" lon="7.77894">
					<ele>166</ele>
					<time>0001-01-01T00:00:00Z</time>
				</trkpt>
				<trkpt lat="58.49508" lon="7.77839">
					<ele>166</ele>
					<time>0001-01-01T00:00:00Z</time>
				</trkpt>
				<trkpt lat="58.49668" lon="7.77704">
					<ele>165</ele>
					<time>0001-01-01T00:00:00Z</time>
				</trkpt>
				<trkpt lat="58.49817" lon="7.77575">
					<ele>171</ele>
					<time>0001-01-01T00:00:00Z</time>
				</trkpt>
				<trkpt lat="58.49977" lon="7.77437">
					<ele>169</ele>
					<time>0001-01-01T00:00:00Z</time>
				</trkpt>
				<trkpt lat="58.50145" lon="7.77290">
					<ele>168</ele>
					<time>0001-01-01T00:00:00Z</time>
				</trkpt>
				<trkpt lat="58.50336" lon="7.77128">
					<ele>169</ele>
					<time>0001-01-01T00:00:00Z</time>
				</trkpt>
				<trkpt lat="58.50496" lon="7.77052">
					<ele>167</ele>
					<time>0001-01-01T00:00:00Z</time>
				</trkpt>
				<trkpt lat="58.50636" lon="7.76964">
					<ele>166</ele>
					<time>0001-01-01T00:00:00Z</time>
				</trkpt>
				<trkpt lat="58.50779" lon="7.76780">
					<ele>167</ele>
					<time>0001-01-01T00:00:00Z</time>
				</trkpt>
				<trkpt lat="58.50896" lon="7.76681">
					<ele>167</ele>
					<time>0001-01-01T00:00:00Z</time>
				</trkpt>
				<trkpt lat="58.51019" lon="7.76683">
					<ele>169</ele>
					<time>0001-01-01T00:00:00Z</time>
				</trkpt>
				<trkpt lat="58.51086" lon="7.76705">
					<ele>169</ele>
					<time>0001-01-01T00:00:00Z</time>
				</trkpt>
				<trkpt lat="58.51284" lon="7.76781">
					<ele>171</ele>
					<time>0001-01-01T00:00:00Z</time>
				</trkpt>
				<trkpt lat="58.51435" lon="7.76837">
					<ele>171</ele>
					<time>0001-01-01T00:00:00Z</time>
				</trkpt>
				<trkpt lat="58.51573" lon="7.76922">
					<ele>171</ele>
					<time>0001-01-01T00:00:00Z</time>
				</trkpt>
				<trkpt lat="58.51682" lon="7.77055">
					<ele>171</ele>
					<time>0001-01-01T00:00:00Z</time>
				</trkpt>
				<trkpt lat="58.51788" lon="7.77270">
					<ele>173</ele>
					<time>0001-01-01T00:00:00Z</time>
				</trkpt>
				<trkpt lat="58.51906" lon="7.77520">
					<ele>175</ele>
					<time>0001-01-01T00:00:00Z</time>
				</trkpt>
				<trkpt lat="58.52022" lon="7.77658">
					<ele>174</ele>
					<time>0001-01-01T00:00:00Z</time>
				</trkpt>
				<trkpt lat="58.52179" lon="7.77782">
					<ele>175</ele>
					<time>0001-01-01T00:00:00Z</time>
				</trkpt>
				<trkpt lat="58.52280" lon="7.77859">
					<ele>179</ele>
					<time>0001-01-01T00:00:00Z</time>
				</trkpt>
				<trkpt lat="58.52385" lon="7.77924">
					<ele>181</ele>
					<time>0001-01-01T00:00:00Z</time>
				</trkpt>
				<trkpt lat="58.52504" lon="7.77943">
					<ele>179</ele>
					<time>0001-01-01T00:00:00Z</time>
				</trkpt>
				<trkpt lat="58.52654" lon="7.77954">
					<ele>176</ele>
					<time>0001-01-01T00:00:00Z</time>
				</trkpt>
				<trkpt lat="58.52843" lon="7.77972">
					<ele>177</ele>
					<time>0001-01-01T00:00:00Z</time>
				</trkpt>
				<trkpt lat="58.53008" lon="7.77983">
					<ele>177</ele>
					<time>0001-01-01T00:00:00Z</time>
				</trkpt>
				<trkpt lat="58.53132" lon="7.77994">
					<ele>175</ele>
					<time>0001-01-01T00:00:00Z</time>
				</trkpt>
				<trkpt lat="58.53313" lon="7.78008">
					<ele>176</ele>
					<time>0001-01-01T00:00:00Z</time>
				</trkpt>
				<trkpt lat="58.53416" lon="7.78010">
					<ele>177</ele>
					<time>0001-01-01T00:00:00Z</time>
				</trkpt>
				<trkpt lat="58.53515" lon="7.77954">
					<ele>178</ele>
					<time>0001-01-01T00:00:00Z</time>
				</trkpt>
				<trkpt lat="58.53608" lon="7.77848">
					<ele>177</ele>
					<time>0001-01-01T00:00:00Z</time>
				</trkpt>
				<trkpt lat="58.53727" lon="7.77712">
					<ele>178</ele>
					<time>0001-01-01T00:00:00Z</time>
				</trkpt>
				<trkpt lat="58.53833" lon="7.77662">
					<ele>179</ele>
					<time>0001-01-01T00:00:00Z</time>
				</trkpt>
				<trkpt lat="58.53955" lon="7.77683">
					<ele>178</ele>
					<time>0001-01-01T00:00:00Z</time>
				</trkpt>
				<trkpt lat="58.54121" lon="7.77724">
					<ele>174</ele>
					<time>0001-01-01T00:00:00Z</time>
				</trkpt>
				<trkpt lat="58.54200" lon="7.77720">
					<ele>171</ele>
					<time>0001-01-01T00:00:00Z</time>
				</trkpt>
				<trkpt lat="58.54303" lon="7.77636">
					<ele>170</ele>
					<time>0001-01-01T00:00:00Z</time>
				</trkpt>
				<trkpt lat="58.54446" lon="7.77521">
					<ele>170</ele>
					<time>0001-01-01T00:00:00Z</time>
				</trkpt>
				<trkpt lat="58.54572" lon="7.77497">
					<ele>165</ele>
					<time>0001-01-01T00:00:00Z</time>
				</trkpt>
				<trkpt lat="58.54749" lon="7.77543">
					<ele>166</ele>
					<time>0001-01-01T00:00:00Z</time>
				</trkpt>
				<trkpt lat="58.54895" lon="7.77547">
					<ele>168</ele>
					<time>0001-01-01T00:00:00Z</time>
				</trkpt>
				<trkpt lat="58.55015" lon="7.77462">
					<ele>167</ele>
					<time>0001-01-01T00:00:00Z</time>
				</trkpt>
				<trkpt lat="58.55187" lon="7.77289">
					<ele>167</ele>
					<time>0001-01-01T00:00:00Z</time>
				</trkpt>
				<trkpt lat="58.55302" lon="7.77169">
					<ele>173</ele>
					<time>0001-01-01T00:00:00Z</time>
				</trkpt>
				<trkpt lat="58.55413" lon="7.77064">
					<ele>176</ele>
					<time>0001-01-01T00:00:00Z</time>
				</trkpt>
				<trkpt lat="58.55540" lon="7.76983">
					<ele>176</ele>
					<time>0001-01-01T00:00:00Z</time>
				</trkpt>
				<trkpt lat="58.55693" lon="7.76946">
					<ele>176</ele>
					<time>0001-01-01T00:00:00Z</time>
				</trkpt>
				<trkpt lat="58.55875" lon="7.76961">
					<ele>176</ele>
					<time>0001-01-01T00:00:00Z</time>
				</trkpt>
				<trkpt lat="58.56012" lon="7.76998">
					<ele>175</ele>
					<time>0001-01-01T00:00:00Z</time>
				</trkpt>
				<trkpt lat="58.56113" lon="7.77115">
					<ele>170</ele>
					<time>0001-01-01T00:00:00Z</time>
				</trkpt>
				<trkpt lat="58.56258" lon="7.77320">
					<ele>168</ele>
					<time>0001-01-01T00:00:00Z</time>
				</trkpt>
				<trkpt lat="58.56396" lon="7.77408">
					<ele>168</ele>
					<time>0001-01-01T00:00:00Z</time>
				</trkpt>
				<trkpt lat="58.56551" lon="7.77415">
					<ele>167</ele>
					<time>0001-01-01T00:00:00Z</time>
				</trkpt>
				<trkpt lat="58.56690" lon="7.77418">
					<ele>166</ele>
					<time>0001-01-01T00:00:00Z</time>
				</trkpt>
				<trkpt lat="58.56816" lon="7.77498">
					<ele>166</ele>
					<time>0001-01-01T00:00:00Z</time>
				</trkpt>
				<trkpt lat="58.57005" lon="7.77598">
					<ele>167</ele>
					<time>0001-01-01T00:00:00Z</time>
				</trkpt>
				<trkpt lat="58.57211" lon="7.77624">
					<ele>167</ele>
					<time>0001-01-01T00:00:00Z</time>
				</trkpt>
				<trkpt lat="58.57375" lon="7.77623">
					<ele>167</ele>
					<time>0001-01-01T00:00:00Z</time>
				</trkpt>
				<trkpt lat="58.57478" lon="7.77670">
					<ele>166</ele>
					<time>0001-01-01T00:00:00Z</time>
				</trkpt>
				<trkpt lat="58.57553" lon="7.77809">
					<ele>167</ele>
					<time>0001-01-01T00:00:00Z</time>
				</trkpt>
				<trkpt lat="58.57670" lon="7.78043">
					<ele>170</ele>
					<time>0001-01-01T00:00:00Z</time>
				</trkpt>
				<trkpt lat="58.57745" lon="7.78162">
					<ele>174</ele>
					<time>0001-01-01T00:00:00Z</time>
				</trkpt>
				<trkpt lat="58.57804" lon="7.78296">
					<ele>175</ele>
					<time>0001-01-01T00:00:00Z</time>
				</trkpt>
				<trkpt lat="58.57876" lon="7.78544">
					<ele>177</ele>
					<time>0001-01-01T00:00:00Z</time>
				</trkpt>
				<trkpt lat="58.57977" lon="7.78919">
					<ele>177</ele>
					<time>0001-01-01T00:00:00Z</time>
				</trkpt>
				<trkpt lat="58.58068" lon="7.79256">
					<ele>178</ele>
					<time>0001-01-01T00:00:00Z</time>
				</trkpt>
				<trkpt lat="58.58167" lon="7.79548">
					<ele>178</ele>
					<time>0001-01-01T00:00:00Z</time>
				</trkpt>
				<trkpt lat="58.58281" lon="7.79789">
					<ele>179</ele>
					<time>0001-01-01T00:00:00Z</time>
				</trkpt>
				<trkpt lat="58.58432" lon="7.80099">
					<ele>180</ele>
					<time>0001-01-01T00:00:00Z</time>
				</trkpt>
				<trkpt lat="58.58561" lon="7.80349">
					<ele>180</ele>
					<time>0001-01-01T00:00:00Z</time>
				</trkpt>
				<trkpt lat="58.58681" lon="7.80509">
					<ele>179</ele>
					<time>0001-01-01T00:00:00Z</time>
				</trkpt>
				<trkpt lat="58.58784" lon="7.80708">
					<ele>177</ele>
					<time>0001-01-01T00:00:00Z</time>
				</trkpt>
				<trkpt lat="58.58878" lon="7.80975">
					<ele>177</ele>
					<time>0001-01-01T00:00:00Z</time>
				</trkpt>
				<trkpt lat="58.58960" lon="7.81293">
					<ele>177</ele>
					<time>0001-01-01T00:00:00Z</time>
				</trkpt>
				<trkpt lat="58.59026" lon="7.81564">
					<ele>177</ele>
					<time>0001-01-01T00:00:00Z</time>
				</trkpt>
				<trkpt lat="58.59005" lon="7.81709">
					<ele>123</ele>
					<time>0001-01-01T00:00:00Z</time>
				</trkpt>
				<trkpt lat="58.59108" lon="7.81787">
					<ele>214</ele>
					<time>0001-01-01T00:00:00Z</time>
				</trkpt>
				<trkpt lat="58.59156" lon="7.82010">
					<ele>205</ele>
					<time>0001-01-01T00:00:00Z</time>
				</trkpt>
				<trkpt lat="58.59212" lon="7.82147">
					<ele>196</ele>
					<time>0001-01-01T00:00:00Z</time>
				</trkpt>
				<trkpt lat="58.59260" lon="7.82195">
					<ele>189</ele>
					<time>0001-01-01T00:00:00Z</time>
				</trkpt>
				<trkpt lat="58.59259" lon="7.82195">
					<ele>189</ele>
					<time>0001-01-01T00:00:00Z</time>
				</trkpt>
				<trkpt lat="58.59251" lon="7.82188">
					<ele>185</ele>
					<time>0001-01-01T00:00:00Z</time>
				</trkpt>
				<trkpt lat="58.59277" lon="7.82203">
					<ele>176</ele>
					<time>0001-01-01T00:00:00Z</time>
				</trkpt>
				<trkpt lat="58.59370" lon="7.82246">
					<ele>174</ele>
					<time>0001-01-01T00:00:00Z</time>
				</trkpt>
				<trkpt lat="58.59493" lon="7.82339">
					<ele>175</ele>
					<time>0001-01-01T00:00:00Z</time>
				</trkpt>
				<trkpt lat="58.59571" lon="7.82494">
					<ele>179</ele>
					<time>0001-01-01T00:00:00Z</time>
				</trkpt>
				<trkpt lat="58.59678" lon="7.82703">
					<ele>183</ele>
					<time>0001-01-01T00:00:00Z</time>
				</trkpt>
				<trkpt lat="58.59784" lon="7.82814">
					<ele>184</ele>
					<time>0001-01-01T00:00:00Z</time>
				</trkpt>
				<trkpt lat="58.59912" lon="7.82871">
					<ele>181</ele>
					<time>0001-01-01T00:00:00Z</time>
				</trkpt>
				<trkpt lat="58.60052" lon="7.82849">
					<ele>179</ele>
					<time>0001-01-01T00:00:00Z</time>
				</trkpt>
				<trkpt lat="58.60183" lon="7.82740">
					<ele>180</ele>
					<time>0001-01-01T00:00:00Z</time>
				</trkpt>
				<trkpt lat="58.60368" lon="7.82544">
					<ele>179</ele>
					<time>0001-01-01T00:00:00Z</time>
				</trkpt>
				<trkpt lat="58.60473" lon="7.82428">
					<ele>183</ele>
					<time>0001-01-01T00:00:00Z</time>
				</trkpt>
				<trkpt lat="58.60577" lon="7.82274">
					<ele>189</ele>
					<time>0001-01-01T00:00:00Z</time>
				</trkpt>
				<trkpt lat="58.60652" lon="7.82069">
					<ele>189</ele>
					<time>0001-01-01T00:00:00Z</time>
				</trkpt>
				<trkpt lat="58.60755" lon="7.81741">
					<ele>188</ele>
					<time>0001-01-01T00:00:00Z</time>
				</trkpt>
				<trkpt lat="58.60854" lon="7.81422">
					<ele>187</ele>
					<time>0001-01-01T00:00:00Z</time>
				</trkpt>
				<trkpt lat="58.60944" lon="7.81142">
					<ele>186</ele>
					<time>0001-01-01T00:00:00Z</time>
				</trkpt>
				<trkpt lat="58.61035" lon="7.80924">
					<ele>187</ele>
					<time>0001-01-01T00:00:00Z</time>
				</trkpt>
				<trkpt lat="58.61134" lon="7.80794">
					<ele>188</ele>
					<time>0001-01-01T00:00:00Z</time>
				</trkpt>
				<trkpt lat="58.61256" lon="7.80717">
					<ele>187</ele>
					<time>0001-01-01T00:00:00Z</time>
				</trkpt>
				<trkpt lat="58.61436" lon="7.80681">
					<ele>188</ele>
					<time>0001-01-01T00:00:00Z</time>
				</trkpt>
				<trkpt lat="58.61601" lon="7.80650">
					<ele>187</ele>
					<time>0001-01-01T00:00:00Z</time>
				</trkpt>
				<trkpt lat="58.61753" lon="7.80620">
					<ele>186</ele>
					<time>0001-01-01T00:00:00Z</time>
				</trkpt>
				<trkpt lat="58.61949" lon="7.80556">
					<ele>186</ele>
					<time>0001-01-01T00:00:00Z</time>
				</trkpt>
				<trkpt lat="58.62129" lon="7.80452">
					<ele>188</ele>
					<time>0001-01-01T00:00:00Z</time>
				</trkpt>
				<trkpt lat="58.62325" lon="7.80331">
					<ele>188</ele>
					<time>0001-01-01T00:00:00Z</time>
				</trkpt>
				<trkpt lat="58.62508" lon="7.80218">
					<ele>190</ele>
					<time>0001-01-01T00:00:00Z</time>
				</trkpt>
				<trkpt lat="58.62648" lon="7.80188">
					<ele>192</ele>
					<time>0001-01-01T00:00:00Z</time>
				</trkpt>
				<trkpt lat="58.62772" lon="7.80237">
					<ele>188</ele>
					<time>0001-01-01T00:00:00Z</time>
				</trkpt>
				<trkpt lat="58.62928" lon="7.80310">
					<ele>187</ele>
					<time>0001-01-01T00:00:00Z</time>
				</trkpt>
				<trkpt lat="58.63097" lon="7.80389">
					<ele>186</ele>
					<time>0001-01-01T00:00:00Z</time>
				</trkpt>
				<trkpt lat="58.63236" lon="7.80452">
					<ele>189</ele>
					<time>0001-01-01T00:00:00Z</time>
				</trkpt>
				<trkpt lat="58.63375" lon="7.80522">
					<ele>195</ele>
					<time>0001-01-01T00:00:00Z</time>
				</trkpt>
				<trkpt lat="58.63503" lon="7.80616">
					<ele>191</ele>
					<time>0001-01-01T00:00:00Z</time>
				</trkpt>
				<trkpt lat="58.63650" lon="7.80737">
					<ele>191</ele>
					<time>0001-01-01T00:00:00Z</time>
				</trkpt>
				<trkpt lat="58.63807" lon="7.80862">
					<ele>192</ele>
					<time>0001-01-01T00:00:00Z</time>
				</trkpt>
				<trkpt lat="58.63936" lon="7.80972">
					<ele>194</ele>
					<time>0001-01-01T00:00:00Z</time>
				</trkpt>
				<trkpt lat="58.64045" lon="7.81113">
					<ele>195</ele>
					<time>0001-01-01T00:00:00Z</time>
				</trkpt>
				<trkpt lat="58.64132" lon="7.81279">
					<ele>196</ele>
					<time>0001-01-01T00:00:00Z</time>
				</trkpt>
				<trkpt lat="58.64237" lon="7.81529">
					<ele>197</ele>
					<time>0001-01-01T00:00:00Z</time>
				</trkpt>
				<trkpt lat="58.64321" lon="7.81632">
					<ele>200</ele>
					<time>0001-01-01T00:00:00Z</time>
				</trkpt>
				<trkpt lat="58.64386" lon="7.81655">
					<ele>205</ele>
					<time>0001-01-01T00:00:00Z</time>
				</trkpt>
				<trkpt lat="58.64496" lon="7.81612">
					<ele>205</ele>
					<time>0001-01-01T00:00:00Z</time>
				</trkpt>
				<trkpt lat="58.64618" lon="7.81541">
					<ele>204</ele>
					<time>0001-01-01T00:00:00Z</time>
				</trkpt>
				<trkpt lat="58.64759" lon="7.81535">
					<ele>204</ele>
					<time>0001-01-01T00:00:00Z</time>
				</trkpt>
				<trkpt lat="58.64896" lon="7.81453">
					<ele>205</ele>
					<time>0001-01-01T00:00:00Z</time>
				</trkpt>
				<trkpt lat="58.65070" lon="7.81344">
					<ele>206</ele>
					<time>0001-01-01T00:00:00Z</time>
				</trkpt>
				<trkpt lat="58.65185" lon="7.81329">
					<ele>205</ele>
					<time>0001-01-01T00:00:00Z</time>
				</trkpt>
				<trkpt lat="58.65251" lon="7.81383">
					<ele>205</ele>
					<time>0001-01-01T00:00:00Z</time>
				</trkpt>
				<trkpt lat="58.65348" lon="7.81572">
					<ele>204</ele>
					<time>0001-01-01T00:00:00Z</time>
				</trkpt>
				<trkpt lat="58.65445" lon="7.81717">
					<ele>204</ele>
					<time>0001-01-01T00:00:00Z</time>
				</trkpt>
				<trkpt lat="58.65623" lon="7.81883">
					<ele>205</ele>
					<time>0001-01-01T00:00:00Z</time>
				</trkpt>
				<trkpt lat="58.65775" lon="7.82022">
					<ele>206</ele>
					<time>0001-01-01T00:00:00Z</time>
				</trkpt>
				<trkpt lat="58.65898" lon="7.82057">
					<ele>208</ele>
					<time>0001-01-01T00:00:00Z</time>
				</trkpt>
				<trkpt lat="58.66042" lon="7.82018">
					<ele>206</ele>
					<time>0001-01-01T00:00:00Z</time>
				</trkpt>
				<trkpt lat="58.66221" lon="7.81937">
					<ele>205</ele>
					<time>0001-01-01T00:00:00Z</time>
				</trkpt>
				<trkpt lat="58.66349" lon="7.81788">
					<ele>204</ele>
					<time>0001-01-01T00:00:00Z</time>
				</trkpt>
				<trkpt lat="58.66471" lon="7.81572">
					<ele>203</ele>
					<time>0001-01-01T00:00:00Z</time>
				</trkpt>
				<trkpt lat="58.66599" lon="7.81346">
					<ele>204</ele>
					<time>0001-01-01T00:00:00Z</time>
				</trkpt>
				<trkpt lat="58.66643" lon="7.81267">
					<ele>203</ele>
					<time>0001-01-01T00:00:00Z</time>
				</trkpt>
				<trkpt lat="58.66722" lon="7.81143">
					<ele>207</ele>
					<time>0001-01-01T00:00:00Z</time>
				</trkpt>
				<trkpt lat="58.66785" lon="7.81003">
					<ele>210</ele>
					<time>0001-01-01T00:00:00Z</time>
				</trkpt>
				<trkpt lat="58.66849" lon="7.80828">
					<ele>209</ele>
					<time>0001-01-01T00:00:00Z</time>
				</trkpt>
				<trkpt lat="58.66941" lon="7.80744">
					<ele>207</ele>
					<time>0001-01-01T00:00:00Z</time>
				</trkpt>
				<trkpt lat="58.67054" lon="7.80677">
					<ele>208</ele>
					<time>0001-01-01T00:00:00Z</time>
				</trkpt>
				<trkpt lat="58.67107" lon="7.80702">
					<ele>207</ele>
					<time>0001-01-01T00:00:00Z</time>
				</trkpt>
				<trkpt lat="58.67221" lon="7.80797">
					<ele>206</ele>
					<time>0001-01-01T00:00:00Z</time>
				</trkpt>
				<trkpt lat="58.67324" lon="7.80811">
					<ele>209</ele>
					<time>0001-01-01T00:00:00Z</time>
				</trkpt>
				<trkpt lat="58.67404" lon="7.80882">
					<ele>208</ele>
					<time>0001-01-01T00:00:00Z</time>
				</trkpt>
				<trkpt lat="58.67513" lon="7.81041">
					<ele>206</ele>
					<time>0001-01-01T00:00:00Z</time>
				</trkpt>
				<trkpt lat="58.67643" lon="7.81113">
					<ele>207</ele>
					<time>0001-01-01T00:00:00Z</time>
				</trkpt>
				<trkpt lat="58.67768" lon="7.81096">
					<ele>207</ele>
					<time>0001-01-01T00:00:00Z</time>
				</trkpt>
				<trkpt lat="58.67884" lon="7.81103">
					<ele>208</ele>
					<time>0001-01-01T00:00:00Z</time>
				</trkpt>
				<trkpt lat="58.68090" lon="7.81207">
					<ele>209</ele>
					<time>0001-01-01T00:00:00Z</time>
				</trkpt>
				<trkpt lat="58.68228" lon="7.81230">
					<ele>213</ele>
					<time>0001-01-01T00:00:00Z</time>
				</trkpt>
				<trkpt lat="58.68449" lon="7.81201">
					<ele>217</ele>
					<time>0001-01-01T00:00:00Z</time>
				</trkpt>
				<trkpt lat="58.68565" lon="7.81126">
					<ele>218</ele>
					<time>0001-01-01T00:00:00Z</time>
				</trkpt>
				<trkpt lat="58.68653" lon="7.81027">
					<ele>218</ele>
					<time>0001-01-01T00:00:00Z</time>
				</trkpt>
				<trkpt lat="58.68675" lon="7.80879">
					<ele>216</ele>
					<time>0001-01-01T00:00:00Z</time>
				</trkpt>
				<trkpt lat="58.68679" lon="7.80629">
					<ele>214</ele>
					<time>0001-01-01T00:00:00Z</time>
				</trkpt>
				<trkpt lat="58.68718" lon="7.80487">
					<ele>214</ele>
					<time>0001-01-01T00:00:00Z</time>
				</trkpt>
				<trkpt lat="58.68791" lon="7.80404">
					<ele>214</ele>
					<time>0001-01-01T00:00:00Z</time>
				</trkpt>
				<trkpt lat="58.68873" lon="7.80416">
					<ele>212</ele>
					<time>0001-01-01T00:00:00Z</time>
				</trkpt>
				<trkpt lat="58.68975" lon="7.80539">
					<ele>209</ele>
					<time>0001-01-01T00:00:00Z</time>
				</trkpt>
				<trkpt lat="58.69130" lon="7.80710">
					<ele>208</ele>
					<time>0001-01-01T00:00:00Z</time>
				</trkpt>
				<trkpt lat="58.69294" lon="7.80867">
					<ele>209</ele>
					<time>0001-01-01T00:00:00Z</time>
				</trkpt>
				<trkpt lat="58.69425" lon="7.81029">
					<ele>212</ele>
					<time>0001-01-01T00:00:00Z</time>
				</trkpt>
				<trkpt lat="58.69538" lon="7.81196">
					<ele>209</ele>
					<time>0001-01-01T00:00:00Z</time>
				</trkpt>
				<trkpt lat="58.69643" lon="7.81413">
					<ele>206</ele>
					<time>0001-01-01T00:00:00Z</time>
				</trkpt>
				<trkpt lat="58.69727" lon="7.81594">
					<ele>206</ele>
					<time>0001-01-01T00:00:00Z</time>
				</trkpt>
				<trkpt lat="58.69801" lon="7.81727">
					<ele>205</ele>
					<time>0001-01-01T00:00:00Z</time>
				</trkpt>
				<trkpt lat="58.69896" lon="7.81783">
					<ele>205</ele>
					<time>0001-01-01T00:00:00Z</time>
				</trkpt>
				<trkpt lat="58.70007" lon="7.81771">
					<ele>207</ele>
					<time>0001-01-01T00:00:00Z</time>
				</trkpt>
				<trkpt lat="58.70109" lon="7.81798">
					<ele>208</ele>
					<time>0001-01-01T00:00:00Z</time>
				</trkpt>
				<trkpt lat="58.70189" lon="7.81903">
					<ele>206</ele>
					<time>0001-01-01T00:00:00Z</time>
				</trkpt>
				<trkpt lat="58.70270" lon="7.82116">
					<ele>205</ele>
					<time>0001-01-01T00:00:00Z</time>
				</trkpt>
				<trkpt lat="58.70357" lon="7.82294">
					<ele>206</ele>
					<time>0001-01-01T00:00:00Z</time>
				</trkpt>
				<trkpt lat="58.70433" lon="7.82420">
					<ele>207</ele>
					<time>0001-01-01T00:00:00Z</time>
				</trkpt>
				<trkpt lat="58.70516" lon="7.82511">
					<ele>206</ele>
					<time>0001-01-01T00:00:00Z</time>
				</trkpt>
				<trkpt lat="58.70563" lon="7.82516">
					<ele>206</ele>
					<time>0001-01-01T00:00:00Z</time>
				</trkpt>
				<trkpt lat="58.70688" lon="7.82441">
					<ele>207</ele>
					<time>0001-01-01T00:00:00Z</time>
				</trkpt>
				<trkpt lat="58.70724" lon="7.82425">
					<ele>207</ele>
					<time>0001-01-01T00:00:00Z</time>
				</trkpt>
				<trkpt lat="58.70866" lon="7.82399">
					<ele>204</ele>
					<time>0001-01-01T00:00:00Z</time>
				</trkpt>
				<trkpt lat="58.71001" lon="7.82345">
					<ele>210</ele>
					<time>0001-01-01T00:00:00Z</time>
				</trkpt>
				<trkpt lat="58.71114" lon="7.82279">
					<ele>212</ele>
					<time>0001-01-01T00:00:00Z</time>
				</trkpt>
				<trkpt lat="58.71216" lon="7.82317">
					<ele>208</ele>
					<time>0001-01-01T00:00:00Z</time>
				</trkpt>
				<trkpt lat="58.71325" lon="7.82399">
					<ele>210</ele>
					<time>0001-01-01T00:00:00Z</time>
				</trkpt>
				<trkpt lat="58.71466" lon="7.82469">
					<ele>211</ele>
					<time>0001-01-01T00:00:00Z</time>
				</trkpt>
				<trkpt lat="58.71593" lon="7.82505">
					<ele>206</ele>
					<time>0001-01-01T00:00:00Z</time>
				</trkpt>
				<trkpt lat="58.71701" lon="7.82485">
					<ele>209</ele>
					<time>0001-01-01T00:00:00Z</time>
				</trkpt>
				<trkpt lat="58.71806" lon="7.82494">
					<ele>212</ele>
					<time>0001-01-01T00:00:00Z</time>
				</trkpt>
				<trkpt lat="58.71914" lon="7.82474">
					<ele>211</ele>
					<time>0001-01-01T00:00:00Z</time>
				</trkpt>
				<trkpt lat="58.72030" lon="7.82346">
					<ele>210</ele>
					<time>0001-01-01T00:00:00Z</time>
				</trkpt>
				<trkpt lat="58.72105" lon="7.82174">
					<ele>213</ele>
					<time>0001-01-01T00:00:00Z</time>
				</trkpt>
				<trkpt lat="58.72160" lon="7.82021">
					<ele>220</ele>
					<time>0001-01-01T00:00:00Z</time>
				</trkpt>
				<trkpt lat="58.72221" lon="7.81864">
					<ele>223</ele>
					<time>0001-01-01T00:00:00Z</time>
				</trkpt>
				<trkpt lat="58.72309" lon="7.81688">
					<ele>225</ele>
					<time>0001-01-01T00:00:00Z</time>
				</trkpt>
				<trkpt lat="58.72343" lon="7.81631">
					<ele>227</ele>
					<time>0001-01-01T00:00:00Z</time>
				</trkpt>
				<trkpt lat="58.72416" lon="7.81545">
					<ele>227</ele>
					<time>0001-01-01T00:00:00Z</time>
				</trkpt>
				<trkpt lat="58.72499" lon="7.81464">
					<ele>224</ele>
					<time>0001-01-01T00:00:00Z</time>
				</trkpt>
				<trkpt lat="58.72578" lon="7.81427">
					<ele>220</ele>
					<time>0001-01-01T00:00:00Z</time>
				</trkpt>
				<trkpt lat="58.72707" lon="7.81467">
					<ele>213</ele>
					<time>0001-01-01T00:00:00Z</time>
				</trkpt>
				<trkpt lat="58.72855" lon="7.81508">
					<ele>210</ele>
					<time>0001-01-01T00:00:00Z</time>
				</trkpt>
				<trkpt lat="58.72985" lon="7.81615">
					<ele>209</ele>
					<time>0001-01-01T00:00:00Z</time>
				</trkpt>
				<trkpt lat="58.73103" lon="7.81788">
					<ele>206</ele>
					<time>0001-01-01T00:00:00Z</time>
				</trkpt>
				<trkpt lat="58.73234" lon="7.82004">
					<ele>204</ele>
					<time>0001-01-01T00:00:00Z</time>
				</trkpt>
				<trkpt lat="58.73359" lon="7.82221">
					<ele>205</ele>
					<time>0001-01-01T00:00:00Z</time>
				</trkpt>
				<trkpt lat="58.73479" lon="7.82488">
					<ele>205</ele>
					<time>0001-01-01T00:00:00Z</time>
				</trkpt>
				<trkpt lat="58.73583" lon="7.82785">
					<ele>206</ele>
					<time>0001-01-01T00:00:00Z</time>
				</trkpt>
				<trkpt lat="58.73699" lon="7.83137">
					<ele>205</ele>
					<time>0001-01-01T00:00:00Z</time>
				</trkpt>
				<trkpt lat="58.73803" lon="7.83409">
					<ele>206</ele>
					<time>0001-01-01T00:00:00Z</time>
				</trkpt>
				<trkpt lat="58.73916" lon="7.83632">
					<ele>205</ele>
					<time>0001-01-01T00:00:00Z</time>
				</trkpt>
				<trkpt lat="58.74017" lon="7.83814">
					<ele>205</ele>
					<time>0001-01-01T00:00:00Z</time>
				</trkpt>
				<trkpt lat="58.74124" lon="7.84028">
					<ele>201</ele>
					<time>0001-01-01T00:00:00Z</time>
				</trkpt>
				<trkpt lat="58.74239" lon="7.84252">
					<ele>201</ele>
					<time>0001-01-01T00:00:00Z</time>
				</trkpt>
				<trkpt lat="58.74340" lon="7.84352">
					<ele>203</ele>
					<time>0001-01-01T00:00:00Z</time>
				</trkpt>
				<trkpt lat="58.74485" lon="7.84501">
					<ele>206</ele>
					<time>0001-01-01T00:00:00Z</time>
				</trkpt>
				<trkpt lat="58.74606" lon="7.84717">
					<ele>208</ele>
					<time>0001-01-01T00:00:00Z</time>
				</trkpt>
				<trkpt lat="58.74665" lon="7.84827">
					<ele>213</ele>
					<time>0001-01-01T00:00:00Z</time>
				</trkpt>
				<trkpt lat="58.74714" lon="7.84911">
					<ele>216</ele>
					<time>0001-01-01T00:00:00Z</time>
				</trkpt>
				<trkpt lat="58.74783" lon="7.85007">
					<ele>225</ele>
					<time>0001-01-01T00:00:00Z</time>
				</trkpt>
				<trkpt lat="58.74859" lon="7.85091">
					<ele>231</ele>
					<time>0001-01-01T00:00:00Z</time>
				</trkpt>
				<trkpt lat="58.74950" lon="7.85184">
					<ele>231</ele>
					<time>0001-01-01T00:00:00Z</time>
				</trkpt>
				<trkpt lat="58.75059" lon="7.85284">
					<ele>231</ele>
					<time>0001-01-01T00:00:00Z</time>
				</trkpt>
				<trkpt lat="58.75185" lon="7.85384">
					<ele>228</ele>
					<time>0001-01-01T00:00:00Z</time>
				</trkpt>
				<trkpt lat="58.75302" lon="7.85414">
					<ele>227</ele>
					<time>0001-01-01T00:00:00Z</time>
				</trkpt>
				<trkpt lat="58.75418" lon="7.85352">
					<ele>226</ele>
					<time>0001-01-01T00:00:00Z</time>
				</trkpt>
				<trkpt lat="58.75580" lon="7.85252">
					<ele>218</ele>
					<time>0001-01-01T00:00:00Z</time>
				</trkpt>
				<trkpt lat="58.75731" lon="7.85267">
					<ele>211</ele>
					<time>0001-01-01T00:00:00Z</time>
				</trkpt>
				<trkpt lat="58.75879" lon="7.85259">
					<ele>210</ele>
					<time>0001-01-01T00:00:00Z</time>
				</trkpt>
				<trkpt lat="58.75987" lon="7.85243">
					<ele>211</ele>
					<time>0001-01-01T00:00:00Z</time>
				</trkpt>
				<trkpt lat="58.76102" lon="7.85277">
					<ele>209</ele>
					<time>0001-01-01T00:00:00Z</time>
				</trkpt>
				<trkpt lat="58.76222" lon="7.85263">
					<ele>214</ele>
					<time>0001-01-01T00:00:00Z</time>
				</trkpt>
				<trkpt lat="58.76429" lon="7.85217">
					<ele>219</ele>
					<time>0001-01-01T00:00:00Z</time>
				</trkpt>
				<trkpt lat="58.76584" lon="7.85201">
					<ele>219</ele>
					<time>0001-01-01T00:00:00Z</time>
				</trkpt>
				<trkpt lat="58.76722" lon="7.85184">
					<ele>221</ele>
					<time>0001-01-01T00:00:00Z</time>
				</trkpt>
				<trkpt lat="58.76918" lon="7.85113">
					<ele>221</ele>
					<time>0001-01-01T00:00:00Z</time>
				</trkpt>
				<trkpt lat="58.77096" lon="7.84979">
					<ele>219</ele>
					<time>0001-01-01T00:00:00Z</time>
				</trkpt>
				<trkpt lat="58.77224" lon="7.84815">
					<ele>216</ele>
					<time>0001-01-01T00:00:00Z</time>
				</trkpt>
				<trkpt lat="58.77365" lon="7.84605">
					<ele>219</ele>
					<time>0001-01-01T00:00:00Z</time>
				</trkpt>
				<trkpt lat="58.77507" lon="7.84387">
					<ele>225</ele>
					<time>0001-01-01T00:00:00Z</time>
				</trkpt>
				<trkpt lat="58.77539" lon="7.84291">
					<ele>224</ele>
					<time>0001-01-01T00:00:00Z</time>
				</trkpt>
				<trkpt lat="58.77569" lon="7.84096">
					<ele>222</ele>
					<time>0001-01-01T00:00:00Z</time>
				</trkpt>
				<trkpt lat="58.77587" lon="7.84042">
					<ele>221</ele>
					<time>0001-01-01T00:00:00Z</time>
				</trkpt>
				<trkpt lat="58.77660" lon="7.83891">
					<ele>217</ele>
					<time>0001-01-01T00:00:00Z</time>
				</trkpt>
				<trkpt lat="58.77971" lon="7.82944">
					<ele>224</ele>
					<time>0001-01-01T00:00:00Z</time>
				</trkpt>
				<trkpt lat="58.77997" lon="7.82910">
					<ele>221</ele>
					<time>0001-01-01T00:00:00Z</time>
				</trkpt>
				<trkpt lat="58.78035" lon="7.82881">
					<ele>221</ele>
					<time>0001-01-01T00:00:00Z</time>
				</trkpt>
				<trkpt lat="58.78195" lon="7.82843">
					<ele>217</ele>
					<time>0001-01-01T00:00:00Z</time>
				</trkpt>
				<trkpt lat="58.78297" lon="7.82782">
					<ele>220</ele>
					<time>0001-01-01T00:00:00Z</time>
				</trkpt>
				<trkpt lat="58.78414" lon="7.82695">
					<ele>223</ele>
					<time>0001-01-01T00:00:00Z</time>
				</trkpt>
				<trkpt lat="58.78521" lon="7.82615">
					<ele>227</ele>
					<time>0001-01-01T00:00:00Z</time>
				</trkpt>
				<trkpt lat="58.78651" lon="7.82494">
					<ele>226</ele>
					<time>0001-01-01T00:00:00Z</time>
				</trkpt>
				<trkpt lat="58.78742" lon="7.82349">
					<ele>226</ele>
					<time>0001-01-01T00:00:00Z</time>
				</trkpt>
				<trkpt lat="58.78851" lon="7.82202">
					<ele>222</ele>
					<time>0001-01-01T00:00:00Z</time>
				</trkpt>
				<trkpt lat="58.79005" lon="7.82077">
					<ele>221</ele>
					<time>0001-01-01T00:00:00Z</time>
				</trkpt>
				<trkpt lat="58.79109" lon="7.81958">
					<ele>221</ele>
					<time>0001-01-01T00:00:00Z</time>
				</trkpt>
				<trkpt lat="58.79243" lon="7.81884">
					<ele>211</ele>
					<time>0001-01-01T00:00:00Z</time>
				</trkpt>
				<trkpt lat="58.79427" lon="7.81812">
					<ele>207</ele>
					<time>0001-01-01T00:00:00Z</time>
				</trkpt>
				<trkpt lat="58.79582" lon="7.81705">
					<ele>206</ele>
					<time>0001-01-01T00:00:00Z</time>
				</trkpt>
				<trkpt lat="58.79725" lon="7.81538">
					<ele>206</ele>
					<time>0001-01-01T00:00:00Z</time>
				</trkpt>
				<trkpt lat="58.79783" lon="7.81371">
					<ele>206</ele>
					<time>0001-01-01T00:00:00Z</time>
				</trkpt>
				<trkpt lat="58.79811" lon="7.81121">
					<ele>206</ele>
					<time>0001-01-01T00:00:00Z</time>
				</trkpt>
				<trkpt lat="58.79830" lon="7.80777">
					<ele>209</ele>
					<time>0001-01-01T00:00:00Z</time>
				</trkpt>
				<trkpt lat="58.79818" lon="7.80450">
					<ele>210</ele>
					<time>0001-01-01T00:00:00Z</time>
				</trkpt>
				<trkpt lat="58.79762" lon="7.80279">
					<ele>212</ele>
					<time>0001-01-01T00:00:00Z</time>
				</trkpt>
				<trkpt lat="58.79670" lon="7.80139">
					<ele>213</ele>
					<time>0001-01-01T00:00:00Z</time>
				</trkpt>
				<trkpt lat="58.79585" lon="7.79965">
					<ele>213</ele>
					<time>0001-01-01T00:00:00Z</time>
				</trkpt>
				<trkpt lat="58.79504" lon="7.79737">
					<ele>217</ele>
					<time>0001-01-01T00:00:00Z</time>
				</trkpt>
				<trkpt lat="58.79447" lon="7.79626">
					<ele>221</ele>
					<time>0001-01-01T00:00:00Z</time>
				</trkpt>
				<trkpt lat="58.79419" lon="7.79537">
					<ele>227</ele>
					<time>0001-01-01T00:00:00Z</time>
				</trkpt>
				<trkpt lat="58.79408" lon="7.79456">
					<ele>230</ele>
					<time>0001-01-01T00:00:00Z</time>
				</trkpt>
				<trkpt lat="58.79419" lon="7.79320">
					<ele>231</ele>
					<time>0001-01-01T00:00:00Z</time>
				</trkpt>
				<trkpt lat="58.79469" lon="7.79192">
					<ele>229</ele>
					<time>0001-01-01T00:00:00Z</time>
				</trkpt>
				<trkpt lat="58.79572" lon="7.79056">
					<ele>223</ele>
					<time>0001-01-01T00:00:00Z</time>
				</trkpt>
				<trkpt lat="58.79716" lon="7.78906">
					<ele>214</ele>
					<time>0001-01-01T00:00:00Z</time>
				</trkpt>
				<trkpt lat="58.79839" lon="7.78867">
					<ele>212</ele>
					<time>0001-01-01T00:00:00Z</time>
				</trkpt>
				<trkpt lat="58.79950" lon="7.78897">
					<ele>212</ele>
					<time>0001-01-01T00:00:00Z</time>
				</trkpt>
				<trkpt lat="58.80062" lon="7.78994">
					<ele>213</ele>
					<time>0001-01-01T00:00:00Z</time>
				</trkpt>
				<trkpt lat="58.80217" lon="7.79138">
					<ele>207</ele>
					<time>0001-01-01T00:00:00Z</time>
				</trkpt>
				<trkpt lat="58.80341" lon="7.79151">
					<ele>206</ele>
					<time>0001-01-01T00:00:00Z</time>
				</trkpt>
				<trkpt lat="58.80532" lon="7.79126">
					<ele>208</ele>
					<time>0001-01-01T00:00:00Z</time>
				</trkpt>
				<trkpt lat="58.80663" lon="7.79068">
					<ele>212</ele>
					<time>0001-01-01T00:00:00Z</time>
				</trkpt>
				<trkpt lat="58.80776" lon="7.79089">
					<ele>211</ele>
					<time>0001-01-01T00:00:00Z</time>
				</trkpt>
				<trkpt lat="58.80909" lon="7.79152">
					<ele>207</ele>
					<time>0001-01-01T00:00:00Z</time>
				</trkpt>
				<trkpt lat="58.81070" lon="7.79167">
					<ele>206</ele>
					<time>0001-01-01T00:00:00Z</time>
				</trkpt>
				<trkpt lat="58.81245" lon="7.79200">
					<ele>205</ele>
					<time>0001-01-01T00:00:00Z</time>
				</trkpt>
				<trkpt lat="58.81357" lon="7.79182">
					<ele>209</ele>
					<time>0001-01-01T00:00:00Z</time>
				</trkpt>
				<trkpt lat="58.81547" lon="7.79200">
					<ele>213</ele>
					<time>0001-01-01T00:00:00Z</time>
				</trkpt>
				<trkpt lat="58.81660" lon="7.79244">
					<ele>213</ele>
					<time>0001-01-01T00:00:00Z</time>
				</trkpt>
				<trkpt lat="58.81820" lon="7.79253">
					<ele>212</ele>
					<time>0001-01-01T00:00:00Z</time>
				</trkpt>
				<trkpt lat="58.81955" lon="7.79287">
					<ele>208</ele>
					<time>0001-01-01T00:00:00Z</time>
				</trkpt>
				<trkpt lat="58.82143" lon="7.79354">
					<ele>206</ele>
					<time>0001-01-01T00:00:00Z</time>
				</trkpt>
				<trkpt lat="58.82336" lon="7.79467">
					<ele>204</ele>
					<time>0001-01-01T00:00:00Z</time>
				</trkpt>
				<trkpt lat="58.82538" lon="7.79588">
					<ele>205</ele>
					<time>0001-01-01T00:00:00Z</time>
				</trkpt>
				<trkpt lat="58.82685" lon="7.79643">
					<ele>206</ele>
					<time>0001-01-01T00:00:00Z</time>
				</trkpt>
				<trkpt lat="58.82826" lon="7.79626">
					<ele>204</ele>
					<time>0001-01-01T00:00:00Z</time>
				</trkpt>
				<trkpt lat="58.82978" lon="7.79549">
					<ele>205</ele>
					<time>0001-01-01T00:00:00Z</time>
				</trkpt>
				<trkpt lat="58.83134" lon="7.79447">
					<ele>205</ele>
					<time>0001-01-01T00:00:00Z</time>
				</trkpt>
				<trkpt lat="58.83250" lon="7.79306">
					<ele>208</ele>
					<time>0001-01-01T00:00:00Z</time>
				</trkpt>
				<trkpt lat="58.83332" lon="7.79156">
					<ele>211</ele>
					<time>0001-01-01T00:00:00Z</time>
				</trkpt>
				<trkpt lat="58.83390" lon="7.78965">
					<ele>211</ele>
					<time>0001-01-01T00:00:00Z</time>
				</trkpt>
				<trkpt lat="58.83430" lon="7.78656">
					<ele>214</ele>
					<time>0001-01-01T00:00:00Z</time>
				</trkpt>
				<trkpt lat="58.83457" lon="7.78335">
					<ele>217</ele>
					<time>0001-01-01T00:00:00Z</time>
				</trkpt>
				<trkpt lat="58.83479" lon="7.78078">
					<ele>218</ele>
					<time>0001-01-01T00:00:00Z</time>
				</trkpt>
				<trkpt lat="58.83530" lon="7.77889">
					<ele>216</ele>
					<time>0001-01-01T00:00:00Z</time>
				</trkpt>
				<trkpt lat="58.83615" lon="7.77761">
					<ele>214</ele>
					<time>0001-01-01T00:00:00Z</time>
				</trkpt>
				<trkpt lat="58.83726" lon="7.77702">
					<ele>212</ele>
					<time>0001-01-01T00:00:00Z</time>
				</trkpt>
				<trkpt lat="58.83931" lon="7.77610">
					<ele>211</ele>
					<time>0001-01-01T00:00:00Z</time>
				</trkpt>
				<trkpt lat="58.84041" lon="7.77544">
					<ele>213</ele>
					<time>0001-01-01T00:00:00Z</time>
				</trkpt>
				<trkpt lat="58.84149" lon="7.77466">
					<ele>217</ele>
					<time>0001-01-01T00:00:00Z</time>
				</trkpt>
				<trkpt lat="58.84287" lon="7.77352">
					<ele>219</ele>
					<time>0001-01-01T00:00:00Z</time>
				</trkpt>
				<trkpt lat="58.84430" lon="7.77230">
					<ele>221</ele>
					<time>0001-01-01T00:00:00Z</time>
				</trkpt>
				<trkpt lat="58.84555" lon="7.77190">
					<ele>220</ele>
					<time>0001-01-01T00:00:00Z</time>
				</trkpt>
				<trkpt lat="58.84677" lon="7.77236">
					<ele>218</ele>
					<time>0001-01-01T00:00:00Z</time>
				</trkpt>
				<trkpt lat="58.84793" lon="7.77244">
					<ele>211</ele>
					<time>0001-01-01T00:00:00Z</time>
				</trkpt>
				<trkpt lat="58.84900" lon="7.77161">
					<ele>209</ele>
					<time>0001-01-01T00:00:00Z</time>
				</trkpt>
				<trkpt lat="58.85020" lon="7.77011">
					<ele>208</ele>
					<time>0001-01-01T00:00:00Z</time>
				</trkpt>
				<trkpt lat="58.85157" lon="7.76786">
					<ele>207</ele>
					<time>0001-01-01T00:00:00Z</time>
				</trkpt>
				<trkpt lat="58.85214" lon="7.76605">
					<ele>209</ele>
					<time>0001-01-01T00:00:00Z</time>
				</trkpt>
				<trkpt lat="58.85227" lon="7.76407">
					<ele>212</ele>
					<time>0001-01-01T00:00:00Z</time>
				</trkpt>
				<trkpt lat="58.85201" lon="7.76169">
					<ele>214</ele>
					<time>0001-01-01T00:00:00Z</time>
				</trkpt>
				<trkpt lat="58.85164" lon="7.75855">
					<ele>217</ele>
					<time>0001-01-01T00:00:00Z</time>
				</trkpt>
				<trkpt lat="58.85144" lon="7.75656">
					<ele>218</ele>
					<time>0001-01-01T00:00:00Z</time>
				</trkpt>
				<trkpt lat="58.85146" lon="7.75443">
					<ele>215</ele>
					<time>0001-01-01T00:00:00Z</time>
				</trkpt>
				<trkpt lat="58.85143" lon="7.75370">
					<ele>215</ele>
					<time>0001-01-01T00:00:00Z</time>
				</trkpt>
				<trkpt lat="58.85098" lon="7.75224">
					<ele>218</ele>
					<time>0001-01-01T00:00:00Z</time>
				</trkpt>
				<trkpt lat="58.85028" lon="7.75064">
					<ele>218</ele>
					<time>0001-01-01T00:00:00Z</time>
				</trkpt>
				<trkpt lat="58.84949" lon="7.74836">
					<ele>214</ele>
					<time>0001-01-01T00:00:00Z</time>
				</trkpt>
				<trkpt lat="58.84945" lon="7.74806">
					<ele>213</ele>
					<time>0001-01-01T00:00:00Z</time>
				</trkpt>
				<trkpt lat="58.84958" lon="7.74644">
					<ele>212</ele>
					<time>0001-01-01T00:00:00Z</time>
				</trkpt>
				<trkpt lat="58.85011" lon="7.74376">
					<ele>211</ele>
					<time>0001-01-01T00:00:00Z</time>
				</trkpt>
				<trkpt lat="58.85086" lon="7.74242">
					<ele>212</ele>
					<time>0001-01-01T00:00:00Z</time>
				</trkpt>
				<trkpt lat="58.85198" lon="7.74078">
					<ele>214</ele>
					<time>0001-01-01T00:00:00Z</time>
				</trkpt>
				<trkpt lat="58.85302" lon="7.73926">
					<ele>214</ele>
					<time>0001-01-01T00:00:00Z</time>
				</trkpt>
				<trkpt lat="58.85374" lon="7.73777">
					<ele>218</ele>
					<time>0001-01-01T00:00:00Z</time>
				</trkpt>
				<trkpt lat="58.85464" lon="7.73351">
					<ele>225</ele>
					<time>0001-01-01T00:00:00Z</time>
				</trkpt>
				<trkpt lat="58.85522" lon="7.73078">
					<ele>227</ele>
					<time>0001-01-01T00:00:00Z</time>
				</trkpt>
				<trkpt lat="58.85575" lon="7.72828">
					<ele>231</ele>
					<time>0001-01-01T00:00:00Z</time>
				</trkpt>
				<trkpt lat="58.85624" lon="7.72602">
					<ele>235</ele>
					<time>0001-01-01T00:00:00Z</time>
				</trkpt>
				<trkpt lat="58.85701" lon="7.72308">
					<ele>238</ele>
					<time>0001-01-01T00:00:00Z</time>
				</trkpt>
				<trkpt lat="58.85777" lon="7.72126">
					<ele>238</ele>
					<time>0001-01-01T00:00:00Z</time>
				</trkpt>
				<trkpt lat="58.85884" lon="7.71939">
					<ele>231</ele>
					<time>0001-01-01T00:00:00Z</time>
				</trkpt>
				<trkpt lat="58.86027" lon="7.71688">
					<ele>226</ele>
					<time>0001-01-01T00:00:00Z</time>
				</trkpt>
				<trkpt lat="58.86104" lon="7.71542">
					<ele>229</ele>
					<time>0001-01-01T00:00:00Z</time>
				</trkpt>
				<trkpt lat="58.86225" lon="7.71319">
					<ele>233</ele>
					<time>0001-01-01T00:00:00Z</time>
				</trkpt>
				<trkpt lat="58.86319" lon="7.71144">
					<ele>230</ele>
					<time>0001-01-01T00:00:00Z</time>
				</trkpt>
				<trkpt lat="58.86447" lon="7.70948">
					<ele>229</ele>
					<time>0001-01-01T00:00:00Z</time>
				</trkpt>
				<trkpt lat="58.86580" lon="7.70830">
					<ele>224</ele>
					<time>0001-01-01T00:00:00Z</time>
				</trkpt>
				<trkpt lat="58.86798" lon="7.70668">
					<ele>228</ele>
					<time>0001-01-01T00:00:00Z</time>
				</trkpt>
				<trkpt lat="58.86826" lon="7.70640">
					<ele>229</ele>
					<time>0001-01-01T00:00:00Z</time>
				</trkpt>
				<trkpt lat="58.86826" lon="7.70639">
					<ele>230</ele>
					<time>0001-01-01T00:00:00Z</time>
				</trkpt>
				<trkpt lat="58.86929" lon="7.70582">
					<ele>230</ele>
					<time>0001-01-01T00:00:00Z</time>
				</trkpt>
				<trkpt lat="58.87057" lon="7.70546">
					<ele>229</ele>
					<time>0001-01-01T00:00:00Z</time>
				</trkpt>
				<trkpt lat="58.87199" lon="7.70502">
					<ele>224</ele>
					<time>0001-01-01T00:00:00Z</time>
				</trkpt>
				<trkpt lat="58.87209" lon="7.70498">
					<ele>224</ele>
					<time>0001-01-01T00:00:00Z</time>
				</trkpt>
				<trkpt lat="58.87302" lon="7.70415">
					<ele>223</ele>
					<time>0001-01-01T00:00:00Z</time>
				</trkpt>
				<trkpt lat="58.87429" lon="7.70304">
					<ele>218</ele>
					<time>0001-01-01T00:00:00Z</time>
				</trkpt>
				<trkpt lat="58.87565" lon="7.70240">
					<ele>219</ele>
					<time>0001-01-01T00:00:00Z</time>
				</trkpt>
				<trkpt lat="58.87617" lon="7.70225">
					<ele>218</ele>
					<time>0001-01-01T00:00:00Z</time>
				</trkpt>
				<trkpt lat="58.87675" lon="7.70234">
					<ele>220</ele>
					<time>0001-01-01T00:00:00Z</time>
				</trkpt>
				<trkpt lat="58.87851" lon="7.70337">
					<ele>222</ele>
					<time>0001-01-01T00:00:00Z</time>
				</trkpt>
				<trkpt lat="58.88005" lon="7.70405">
					<ele>221</ele>
					<time>0001-01-01T00:00:00Z</time>
				</trkpt>
				<trkpt lat="58.88131" lon="7.70420">
					<ele>217</ele>
					<time>0001-01-01T00:00:00Z</time>
				</trkpt>
				<trkpt lat="58.88299" lon="7.70432">
					<ele>215</ele>
					<time>0001-01-01T00:00:00Z</time>
				</trkpt>
				<trkpt lat="58.88316" lon="7.70436">
					<ele>215</ele>
					<time>0001-01-01T00:00:00Z</time>
				</trkpt>
				<trkpt lat="58.88410" lon="7.70514">
					<ele>217</ele>
					<time>0001-01-01T00:00:00Z</time>
				</trkpt>
				<trkpt lat="58.88533" lon="7.70618">
					<ele>215</ele>
					<time>0001-01-01T00:00:00Z</time>
				</trkpt>
				<trkpt lat="58.88600" lon="7.70677">
					<ele>214</ele>
					<time>0001-01-01T00:00:00Z</time>
				</trkpt>
				<trkpt lat="58.88740" lon="7.70734">
					<ele>211</ele>
					<time>0001-01-01T00:00:00Z</time>
				</trkpt>
				<trkpt lat="58.88877" lon="7.70785">
					<ele>212</ele>
					<time>0001-01-01T00:00:00Z</time>
				</trkpt>
				<trkpt lat="58.88996" lon="7.70810">
					<ele>214</ele>
					<time>0001-01-01T00:00:00Z</time>
				</trkpt>
				<trkpt lat="58.89109" lon="7.70830">
					<ele>211</ele>
					<time>0001-01-01T00:00:00Z</time>
				</trkpt>
				<trkpt lat="58.89217" lon="7.70939">
					<ele>211</ele>
					<time>0001-01-01T00:00:00Z</time>
				</trkpt>
				<trkpt lat="58.89355" lon="7.71015">
					<ele>211</ele>
					<time>0001-01-01T00:00:00Z</time>
				</trkpt>
				<trkpt lat="58.89479" lon="7.70987">
					<ele>211</ele>
					<time>0001-01-01T00:00:00Z</time>
				</trkpt>
				<trkpt lat="58.89589" lon="7.70927">
					<ele>210</ele>
					<time>0001-01-01T00:00:00Z</time>
				</trkpt>
				<trkpt lat="58.89742" lon="7.70877">
					<ele>209</ele>
					<time>0001-01-01T00:00:00Z</time>
				</trkpt>
				<trkpt lat="58.89784" lon="7.70883">
					<ele>208</ele>
					<time>0001-01-01T00:00:00Z</time>
				</trkpt>
				<trkpt lat="58.89949" lon="7.70964">
					<ele>207</ele>
					<time>0001-01-01T00:00:00Z</time>
				</trkpt>
				<trkpt lat="58.90193" lon="7.71149">
					<ele>211</ele>
					<time>0001-01-01T00:00:00Z</time>
				</trkpt>
				<trkpt lat="58.90284" lon="7.71245">
					<ele>215</ele>
					<time>0001-01-01T00:00:00Z</time>
				</trkpt>
				<trkpt lat="58.90353" lon="7.71360">
					<ele>217</ele>
					<time>0001-01-01T00:00:00Z</time>
				</trkpt>
				<trkpt lat="58.90439" lon="7.71405">
					<ele>214</ele>
					<time>0001-01-01T00:00:00Z</time>
				</trkpt>
				<trkpt lat="58.90585" lon="7.71426">
					<ele>210</ele>
					<time>0001-01-01T00:00:00Z</time>
				</trkpt>
				<trkpt lat="58.90726" lon="7.71412">
					<ele>213</ele>
					<time>0001-01-01T00:00:00Z</time>
				</trkpt>
				<trkpt lat="58.90783" lon="7.71356">
					<ele>214</ele>
					<time>0001-01-01T00:00:00Z</time>
				</trkpt>
				<trkpt lat="58.90868" lon="7.71342">
					<ele>217</ele>
					<time>0001-01-01T00:00:00Z</time>
				</trkpt>
				<trkpt lat="58.90985" lon="7.71291">
					<ele>219</ele>
					<time>0001-01-01T00:00:00Z</time>
				</trkpt>
				<trkpt lat="58.91118" lon="7.71244">
					<ele>217</ele>
					<time>0001-01-01T00:00:00Z</time>
				</trkpt>
				<trkpt lat="58.91262" lon="7.71303">
					<ele>218</ele>
					<time>0001-01-01T00:00:00Z</time>
				</trkpt>
				<trkpt lat="58.91377" lon="7.71322">
					<ele>216</ele>
					<time>0001-01-01T00:00:00Z</time>
				</trkpt>
				<trkpt lat="58.91432" lon="7.71391">
					<ele>216</ele>
					<time>0001-01-01T00:00:00Z</time>
				</trkpt>
				<trkpt lat="58.91534" lon="7.71422">
					<ele>214</ele>
					<time>0001-01-01T00:00:00Z</time>
				</trkpt>
				<trkpt lat="58.91595" lon="7.71433">
					<ele>214</ele>
					<time>0001-01-01T00:00:00Z</time>
				</trkpt>
				<trkpt lat="58.91620" lon="7.71475">
					<ele>215</ele>
					<time>0001-01-01T00:00:00Z</time>
				</trkpt>
				<trkpt lat="58.91629" lon="7.71584">
					<ele>216</ele>
					<time>0001-01-01T00:00:00Z</time>
				</trkpt>
				<trkpt lat="58.91639" lon="7.71655">
					<ele>216</ele>
					<time>0001-01-01T00:00:00Z</time>
				</trkpt>
				<trkpt lat="58.91693" lon="7.71700">
					<ele>216</ele>
					<time>0001-01-01T00:00:00Z</time>
				</trkpt>
				<trkpt lat="58.91700" lon="7.71700">
					<ele>216</ele>
					<time>0001-01-01T00:00:00Z</time>
				</trkpt>
				<trkpt lat="58.91714" lon="7.71698">
					<ele>217</ele>
					<time>0001-01-01T00:00:00Z</time>
				</trkpt>
				<trkpt lat="58.91856" lon="7.71627">
					<ele>216</ele>
					<time>0001-01-01T00:00:00Z</time>
				</trkpt>
				<trkpt lat="58.91945" lon="7.71617">
					<ele>216</ele>
					<time>0001-01-01T00:00:00Z</time>
				</trkpt>
				<trkpt lat="58.91989" lon="7.71575">
					<ele>215</ele>
					<time>0001-01-01T00:00:00Z</time>
				</trkpt>
				<trkpt lat="58.92036" lon="7.71504">
					<ele>214</ele>
					<time>0001-01-01T00:00:00Z</time>
				</trkpt>
				<trkpt lat="58.92135" lon="7.71247">
					<ele>213</ele>
					<time>0001-01-01T00:00:00Z</time>
				</trkpt>
				<trkpt lat="58.92249" lon="7.71049">
					<ele>214</ele>
					<time>0001-01-01T00:00:00Z</time>
				</trkpt>
				<trkpt lat="58.92422" lon="7.70772">
					<ele>213</ele>
					<time>0001-01-01T00:00:00Z</time>
				</trkpt>
				<trkpt lat="58.92520" lon="7.70550">
					<ele>216</ele>
					<time>0001-01-01T00:00:00Z</time>
				</trkpt>
				<trkpt lat="58.92617" lon="7.70352">
					<ele>216</ele>
					<time>0001-01-01T00:00:00Z</time>
				</trkpt>
				<trkpt lat="58.92778" lon="7.70122">
					<ele>215</ele>
					<time>0001-01-01T00:00:00Z</time>
				</trkpt>
				<trkpt lat="58.92913" lon="7.69960">
					<ele>213</ele>
					<time>0001-01-01T00:00:00Z</time>
				</trkpt>
				<trkpt lat="58.93121" lon="7.69785">
					<ele>213</ele>
					<time>0001-01-01T00:00:00Z</time>
				</trkpt>
				<trkpt lat="58.93221" lon="7.69725">
					<ele>210</ele>
					<time>0001-01-01T00:00:00Z</time>
				</trkpt>
				<trkpt lat="58.93368" lon="7.69763">
					<ele>208</ele>
					<time>0001-01-01T00:00:00Z</time>
				</trkpt>
				<trkpt lat="58.93489" lon="7.69693">
					<ele>208</ele>
					<time>0001-01-01T00:00:00Z</time>
				</trkpt>
				<trkpt lat="58.93590" lon="7.69544">
					<ele>210</ele>
					<time>0001-01-01T00:00:00Z</time>
				</trkpt>
				<trkpt lat="58.93717" lon="7.69361">
					<ele>213</ele>
					<time>0001-01-01T00:00:00Z</time>
				</trkpt>
				<trkpt lat="58.93885" lon="7.69191">
					<ele>212</ele>
					<time>0001-01-01T00:00:00Z</time>
				</trkpt>
				<trkpt lat="58.94036" lon="7.69040">
					<ele>212</ele>
					<time>0001-01-01T00:00:00Z</time>
				</trkpt>
				<trkpt lat="58.94194" lon="7.68882">
					<ele>214</ele>
					<time>0001-01-01T00:00:00Z</time>
				</trkpt>
				<trkpt lat="58.94298" lon="7.68778">
					<ele>215</ele>
					<time>0001-01-01T00:00:00Z</time>
				</trkpt>
				<trkpt lat="58.94394" lon="7.68740">
					<ele>214</ele>
					<time>0001-01-01T00:00:00Z</time>
				</trkpt>
				<trkpt lat="58.94565" lon="7.68751">
					<ele>214</ele>
					<time>0001-01-01T00:00:00Z</time>
				</trkpt>
				<trkpt lat="58.94648" lon="7.68699">
					<ele>215</ele>
					<time>0001-01-01T00:00:00Z</time>
				</trkpt>
				<trkpt lat="58.94748" lon="7.68544">
					<ele>215</ele>
					<time>0001-01-01T00:00:00Z</time>
				</trkpt>
				<trkpt lat="58.94853" lon="7.68343">
					<ele>218</ele>
					<time>0001-01-01T00:00:00Z</time>
				</trkpt>
				<trkpt lat="58.94989" lon="7.68117">
					<ele>212</ele>
					<time>0001-01-01T00:00:00Z</time>
				</trkpt>
				<trkpt lat="58.95094" lon="7.67858">
					<ele>215</ele>
					<time>0001-01-01T00:00:00Z</time>
				</trkpt>
				<trkpt lat="58.95123" lon="7.67675">
					<ele>218</ele>
					<time>0001-01-01T00:00:00Z</time>
				</trkpt>
				<trkpt lat="58.95169" lon="7.67455">
					<ele>221</ele>
					<time>0001-01-01T00:00:00Z</time>
				</trkpt>
				<trkpt lat="58.95262" lon="7.67270">
					<ele>222</ele>
					<time>0001-01-01T00:00:00Z</time>
				</trkpt>
				<trkpt lat="58.95398" lon="7.67004">
					<ele>219</ele>
					<time>0001-01-01T00:00:00Z</time>
				</trkpt>
				<trkpt lat="58.95489" lon="7.66767">
					<ele>218</ele>
					<time>0001-01-01T00:00:00Z</time>
				</trkpt>
				<trkpt lat="58.95572" lon="7.66653">
					<ele>218</ele>
					<time>0001-01-01T00:00:00Z</time>
				</trkpt>
				<trkpt lat="58.95670" lon="7.66637">
					<ele>216</ele>
					<time>0001-01-01T00:00:00Z</time>
				</trkpt>
				<trkpt lat="58.95759" lon="7.66693">
					<ele>217</ele>
					<time>0001-01-01T00:00:00Z</time>
				</trkpt>
				<trkpt lat="58.95844" lon="7.66758">
					<ele>215</ele>
					<time>0001-01-01T00:00:00Z</time>
				</trkpt>
				<trkpt lat="58.95947" lon="7.66755">
					<ele>216</ele>
					<time>0001-01-01T00:00:00Z</time>
				</trkpt>
				<trkpt lat="58.96139" lon="7.66702">
					<ele>217</ele>
					<time>0001-01-01T00:00:00Z</time>
				</trkpt>
				<trkpt lat="58.96342" lon="7.66648">
					<ele>220</ele>
					<time>0001-01-01T00:00:00Z</time>
				</trkpt>
				<trkpt lat="58.96549" lon="7.66594">
					<ele>222</ele>
					<time>0001-01-01T00:00:00Z</time>
				</trkpt>
				<trkpt lat="58.96730" lon="7.66547">
					<ele>222</ele>
					<time>0001-01-01T00:00:00Z</time>
				</trkpt>
				<trkpt lat="58.96890" lon="7.66499">
					<ele>222</ele>
					<time>0001-01-01T00:00:00Z</time>
				</trkpt>
				<trkpt lat="58.97053" lon="7.66458">
					<ele>225</ele>
					<time>0001-01-01T00:00:00Z</time>
				</trkpt>
				<trkpt lat="58.97221" lon="7.66415">
					<ele>223</ele>
					<time>0001-01-01T00:00:00Z</time>
				</trkpt>
				<trkpt lat="58.97356" lon="7.66340">
					<ele>221</ele>
					<time>0001-01-01T00:00:00Z</time>
				</trkpt>
				<trkpt lat="58.97503" lon="7.66256">
					<ele>225</ele>
					<time>0001-01-01T00:00:00Z</time>
				</trkpt>
				<trkpt lat="58.97542" lon="7.66232">
					<ele>228</ele>
					<time>0001-01-01T00:00:00Z</time>
				</trkpt>
				<trkpt lat="58.97624" lon="7.66108">
					<ele>227</ele>
					<time>0001-01-01T00:00:00Z</time>
				</trkpt>
				<trkpt lat="58.97749" lon="7.65902">
					<ele>222</ele>
					<time>0001-01-01T00:00:00Z</time>
				</trkpt>
				<trkpt lat="58.97868" lon="7.65707">
					<ele>224</ele>
					<time>0001-01-01T00:00:00Z</time>
				</trkpt>
				<trkpt lat="58.97942" lon="7.65548">
					<ele>225</ele>
					<time>0001-01-01T00:00:00Z</time>
				</trkpt>
				<trkpt lat="58.98008" lon="7.65323">
					<ele>223</ele>
					<time>0001-01-01T00:00:00Z</time>
				</trkpt>
				<trkpt lat="58.98052" lon="7.65141">
					<ele>221</ele>
					<time>0001-01-01T00:00:00Z</time>
				</trkpt>
				<trkpt lat="58.98053" lon="7.65078">
					<ele>220</ele>
					<time>0001-01-01T00:00:00Z</time>
				</trkpt>
				<trkpt lat="58.98034" lon="7.64735">
					<ele>218</ele>
					<time>0001-01-01T00:00:00Z</time>
				</trkpt>
				<trkpt lat="58.98045" lon="7.64460">
					<ele>219</ele>
					<time>0001-01-01T00:00:00Z</time>
				</trkpt>
				<trkpt lat="58.98034" lon="7.64186">
					<ele>216</ele>
					<time>0001-01-01T00:00:00Z</time>
				</trkpt>
				<trkpt lat="58.98058" lon="7.63864">
					<ele>216</ele>
					<time>0001-01-01T00:00:00Z</time>
				</trkpt>
				<trkpt lat="58.98055" lon="7.63620">
					<ele>216</ele>
					<time>0001-01-01T00:00:00Z</time>
				</trkpt>
				<trkpt lat="58.98029" lon="7.63255">
					<ele>215</ele>
					<time>0001-01-01T00:00:00Z</time>
				</trkpt>
				<trkpt lat="58.98026" lon="7.63051">
					<ele>215</ele>
					<time>0001-01-01T00:00:00Z</time>
				</trkpt>
				<trkpt lat="58.98058" lon="7.62902">
					<ele>217</ele>
					<time>0001-01-01T00:00:00Z</time>
				</trkpt>
				<trkpt lat="58.98060" lon="7.62847">
					<ele>216</ele>
					<time>0001-01-01T00:00:00Z</time>
				</trkpt>
				<trkpt lat="58.98040" lon="7.62655">
					<ele>212</ele>
					<time>0001-01-01T00:00:00Z</time>
				</trkpt>
				<trkpt lat="58.98032" lon="7.62605">
					<ele>212</ele>
					<time>0001-01-01T00:00:00Z</time>
				</trkpt>
				<trkpt lat="58.98020" lon="7.62560">
					<ele>212</ele>
					<time>0001-01-01T00:00:00Z</time>
				</trkpt>
				<trkpt lat="58.98009" lon="7.62534">
					<ele>213</ele>
					<time>0001-01-01T00:00:00Z</time>
				</trkpt>
				<trkpt lat="58.97933" lon="7.62396">
					<ele>214</ele>
					<time>0001-01-01T00:00:00Z</time>
				</trkpt>
				<trkpt lat="58.97897" lon="7.62252">
					<ele>218</ele>
					<time>0001-01-01T00:00:00Z</time>
				</trkpt>
				<trkpt lat="58.97865" lon="7.62122">
					<ele>221</ele>
					<time>0001-01-01T00:00:00Z</time>
				</trkpt>
				<trkpt lat="58.97864" lon="7.62070">
					<ele>221</ele>
					<time>0001-01-01T00:00:00Z</time>
				</trkpt>
				<trkpt lat="58.97883" lon="7.61889">
					<ele>221</ele>
					<time>0001-01-01T00:00:00Z</time>
				</trkpt>
				<trkpt lat="58.97897" lon="7.61564">
					<ele>220</ele>
					<time>0001-01-01T00:00:00Z</time>
				</trkpt>
				<trkpt lat="58.97891" lon="7.61268">
					<ele>220</ele>
					<time>0001-01-01T00:00:00Z</time>
				</trkpt>
				<trkpt lat="58.97879" lon="7.60995">
					<ele>220</ele>
					<time>0001-01-01T00:00:00Z</time>
				</trkpt>
				<trkpt lat="58.97875" lon="7.60778">
					<ele>221</ele>
					<time>0001-01-01T00:00:00Z</time>
				</trkpt>
				<trkpt lat="58.97852" lon="7.60556">
					<ele>222</ele>
					<time>0001-01-01T00:00:00Z</time>
				</trkpt>
				<trkpt lat="58.97851" lon="7.60401">
					<ele>224</ele>
					<time>0001-01-01T00:00:00Z</time>
				</trkpt>
				<trkpt lat="58.97850" lon="7.60130">
					<ele>224</ele>
					<time>0001-01-01T00:00:00Z</time>
				</trkpt>
				<trkpt lat="58.97816" lon="7.59876">
					<ele>225</ele>
					<time>0001-01-01T00:00:00Z</time>
				</trkpt>
				<trkpt lat="58.97768" lon="7.59572">
					<ele>228</ele>
					<time>0001-01-01T00:00:00Z</time>
				</trkpt>
				<trkpt lat="58.97730" lon="7.59326">
					<ele>227</ele>
					<time>0001-01-01T00:00:00Z</time>
				</trkpt>
				<trkpt lat="58.97648" lon="7.59011">
					<ele>227</ele>
					<time>0001-01-01T00:00:00Z</time>
				</trkpt>
				<trkpt lat="58.97591" lon="7.58786">
					<ele>226</ele>
					<time>0001-01-01T00:00:00Z</time>
				</trkpt>
				<trkpt lat="58.97557" lon="7.58614">
					<ele>227</ele>
					<time>0001-01-01T00:00:00Z</time>
				</trkpt>
				<trkpt lat="58.97511" lon="7.58447">
					<ele>231</ele>
					<time>0001-01-01T00:00:00Z</time>
				</trkpt>
				<trkpt lat="58.97468" lon="7.58275">
					<ele>231</ele>
					<time>0001-01-01T00:00:00Z</time>
				</trkpt>
				<trkpt lat="58.97450" lon="7.58057">
					<ele>227</ele>
					<time>0001-01-01T00:00:00Z</time>
				</trkpt>
				<trkpt lat="58.97432" lon="7.57711">
					<ele>228</ele>
					<time>0001-01-01T00:00:00Z</time>
				</trkpt>
				<trkpt lat="58.97402" lon="7.57310">
					<ele>221</ele>
					<time>0001-01-01T00:00:00Z</time>
				</trkpt>
				<trkpt lat="58.97395" lon="7.57235">
					<ele>219</ele>
					<time>0001-01-01T00:00:00Z</time>
				</trkpt>
				<trkpt lat="58.97402" lon="7.56916">
					<ele>215</ele>
					<time>0001-01-01T00:00:00Z</time>
				</trkpt>
				<trkpt lat="58.97408" lon="7.56545">
					<ele>210</ele>
					<time>0001-01-01T00:00:00Z</time>
				</trkpt>
				<trkpt lat="58.97402" lon="7.56273">
					<ele>209</ele>
					<time>0001-01-01T00:00:00Z</time>
				</trkpt>
				<trkpt lat="58.97409" lon="7.56060">
					<ele>212</ele>
					<time>0001-01-01T00:00:00Z</time>
				</trkpt>
				<trkpt lat="58.97435" lon="7.55847">
					<ele>211</ele>
					<time>0001-01-01T00:00:00Z</time>
				</trkpt>
				<trkpt lat="58.97450" lon="7.55666">
					<ele>215</ele>
					<time>0001-01-01T00:00:00Z</time>
				</trkpt>
				<trkpt lat="58.97451" lon="7.55638">
					<ele>216</ele>
					<time>0001-01-01T00:00:00Z</time>
				</trkpt>
				<trkpt lat="58.97475" lon="7.55500">
					<ele>218</ele>
					<time>0001-01-01T00:00:00Z</time>
				</trkpt>
				<trkpt lat="58.97515" lon="7.55361">
					<ele>219</ele>
					<time>0001-01-01T00:00:00Z</time>
				</trkpt>
				<trkpt lat="58.97573" lon="7.55185">
					<ele>218</ele>
					<time>0001-01-01T00:00:00Z</time>
				</trkpt>
				<trkpt lat="58.97624" lon="7.54974">
					<ele>216</ele>
					<time>0001-01-01T00:00:00Z</time>
				</trkpt>
				<trkpt lat="58.97713" lon="7.54772">
					<ele>214</ele>
					<time>0001-01-01T00:00:00Z</time>
				</trkpt>
				<trkpt lat="58.97789" lon="7.54642">
					<ele>219</ele>
					<time>0001-01-01T00:00:00Z</time>
				</trkpt>
				<trkpt lat="58.97842" lon="7.54574">
					<ele>219</ele>
					<time>0001-01-01T00:00:00Z</time>
				</trkpt>
				<trkpt lat="58.97923" lon="7.54475">
					<ele>226</ele>
					<time>0001-01-01T00:00:00Z</time>
				</trkpt>
				<trkpt lat="58.98013" lon="7.54346">
					<ele>227</ele>
					<time>0001-01-01T00:00:00Z</time>
				</trkpt>
				<trkpt lat="58.98092" lon="7.54277">
					<ele>227</ele>
					<time>0001-01-01T00:00:00Z</time>
				</trkpt>
				<trkpt lat="58.98201" lon="7.54216">
					<ele>226</ele>
					<time>0001-01-01T00:00:00Z</time>
				</trkpt>
				<trkpt lat="58.98326" lon="7.54150">
					<ele>227</ele>
					<time>0001-01-01T00:00:00Z</time>
				</trkpt>
				<trkpt lat="58.98430" lon="7.54126">
					<ele>225</ele>
					<time>0001-01-01T00:00:00Z</time>
				</trkpt>
				<trkpt lat="58.98500" lon="7.54179">
					<ele>225</ele>
					<time>0001-01-01T00:00:00Z</time>
				</trkpt>
				<trkpt lat="58.98555" lon="7.54169">
					<ele>225</ele>
					<time>0001-01-01T00:00:00Z</time>
				</trkpt>
				<trkpt lat="58.98676" lon="7.54030">
					<ele>223</ele>
					<time>0001-01-01T00:00:00Z</time>
				</trkpt>
				<trkpt lat="58.98793" lon="7.53898">
					<ele>225</ele>
					<time>0001-01-01T00:00:00Z</time>
				</trkpt>
				<trkpt lat="58.98909" lon="7.53810">
					<ele>223</ele>
					<time>0001-01-01T00:00:00Z</time>
				</trkpt>
				<trkpt lat="58.99054" lon="7.53712">
					<ele>222</ele>
					<time>0001-01-01T00:00:00Z</time>
				</trkpt>
				<trkpt lat="58.99199" lon="7.53608">
					<ele>222</ele>
					<time>0001-01-01T00:00:00Z</time>
				</trkpt>
				<trkpt lat="58.99319" lon="7.53539">
					<ele>225</ele>
					<time>0001-01-01T00:00:00Z</time>
				</trkpt>
				<trkpt lat="58.99382" lon="7.53525">
					<ele>224</ele>
					<time>0001-01-01T00:00:00Z</time>
				</trkpt>
				<trkpt lat="58.99522" lon="7.53559">
					<ele>226</ele>
					<time>0001-01-01T00:00:00Z</time>
				</trkpt>
				<trkpt lat="58.99653" lon="7.53516">
					<ele>224</ele>
					<time>0001-01-01T00:00:00Z</time>
				</trkpt>
				<trkpt lat="58.99781" lon="7.53506">
					<ele>224</ele>
					<time>0001-01-01T00:00:00Z</time>
				</trkpt>
				<trkpt lat="58.99960" lon="7.53511">
					<ele>223</ele>
					<time>0001-01-01T00:00:00Z</time>
				</trkpt>
				<trkpt lat="59.00101" lon="7.53570">
					<ele>218</ele>
					<time>0001-01-01T00:00:00Z</time>
				</trkpt>
				<trkpt lat="59.00276" lon="7.53665">
					<ele>215</ele>
					<time>0001-01-01T00:00:00Z</time>
				</trkpt>
				<trkpt lat="59.00343" lon="7.53648">
					<ele>214</ele>
					<time>0001-01-01T00:00:00Z</time>
				</trkpt>
				<trkpt lat="59.00491" lon="7.53571">
					<ele>214</ele>
					<time>0001-01-01T00:00:00Z</time>
				</trkpt>
				<trkpt lat="59.00568" lon="7.53552">
					<ele>214</ele>
					<time>0001-01-01T00:00:00Z</time>
				</trkpt>
				<trkpt lat="59.00655" lon="7.53601">
					<ele>217</ele>
					<time>0001-01-01T00:00:00Z</time>
				</trkpt>
				<trkpt lat="59.00809" lon="7.53709">
					<ele>217</ele>
					<time>0001-01-01T00:00:00Z</time>
				</trkpt>
				<trkpt lat="59.00938" lon="7.53802">
					<ele>218</ele>
					<time>0001-01-01T00:00:00Z</time>
				</trkpt>
				<trkpt lat="59.01097" lon="7.53944">
					<ele>220</ele>
					<time>0001-01-01T00:00:00Z</time>
				</trkpt>
				<trkpt lat="59.01225" lon="7.54092">
					<ele>220</ele>
					<time>0001-01-01T00:00:00Z</time>
				</trkpt>
				<trkpt lat="59.01273" lon="7.54177">
					<ele>219</ele>
					<time>0001-01-01T00:00:00Z</time>
				</trkpt>
				<trkpt lat="59.01315" lon="7.54358">
					<ele>222</ele>
					<time>0001-01-01T00:00:00Z</time>
				</trkpt>
				<trkpt lat="59.01349" lon="7.54668">
					<ele>226</ele>
					<time>0001-01-01T00:00:00Z</time>
				</trkpt>
				<trkpt lat="59.01376" lon="7.54879">
					<ele>228</ele>
					<time>0001-01-01T00:00:00Z</time>
				</trkpt>
				<trkpt lat="59.01423" lon="7.55018">
					<ele>230</ele>
					<time>0001-01-01T00:00:00Z</time>
				</trkpt>
				<trkpt lat="59.01463" lon="7.55080">
					<ele>231</ele>
					<time>0001-01-01T00:00:00Z</time>
				</trkpt>
				<trkpt lat="59.01581" lon="7.55180">
					<ele>233</ele>
					<time>0001-01-01T00:00:00Z</time>
				</trkpt>
				<trkpt lat="59.01721" lon="7.55280">
					<ele>236</ele>
					<time>0001-01-01T00:00:00Z</time>
				</trkpt>
				<trkpt lat="59.01840" lon="7.55297">
					<ele>237</ele>
					<time>0001-01-01T00:00:00Z</time>
				</trkpt>
				<trkpt lat="59.01957" lon="7.55228">
					<ele>236</ele>
					<time>0001-01-01T00:00:00Z</time>
				</trkpt>
				<trkpt lat="59.02089" lon="7.55145">
					<ele>238</ele>
					<time>0001-01-01T00:00:00Z</time>
				</trkpt>
				<trkpt lat="59.02258" lon="7.55098">
					<ele>238</ele>
					<time>0001-01-01T00:00:00Z</time>
				</trkpt>
				<trkpt lat="59.02440" lon="7.55046">
					<ele>238</ele>
					<time>0001-01-01T00:00:00Z</time>
				</trkpt>
				<trkpt lat="59.02563" lon="7.54956">
					<ele>239</ele>
					<time>0001-01-01T00:00:00Z</time>
				</trkpt>
				<trkpt lat="59.02701" lon="7.54861">
					<ele>237</ele>
					<time>0001-01-01T00:00:00Z</time>
				</trkpt>
				<trkpt lat="59.02896" lon="7.54782">
					<ele>237</ele>
					<time>0001-01-01T00:00:00Z</time>
				</trkpt>
				<trkpt lat="59.03043" lon="7.54746">
					<ele>239</ele>
					<time>0001-01-01T00:00:00Z</time>
				</trkpt>
				<trkpt lat="59.03195" lon="7.54776">
					<ele>238</ele>
					<time>0001-01-01T00:00:00Z</time>
				</trkpt>
				<trkpt lat="59.03312" lon="7.54904">
					<ele>238</ele>
					<time>0001-01-01T00:00:00Z</time>
				</trkpt>
				<trkpt lat="59.03435" lon="7.55120">
					<ele>237</ele>
					<time>0001-01-01T00:00:00Z</time>
				</trkpt>
				<trkpt lat="59.03516" lon="7.55250">
					<ele>238</ele>
					<time>0001-01-01T00:00:00Z</time>
				</trkpt>
				<trkpt lat="59.03617" lon="7.55384">
					<ele>240</ele>
					<time>0001-01-01T00:00:00Z</time>
				</trkpt>
				<trkpt lat="59.03727" lon="7.55498">
					<ele>241</ele>
					<time>0001-01-01T00:00:00Z</time>
				</trkpt>
				<trkpt lat="59.03805" lon="7.55537">
					<ele>245</ele>
					<time>0001-01-01T00:00:00Z</time>
				</trkpt>
				<trkpt lat="59.03857" lon="7.55568">
					<ele>244</ele>
					<time>0001-01-01T00:00:00Z</time>
				</trkpt>
				<trkpt lat="59.03963" lon="7.55686">
					<ele>245</ele>
					<time>0001-01-01T00:00:00Z</time>
				</trkpt>
				<trkpt lat="59.04063" lon="7.55737">
					<ele>240</ele>
					<time>0001-01-01T00:00:00Z</time>
				</trkpt>
				<trkpt lat="59.04214" lon="7.55725">
					<ele>244</ele>
					<time>0001-01-01T00:00:00Z</time>
				</trkpt>
				<trkpt lat="59.04358" lon="7.55757">
					<ele>242</ele>
					<time>0001-01-01T00:00:00Z</time>
				</trkpt>
				<trkpt lat="59.04510" lon="7.55849">
					<ele>246</ele>
					<time>0001-01-01T00:00:00Z</time>
				</trkpt>
				<trkpt lat="59.04653" lon="7.55986">
					<ele>247</ele>
					<time>0001-01-01T00:00:00Z</time>
				</trkpt>
				<trkpt lat="59.04811" lon="7.56136">
					<ele>248</ele>
					<time>0001-01-01T00:00:00Z</time>
				</trkpt>
				<trkpt lat="59.04948" lon="7.56224">
					<ele>250</ele>
					<time>0001-01-01T00:00:00Z</time>
				</trkpt>
				<trkpt lat="59.05119" lon="7.56263">
					<ele>245</ele>
					<time>0001-01-01T00:00:00Z</time>
				</trkpt>
				<trkpt lat="59.05227" lon="7.56300">
					<ele>241</ele>
					<time>0001-01-01T00:00:00Z</time>
				</trkpt>
				<trkpt lat="59.05393" lon="7.56427">
					<ele>240</ele>
					<time>0001-01-01T00:00:00Z</time>
				</trkpt>
				<trkpt lat="59.05554" lon="7.56552">
					<ele>243</ele>
					<time>0001-01-01T00:00:00Z</time>
				</trkpt>
				<trkpt lat="59.05742" lon="7.56655">
					<ele>246</ele>
					<time>0001-01-01T00:00:00Z</time>
				</trkpt>
				<trkpt lat="59.05917" lon="7.56695">
					<ele>247</ele>
					<time>0001-01-01T00:00:00Z</time>
				</trkpt>
				<trkpt lat="59.06066" lon="7.56734">
					<ele>249</ele>
					<time>0001-01-01T00:00:00Z</time>
				</trkpt>
				<trkpt lat="59.06189" lon="7.56735">
					<ele>253</ele>
					<time>0001-01-01T00:00:00Z</time>
				</trkpt>
				<trkpt lat="59.06323" lon="7.56752">
					<ele>249</ele>
					<time>0001-01-01T00:00:00Z</time>
				</trkpt>
				<trkpt lat="59.06401" lon="7.56812">
					<ele>251</ele>
					<time>0001-01-01T00:00:00Z</time>
				</trkpt>
				<trkpt lat="59.06525" lon="7.56891">
					<ele>251</ele>
					<time>0001-01-01T00:00:00Z</time>
				</trkpt>
				<trkpt lat="59.06617" lon="7.56923">
					<ele>253</ele>
					<time>0001-01-01T00:00:00Z</time>
				</trkpt>
				<trkpt lat="59.06719" lon="7.56944">
					<ele>252</ele>
					<time>0001-01-01T00:00:00Z</time>
				</trkpt>
				<trkpt lat="59.06824" lon="7.56878">
					<ele>252</ele>
					<time>0001-01-01T00:00:00Z</time>
				</trkpt>
				<trkpt lat="59.06944" lon="7.56808">
					<ele>248</ele>
					<time>0001-01-01T00:00:00Z</time>
				</trkpt>
				<trkpt lat="59.06998" lon="7.56842">
					<ele>249</ele>
					<time>0001-01-01T00:00:00Z</time>
				</trkpt>
				<trkpt lat="59.07092" lon="7.56950">
					<ele>249</ele>
					<time>0001-01-01T00:00:00Z</time>
				</trkpt>
				<trkpt lat="59.07114" lon="7.56964">
					<ele>248</ele>
					<time>0001-01-01T00:00:00Z</time>
				</trkpt>
				<trkpt lat="59.07159" lon="7.56978">
					<ele>249</ele>
					<time>0001-01-01T00:00:00Z</time>
				</trkpt>
				<trkpt lat="59.07288" lon="7.56956">
					<ele>252</ele>
					<time>0001-01-01T00:00:00Z</time>
				</trkpt>
				<trkpt lat="59.07384" lon="7.56860">
					<ele>249</ele>
					<time>0001-01-01T00:00:00Z</time>
				</trkpt>
				<trkpt lat="59.07494" lon="7.56717">
					<ele>250</ele>
					<time>0001-01-01T00:00:00Z</time>
				</trkpt>
				<trkpt lat="59.07550" lon="7.56532">
					<ele>250</ele>
					<time>0001-01-01T00:00:00Z</time>
				</trkpt>
				<trkpt lat="59.07634" lon="7.56278">
					<ele>251</ele>
					<time>0001-01-01T00:00:00Z</time>
				</trkpt>
				<trkpt lat="59.07754" lon="7.56047">
					<ele>253</ele>
					<time>0001-01-01T00:00:00Z</time>
				</trkpt>
				<trkpt lat="59.07893" lon="7.55811">
					<ele>252</ele>
					<time>0001-01-01T00:00:00Z</time>
				</trkpt>
				<trkpt lat="59.07963" lon="7.55623">
					<ele>255</ele>
					<time>0001-01-01T00:00:00Z</time>
				</trkpt>
				<trkpt lat="59.08067" lon="7.55342">
					<ele>259</ele>
					<time>0001-01-01T00:00:00Z</time>
				</trkpt>
				<trkpt lat="59.08200" lon="7.55152">
					<ele>258</ele>
					<time>0001-01-01T00:00:00Z</time>
				</trkpt>
				<trkpt lat="59.08312" lon="7.55011">
					<ele>259</ele>
					<time>0001-01-01T00:00:00Z</time>
				</trkpt>
				<trkpt lat="59.08457" lon="7.54830">
					<ele>258</ele>
					<time>0001-01-01T00:00:00Z</time>
				</trkpt>
				<trkpt lat="59.08596" lon="7.54658">
					<ele>258</ele>
					<time>0001-01-01T00:00:00Z</time>
				</trkpt>
				<trkpt lat="59.08730" lon="7.54493">
					<ele>257</ele>
					<time>0001-01-01T00:00:00Z</time>
				</trkpt>
				<trkpt lat="59.08893" lon="7.54287">
					<ele>259</ele>
					<time>0001-01-01T00:00:00Z</time>
				</trkpt>
				<trkpt lat="59.09052" lon="7.54091">
					<ele>257</ele>
					<time>0001-01-01T00:00:00Z</time>
				</trkpt>
				<trkpt lat="59.09076" lon="7.54062">
					<ele>257</ele>
					<time>0001-01-01T00:00:00Z</time>
				</trkpt>
				<trkpt lat="59.09096" lon="7.54055">
					<ele>257</ele>
					<time>0001-01-01T00:00:00Z</time>
				</trkpt>
				<trkpt lat="59.09108" lon="7.54055">
					<ele>257</ele>
					<time>0001-01-01T00:00:00Z</time>
				</trkpt>
				<trkpt lat="59.09112" lon="7.54068">
					<ele>255</ele>
					<time>0001-01-01T00:00:00Z</time>
				</trkpt>
				<trkpt lat="59.09109" lon="7.54069">
					<ele>255</ele>
					<time>0001-01-01T00:00:00Z</time>
				</trkpt>
				<trkpt lat="59.09110" lon="7.54067">
					<ele>255</ele>
					<time>0001-01-01T00:00:00Z</time>
				</trkpt>
				<trkpt lat="59.09098" lon="7.54050">
					<ele>254</ele>
					<time>0001-01-01T00:00:00Z</time>
				</trkpt>
				<trkpt lat="59.09106" lon="7.54028">
					<ele>254</ele>
					<time>0001-01-01T00:00:00Z</time>
				</trkpt>
				<trkpt lat="59.09201" lon="7.53907">
					<ele>254</ele>
					<time>0001-01-01T00:00:00Z</time>
				</trkpt>
				<trkpt lat="59.09319" lon="7.53729">
					<ele>257</ele>
					<time>0001-01-01T00:00:00Z</time>
				</trkpt>
				<trkpt lat="59.09426" lon="7.53523">
					<ele>256</ele>
					<time>0001-01-01T00:00:00Z</time>
				</trkpt>
				<trkpt lat="59.09526" lon="7.53271">
					<ele>257</ele>
					<time>0001-01-01T00:00:00Z</time>
				</trkpt>
				<trkpt lat="59.09581" lon="7.53010">
					<ele>259</ele>
					<time>0001-01-01T00:00:00Z</time>
				</trkpt>
				<trkpt lat="59.09657" lon="7.52814">
					<ele>258</ele>
					<time>0001-01-01T00:00:00Z</time>
				</trkpt>
				<trkpt lat="59.09687" lon="7.52619">
					<ele>254</ele>
					<time>0001-01-01T00:00:00Z</time>
				</trkpt>
				<trkpt lat="59.09710" lon="7.52313">
					<ele>255</ele>
					<time>0001-01-01T00:00:00Z</time>
				</trkpt>
				<trkpt lat="59.09748" lon="7.52126">
					<ele>255</ele>
					<time>0001-01-01T00:00:00Z</time>
				</trkpt>
				<trkpt lat="59.09842" lon="7.51921">
					<ele>256</ele>
					<time>0001-01-01T00:00:00Z</time>
				</trkpt>
				<trkpt lat="59.09991" lon="7.51601">
					<ele>260</ele>
					<time>0001-01-01T00:00:00Z</time>
				</trkpt>
				<trkpt lat="59.10044" lon="7.51383">
					<ele>264</ele>
					<time>0001-01-01T00:00:00Z</time>
				</trkpt>
				<trkpt lat="59.10095" lon="7.51151">
					<ele>261</ele>
					<time>0001-01-01T00:00:00Z</time>
				</trkpt>
				<trkpt lat="59.10160" lon="7.50968">
					<ele>261</ele>
					<time>0001-01-01T00:00:00Z</time>
				</trkpt>
				<trkpt lat="59.10227" lon="7.50882">
					<ele>263</ele>
					<time>0001-01-01T00:00:00Z</time>
				</trkpt>
				<trkpt lat="59.10340" lon="7.50823">
					<ele>262</ele>
					<time>0001-01-01T00:00:00Z</time>
				</trkpt>
				<trkpt lat="59.10555" lon="7.50736">
					<ele>264</ele>
					<time>0001-01-01T00:00:00Z</time>
				</trkpt>
				<trkpt lat="59.10789" lon="7.50645">
					<ele>259</ele>
					<time>0001-01-01T00:00:00Z</time>
				</trkpt>
				<trkpt lat="59.10946" lon="7.50620">
					<ele>259</ele>
					<time>0001-01-01T00:00:00Z</time>
				</trkpt>
				<trkpt lat="59.11069" lon="7.50674">
					<ele>262</ele>
					<time>0001-01-01T00:00:00Z</time>
				</trkpt>
				<trkpt lat="59.11085" lon="7.50681">
					<ele>263</ele>
					<time>0001-01-01T00:00:00Z</time>
				</trkpt>
				<trkpt lat="59.11090" lon="7.50662">
					<ele>262</ele>
					<time>0001-01-01T00:00:00Z</time>
				</trkpt>
				<trkpt lat="59.11097" lon="7.50600">
					<ele>263</ele>
					<time>0001-01-01T00:00:00Z</time>
				</trkpt>
				<trkpt lat="59.11087" lon="7.50504">
					<ele>264</ele>
					<time>0001-01-01T00:00:00Z</time>
				</trkpt>
				<trkpt lat="59.11055" lon="7.50454">
					<ele>266</ele>
					<time>0001-01-01T00:00:00Z</time>
				</trkpt>
				<trkpt lat="59.10992" lon="7.50387">
					<ele>275</ele>
					<time>0001-01-01T00:00:00Z</time>
				</trkpt>
				<trkpt lat="59.10949" lon="7.50363">
					<ele>282</ele>
					<time>0001-01-01T00:00:00Z</time>
				</trkpt>
				<trkpt lat="59.10908" lon="7.50383">
					<ele>285</ele>
					<time>0001-01-01T00:00:00Z</time>
				</trkpt>
				<trkpt lat="59.10859" lon="7.50386">
					<ele>290</ele>
					<time>0001-01-01T00:00:00Z</time>
				</trkpt>
				<trkpt lat="59.10811" lon="7.50379">
					<ele>296</ele>
					<time>0001-01-01T00:00:00Z</time>
				</trkpt>
				<trkpt lat="59.10772" lon="7.50371">
					<ele>301</ele>
					<time>0001-01-01T00:00:00Z</time>
				</trkpt>
				<trkpt lat="59.10731" lon="7.50365">
					<ele>307</ele>
					<time>0001-01-01T00:00:00Z</time>
				</trkpt>
				<trkpt lat="59.10691" lon="7.50370">
					<ele>312</ele>
					<time>0001-01-01T00:00:00Z</time>
				</trkpt>
				<trkpt lat="59.10655" lon="7.50385">
					<ele>317</ele>
					<time>0001-01-01T00:00:00Z</time>
				</trkpt>
				<trkpt lat="59.10618" lon="7.50398">
					<ele>320</ele>
					<time>0001-01-01T00:00:00Z</time>
				</trkpt>
				<trkpt lat="59.10576" lon="7.50390">
					<ele>324</ele>
					<time>0001-01-01T00:00:00Z</time>
				</trkpt>
				<trkpt lat="59.10536" lon="7.50354">
					<ele>329</ele>
					<time>0001-01-01T00:00:00Z</time>
				</trkpt>
				<trkpt lat="59.10500" lon="7.50289">
					<ele>333</ele>
					<time>0001-01-01T00:00:00Z</time>
				</trkpt>
				<trkpt lat="59.10474" lon="7.50222">
					<ele>338</ele>
					<time>0001-01-01T00:00:00Z</time>
				</trkpt>
				<trkpt lat="59.10452" lon="7.50153">
					<ele>344</ele>
					<time>0001-01-01T00:00:00Z</time>
				</trkpt>
				<trkpt lat="59.10433" lon="7.50059">
					<ele>349</ele>
					<time>0001-01-01T00:00:00Z</time>
				</trkpt>
				<trkpt lat="59.10417" lon="7.49969">
					<ele>356</ele>
					<time>0001-01-01T00:00:00Z</time>
				</trkpt>
				<trkpt lat="59.10402" lon="7.49872">
					<ele>363</ele>
					<time>0001-01-01T00:00:00Z</time>
				</trkpt>
				<trkpt lat="59.10400" lon="7.49754">
					<ele>365</ele>
					<time>0001-01-01T00:00:00Z</time>
				</trkpt>
				<trkpt lat="59.10397" lon="7.49644">
					<ele>371</ele>
					<time>0001-01-01T00:00:00Z</time>
				</trkpt>
				<trkpt lat="59.10389" lon="7.49544">
					<ele>375</ele>
					<time>0001-01-01T00:00:00Z</time>
				</trkpt>
				<trkpt lat="59.10382" lon="7.49458">
					<ele>379</ele>
					<time>0001-01-01T00:00:00Z</time>
				</trkpt>
				<trkpt lat="59.10375" lon="7.49369">
					<ele>383</ele>
					<time>0001-01-01T00:00:00Z</time>
				</trkpt>
				<trkpt lat="59.10366" lon="7.49277">
					<ele>387</ele>
					<time>0001-01-01T00:00:00Z</time>
				</trkpt>
				<trkpt lat="59.10358" lon="7.49181">
					<ele>394</ele>
					<time>0001-01-01T00:00:00Z</time>
				</trkpt>
				<trkpt lat="59.10348" lon="7.49081">
					<ele>400</ele>
					<time>0001-01-01T00:00:00Z</time>
				</trkpt>
				<trkpt lat="59.10340" lon="7.48993">
					<ele>404</ele>
					<time>0001-01-01T00:00:00Z</time>
				</trkpt>
				<trkpt lat="59.10331" lon="7.48901">
					<ele>410</ele>
					<time>0001-01-01T00:00:00Z</time>
				</trkpt>
				<trkpt lat="59.10323" lon="7.48811">
					<ele>415</ele>
					<time>0001-01-01T00:00:00Z</time>
				</trkpt>
				<trkpt lat="59.10314" lon="7.48717">
					<ele>420</ele>
					<time>0001-01-01T00:00:00Z</time>
				</trkpt>
				<trkpt lat="59.10303" lon="7.48612">
					<ele>427</ele>
					<time>0001-01-01T00:00:00Z</time>
				</trkpt>
				<trkpt lat="59.10294" lon="7.48514">
					<ele>432</ele>
					<time>0001-01-01T00:00:00Z</time>
				</trkpt>
				<trkpt lat="59.10287" lon="7.48428">
					<ele>436</ele>
					<time>0001-01-01T00:00:00Z</time>
				</trkpt>
				<trkpt lat="59.10276" lon="7.48318">
					<ele>442</ele>
					<time>0001-01-01T00:00:00Z</time>
				</trkpt>
				<trkpt lat="59.10261" lon="7.48250">
					<ele>448</ele>
					<time>0001-01-01T00:00:00Z</time>
				</trkpt>
				<trkpt lat="59.10234" lon="7.48149">
					<ele>450</ele>
					<time>0001-01-01T00:00:00Z</time>
				</trkpt>
				<trkpt lat="59.10227" lon="7.48040">
					<ele>457</ele>
					<time>0001-01-01T00:00:00Z</time>
				</trkpt>
				<trkpt lat="59.10229" lon="7.47928">
					<ele>464</ele>
					<time>0001-01-01T00:00:00Z</time>
				</trkpt>
				<trkpt lat="59.10230" lon="7.47838">
					<ele>471</ele>
					<time>0001-01-01T00:00:00Z</time>
				</trkpt>
				<trkpt lat="59.10232" lon="7.47752">
					<ele>477</ele>
					<time>0001-01-01T00:00:00Z</time>
				</trkpt>
				<trkpt lat="59.10235" lon="7.47643">
					<ele>483</ele>
					<time>0001-01-01T00:00:00Z</time>
				</trkpt>
				<trkpt lat="59.10235" lon="7.47546">
					<ele>488</ele>
					<time>0001-01-01T00:00:00Z</time>
				</trkpt>
				<trkpt lat="59.10229" lon="7.47455">
					<ele>489</ele>
					<time>0001-01-01T00:00:00Z</time>
				</trkpt>
				<trkpt lat="59.10214" lon="7.47373">
					<ele>495</ele>
					<time>0001-01-01T00:00:00Z</time>
				</trkpt>
				<trkpt lat="59.10188" lon="7.47285">
					<ele>501</ele>
					<time>0001-01-01T00:00:00Z</time>
				</trkpt>
				<trkpt lat="59.10164" lon="7.47229">
					<ele>504</ele>
					<time>0001-01-01T00:00:00Z</time>
				</trkpt>
				<trkpt lat="59.10129" lon="7.47158">
					<ele>510</ele>
					<time>0001-01-01T00:00:00Z</time>
				</trkpt>
				<trkpt lat="59.10095" lon="7.47089">
					<ele>516</ele>
					<time>0001-01-01T00:00:00Z</time>
				</trkpt>
				<trkpt lat="59.10068" lon="7.47032">
					<ele>519</ele>
					<time>0001-01-01T00:00:00Z</time>
				</trkpt>
				<trkpt lat="59.10041" lon="7.46965">
					<ele>524</ele>
					<time>0001-01-01T00:00:00Z</time>
				</trkpt>
				<trkpt lat="59.10017" lon="7.46886">
					<ele>529</ele>
					<time>0001-01-01T00:00:00Z</time>
				</trkpt>
				<trkpt lat="59.09991" lon="7.46797">
					<ele>533</ele>
					<time>0001-01-01T00:00:00Z</time>
				</trkpt>
				<trkpt lat="59.09968" lon="7.46715">
					<ele>537</ele>
					<time>0001-01-01T00:00:00Z</time>
				</trkpt>
				<trkpt lat="59.09939" lon="7.46610">
					<ele>540</ele>
					<time>0001-01-01T00:00:00Z</time>
				</trkpt>
				<trkpt lat="59.09898" lon="7.46478">
					<ele>544</ele>
					<time>0001-01-01T00:00:00Z</time>
				</trkpt>
				<trkpt lat="59.09856" lon="7.46394">
					<ele>551</ele>
					<time>0001-01-01T00:00:00Z</time>
				</trkpt>
				<trkpt lat="59.09821" lon="7.46318">
					<ele>558</ele>
					<time>0001-01-01T00:00:00Z</time>
				</trkpt>
				<trkpt lat="59.09766" lon="7.46205">
					<ele>563</ele>
					<time>0001-01-01T00:00:00Z</time>
				</trkpt>
				<trkpt lat="59.09715" lon="7.46056">
					<ele>565</ele>
					<time>0001-01-01T00:00:00Z</time>
				</trkpt>
				<trkpt lat="59.09683" lon="7.45865">
					<ele>568</ele>
					<time>0001-01-01T00:00:00Z</time>
				</trkpt>
				<trkpt lat="59.09668" lon="7.45620">
					<ele>571</ele>
					<time>0001-01-01T00:00:00Z</time>
				</trkpt>
				<trkpt lat="59.09675" lon="7.45404">
					<ele>566</ele>
					<time>0001-01-01T00:00:00Z</time>
				</trkpt>
				<trkpt lat="59.09695" lon="7.45046">
					<ele>562</ele>
					<time>0001-01-01T00:00:00Z</time>
				</trkpt>
				<trkpt lat="59.09702" lon="7.44767">
					<ele>564</ele>
					<time>0001-01-01T00:00:00Z</time>
				</trkpt>
				<trkpt lat="59.09675" lon="7.44550">
					<ele>564</ele>
					<time>0001-01-01T00:00:00Z</time>
				</trkpt>
				<trkpt lat="59.09630" lon="7.44321">
					<ele>568</ele>
					<time>0001-01-01T00:00:00Z</time>
				</trkpt>
				<trkpt lat="59.09592" lon="7.44090">
					<ele>572</ele>
					<time>0001-01-01T00:00:00Z</time>
				</trkpt>
				<trkpt lat="59.09568" lon="7.43827">
					<ele>574</ele>
					<time>0001-01-01T00:00:00Z</time>
				</trkpt>
				<trkpt lat="59.09512" lon="7.43677">
					<ele>576</ele>
					<time>0001-01-01T00:00:00Z</time>
				</trkpt>
				<trkpt lat="59.09437" lon="7.43558">
					<ele>577</ele>
					<time>0001-01-01T00:00:00Z</time>
				</trkpt>
				<trkpt lat="59.09389" lon="7.43437">
					<ele>580</ele>
					<time>0001-01-01T00:00:00Z</time>
				</trkpt>
				<trkpt lat="59.09370" lon="7.43342">
					<ele>585</ele>
					<time>0001-01-01T00:00:00Z</time>
				</trkpt>
				<trkpt lat="59.09352" lon="7.43257">
					<ele>590</ele>
					<time>0001-01-01T00:00:00Z</time>
				</trkpt>
				<trkpt lat="59.09335" lon="7.43167">
					<ele>596</ele>
					<time>0001-01-01T00:00:00Z</time>
				</trkpt>
				<trkpt lat="59.09315" lon="7.43068">
					<ele>600</ele>
					<time>0001-01-01T00:00:00Z</time>
				</trkpt>
				<trkpt lat="59.09286" lon="7.42922">
					<ele>603</ele>
					<time>0001-01-01T00:00:00Z</time>
				</trkpt>
				<trkpt lat="59.09260" lon="7.42790">
					<ele>610</ele>
					<time>0001-01-01T00:00:00Z</time>
				</trkpt>
				<trkpt lat="59.09232" lon="7.42672">
					<ele>615</ele>
					<time>0001-01-01T00:00:00Z</time>
				</trkpt>
				<trkpt lat="59.09185" lon="7.42600">
					<ele>619</ele>
					<time>0001-01-01T00:00:00Z</time>
				</trkpt>
				<trkpt lat="59.09124" lon="7.42587">
					<ele>621</ele>
					<time>0001-01-01T00:00:00Z</time>
				</trkpt>
				<trkpt lat="59.09061" lon="7.42651">
					<ele>626</ele>
					<time>0001-01-01T00:00:00Z</time>
				</trkpt>
				<trkpt lat="59.09037" lon="7.42734">
					<ele>632</ele>
					<time>0001-01-01T00:00:00Z</time>
				</trkpt>
				<trkpt lat="59.09027" lon="7.42847">
					<ele>639</ele>
					<time>0001-01-01T00:00:00Z</time>
				</trkpt>
				<trkpt lat="59.09018" lon="7.42971">
					<ele>647</ele>
					<time>0001-01-01T00:00:00Z</time>
				</trkpt>
				<trkpt lat="59.09011" lon="7.43095">
					<ele>655</ele>
					<time>0001-01-01T00:00:00Z</time>
				</trkpt>
				<trkpt lat="59.09003" lon="7.43200">
					<ele>660</ele>
					<time>0001-01-01T00:00:00Z</time>
				</trkpt>
				<trkpt lat="59.08983" lon="7.43315">
					<ele>665</ele>
					<time>0001-01-01T00:00:00Z</time>
				</trkpt>
				<trkpt lat="59.08958" lon="7.43368">
					<ele>668</ele>
					<time>0001-01-01T00:00:00Z</time>
				</trkpt>
				<trkpt lat="59.08921" lon="7.43392">
					<ele>671</ele>
					<time>0001-01-01T00:00:00Z</time>
				</trkpt>
				<trkpt lat="59.08872" lon="7.43369">
					<ele>672</ele>
					<time>0001-01-01T00:00:00Z</time>
				</trkpt>
				<trkpt lat="59.08838" lon="7.43298">
					<ele>674</ele>
					<time>0001-01-01T00:00:00Z</time>
				</trkpt>
				<trkpt lat="59.08801" lon="7.43140">
					<ele>676</ele>
					<time>0001-01-01T00:00:00Z</time>
				</trkpt>
				<trkpt lat="59.08764" lon="7.42978">
					<ele>677</ele>
					<time>0001-01-01T00:00:00Z</time>
				</trkpt>
				<trkpt lat="59.08713" lon="7.42767">
					<ele>679</ele>
					<time>0001-01-01T00:00:00Z</time>
				</trkpt>
				<trkpt lat="59.08643" lon="7.42570">
					<ele>678</ele>
					<time>0001-01-01T00:00:00Z</time>
				</trkpt>
				<trkpt lat="59.08594" lon="7.42429">
					<ele>684</ele>
					<time>0001-01-01T00:00:00Z</time>
				</trkpt>
				<trkpt lat="59.08526" lon="7.42258">
					<ele>689</ele>
					<time>0001-01-01T00:00:00Z</time>
				</trkpt>
				<trkpt lat="59.08452" lon="7.42109">
					<ele>687</ele>
					<time>0001-01-01T00:00:00Z</time>
				</trkpt>
				<trkpt lat="59.08398" lon="7.41929">
					<ele>685</ele>
					<time>0001-01-01T00:00:00Z</time>
				</trkpt>
				<trkpt lat="59.08372" lon="7.41877">
					<ele>685</ele>
					<time>0001-01-01T00:00:00Z</time>
				</trkpt>
				<trkpt lat="59.08284" lon="7.41781">
					<ele>688</ele>
					<time>0001-01-01T00:00:00Z</time>
				</trkpt>
				<trkpt lat="59.08230" lon="7.41660">
					<ele>689</ele>
					<time>0001-01-01T00:00:00Z</time>
				</trkpt>
				<trkpt lat="59.08154" lon="7.41495">
					<ele>689</ele>
					<time>0001-01-01T00:00:00Z</time>
				</trkpt>
				<trkpt lat="59.08048" lon="7.41422">
					<ele>689</ele>
					<time>0001-01-01T00:00:00Z</time>
				</trkpt>
				<trkpt lat="59.08007" lon="7.41376">
					<ele>690</ele>
					<time>0001-01-01T00:00:00Z</time>
				</trkpt>
				<trkpt lat="59.07931" lon="7.41186">
					<ele>691</ele>
					<time>0001-01-01T00:00:00Z</time>
				</trkpt>
				<trkpt lat="59.07884" lon="7.41049">
					<ele>695</ele>
					<time>0001-01-01T00:00:00Z</time>
				</trkpt>
				<trkpt lat="59.07820" lon="7.40853">
					<ele>699</ele>
					<time>0001-01-01T00:00:00Z</time>
				</trkpt>
				<trkpt lat="59.07787" lon="7.40683">
					<ele>704</ele>
					<time>0001-01-01T00:00:00Z</time>
				</trkpt>
				<trkpt lat="59.07747" lon="7.40581">
					<ele>707</ele>
					<time>0001-01-01T00:00:00Z</time>
				</trkpt>
				<trkpt lat="59.07691" lon="7.40442">
					<ele>711</ele>
					<time>0001-01-01T00:00:00Z</time>
				</trkpt>
				<trkpt lat="59.07676" lon="7.40327">
					<ele>715</ele>
					<time>0001-01-01T00:00:00Z</time>
				</trkpt>
				<trkpt lat="59.07664" lon="7.40231">
					<ele>723</ele>
					<time>0001-01-01T00:00:00Z</time>
				</trkpt>
				<trkpt lat="59.07654" lon="7.40134">
					<ele>727</ele>
					<time>0001-01-01T00:00:00Z</time>
				</trkpt>
				<trkpt lat="59.07628" lon="7.40009">
					<ele>730</ele>
					<time>0001-01-01T00:00:00Z</time>
				</trkpt>
				<trkpt lat="59.07568" lon="7.39918">
					<ele>730</ele>
					<time>0001-01-01T00:00:00Z</time>
				</trkpt>
				<trkpt lat="59.07478" lon="7.39869">
					<ele>730</ele>
					<time>0001-01-01T00:00:00Z</time>
				</trkpt>
				<trkpt lat="59.07387" lon="7.39798">
					<ele>734</ele>
					<time>0001-01-01T00:00:00Z</time>
				</trkpt>
				<trkpt lat="59.07312" lon="7.39763">
					<ele>737</ele>
					<time>0001-01-01T00:00:00Z</time>
				</trkpt>
				<trkpt lat="59.07260" lon="7.39681">
					<ele>741</ele>
					<time>0001-01-01T00:00:00Z</time>
				</trkpt>
				<trkpt lat="59.07227" lon="7.39589">
					<ele>747</ele>
					<time>0001-01-01T00:00:00Z</time>
				</trkpt>
				<trkpt lat="59.07205" lon="7.39526">
					<ele>751</ele>
					<time>0001-01-01T00:00:00Z</time>
				</trkpt>
				<trkpt lat="59.07184" lon="7.39469">
					<ele>755</ele>
					<time>0001-01-01T00:00:00Z</time>
				</trkpt>
				<trkpt lat="59.07153" lon="7.39373">
					<ele>760</ele>
					<time>0001-01-01T00:00:00Z</time>
				</trkpt>
				<trkpt lat="59.07131" lon="7.39278">
					<ele>764</ele>
					<time>0001-01-01T00:00:00Z</time>
				</trkpt>
				<trkpt lat="59.07124" lon="7.39176">
					<ele>771</ele>
					<time>0001-01-01T00:00:00Z</time>
				</trkpt>
				<trkpt lat="59.07121" lon="7.39080">
					<ele>775</ele>
					<time>0001-01-01T00:00:00Z</time>
				</trkpt>
				<trkpt lat="59.07117" lon="7.38984">
					<ele>780</ele>
					<time>0001-01-01T00:00:00Z</time>
				</trkpt>
				<trkpt lat="59.07114" lon="7.38902">
					<ele>783</ele>
					<time>0001-01-01T00:00:00Z</time>
				</trkpt>
				<trkpt lat="59.07103" lon="7.38779">
					<ele>786</ele>
					<time>0001-01-01T00:00:00Z</time>
				</trkpt>
				<trkpt lat="59.07085" lon="7.38730">
					<ele>788</ele>
					<time>0001-01-01T00:00:00Z</time>
				</trkpt>
				<trkpt lat="59.07022" lon="7.38683">
					<ele>788</ele>
					<time>0001-01-01T00:00:00Z</time>
				</trkpt>
				<trkpt lat="59.07012" lon="7.38684">
					<ele>788</ele>
					<time>0001-01-01T00:00:00Z</time>
				</trkpt>
				<trkpt lat="59.06933" lon="7.38734">
					<ele>792</ele>
					<time>0001-01-01T00:00:00Z</time>
				</trkpt>
				<trkpt lat="59.06907" lon="7.38736">
					<ele>793</ele>
					<time>0001-01-01T00:00:00Z</time>
				</trkpt>
				<trkpt lat="59.06843" lon="7.38668">
					<ele>796</ele>
					<time>0001-01-01T00:00:00Z</time>
				</trkpt>
				<trkpt lat="59.06746" lon="7.38518">
					<ele>801</ele>
					<time>0001-01-01T00:00:00Z</time>
				</trkpt>
				<trkpt lat="59.06676" lon="7.38491">
					<ele>803</ele>
					<time>0001-01-01T00:00:00Z</time>
				</trkpt>
				<trkpt lat="59.06608" lon="7.38425">
					<ele>800</ele>
					<time>0001-01-01T00:00:00Z</time>
				</trkpt>
				<trkpt lat="59.06598" lon="7.38403">
					<ele>799</ele>
					<time>0001-01-01T00:00:00Z</time>
				</trkpt>
				<trkpt lat="59.06580" lon="7.38327">
					<ele>797</ele>
					<time>0001-01-01T00:00:00Z</time>
				</trkpt>
				<trkpt lat="59.06565" lon="7.38206">
					<ele>796</ele>
					<time>0001-01-01T00:00:00Z</time>
				</trkpt>
				<trkpt lat="59.06548" lon="7.38150">
					<ele>796</ele>
					<time>0001-01-01T00:00:00Z</time>
				</trkpt>
				<trkpt lat="59.06499" lon="7.38058">
					<ele>801</ele>
					<time>0001-01-01T00:00:00Z</time>
				</trkpt>
				<trkpt lat="59.06459" lon="7.37928">
					<ele>804</ele>
					<time>0001-01-01T00:00:00Z</time>
				</trkpt>
				<trkpt lat="59.06406" lon="7.37724">
					<ele>805</ele>
					<time>0001-01-01T00:00:00Z</time>
				</trkpt>
				<trkpt lat="59.06345" lon="7.37526">
					<ele>806</ele>
					<time>0001-01-01T00:00:00Z</time>
				</trkpt>
				<trkpt lat="59.06292" lon="7.37460">
					<ele>806</ele>
					<time>0001-01-01T00:00:00Z</time>
				</trkpt>
				<trkpt lat="59.06229" lon="7.37464">
					<ele>806</ele>
					<time>0001-01-01T00:00:00Z</time>
				</trkpt>
				<trkpt lat="59.06150" lon="7.37540">
					<ele>807</ele>
					<time>0001-01-01T00:00:00Z</time>
				</trkpt>
				<trkpt lat="59.06080" lon="7.37516">
					<ele>804</ele>
					<time>0001-01-01T00:00:00Z</time>
				</trkpt>
				<trkpt lat="59.06002" lon="7.37378">
					<ele>801</ele>
					<time>0001-01-01T00:00:00Z</time>
				</trkpt>
				<trkpt lat="59.05914" lon="7.37263">
					<ele>799</ele>
					<time>0001-01-01T00:00:00Z</time>
				</trkpt>
				<trkpt lat="59.05792" lon="7.37127">
					<ele>798</ele>
					<time>0001-01-01T00:00:00Z</time>
				</trkpt>
				<trkpt lat="59.05650" lon="7.36968">
					<ele>798</ele>
					<time>0001-01-01T00:00:00Z</time>
				</trkpt>
				<trkpt lat="59.05518" lon="7.36819">
					<ele>799</ele>
					<time>0001-01-01T00:00:00Z</time>
				</trkpt>
				<trkpt lat="59.05405" lon="7.36714">
					<ele>800</ele>
					<time>0001-01-01T00:00:00Z</time>
				</trkpt>
				<trkpt lat="59.05330" lon="7.36610">
					<ele>799</ele>
					<time>0001-01-01T00:00:00Z</time>
				</trkpt>
				<trkpt lat="59.05278" lon="7.36403">
					<ele>796</ele>
					<time>0001-01-01T00:00:00Z</time>
				</trkpt>
				<trkpt lat="59.05212" lon="7.36174">
					<ele>797</ele>
					<time>0001-01-01T00:00:00Z</time>
				</trkpt>
				<trkpt lat="59.05175" lon="7.36126">
					<ele>801</ele>
					<time>0001-01-01T00:00:00Z</time>
				</trkpt>
				<trkpt lat="59.05125" lon="7.36101">
					<ele>805</ele>
					<time>0001-01-01T00:00:00Z</time>
				</trkpt>
				<trkpt lat="59.05091" lon="7.36095">
					<ele>809</ele>
					<time>0001-01-01T00:00:00Z</time>
				</trkpt>
				<trkpt lat="59.05051" lon="7.36089">
					<ele>813</ele>
					<time>0001-01-01T00:00:00Z</time>
				</trkpt>
				<trkpt lat="59.05004" lon="7.36076">
					<ele>817</ele>
					<time>0001-01-01T00:00:00Z</time>
				</trkpt>
				<trkpt lat="59.04954" lon="7.36040">
					<ele>824</ele>
					<time>0001-01-01T00:00:00Z</time>
				</trkpt>
				<trkpt lat="59.04901" lon="7.35977">
					<ele>829</ele>
					<time>0001-01-01T00:00:00Z</time>
				</trkpt>
				<trkpt lat="59.04848" lon="7.35881">
					<ele>832</ele>
					<time>0001-01-01T00:00:00Z</time>
				</trkpt>
				<trkpt lat="59.04808" lon="7.35772">
					<ele>831</ele>
					<time>0001-01-01T00:00:00Z</time>
				</trkpt>
				<trkpt lat="59.04768" lon="7.35579">
					<ele>827</ele>
					<time>0001-01-01T00:00:00Z</time>
				</trkpt>
				<trkpt lat="59.04755" lon="7.35321">
					<ele>825</ele>
					<time>0001-01-01T00:00:00Z</time>
				</trkpt>
				<trkpt lat="59.04742" lon="7.34974">
					<ele>825</ele>
					<time>0001-01-01T00:00:00Z</time>
				</trkpt>
				<trkpt lat="59.04736" lon="7.34800">
					<ele>828</ele>
					<time>0001-01-01T00:00:00Z</time>
				</trkpt>
				<trkpt lat="59.04733" lon="7.34659">
					<ele>835</ele>
					<time>0001-01-01T00:00:00Z</time>
				</trkpt>
				<trkpt lat="59.04727" lon="7.34568">
					<ele>838</ele>
					<time>0001-01-01T00:00:00Z</time>
				</trkpt>
				<trkpt lat="59.04719" lon="7.34461">
					<ele>842</ele>
					<time>0001-01-01T00:00:00Z</time>
				</trkpt>
				<trkpt lat="59.04704" lon="7.34334">
					<ele>847</ele>
					<time>0001-01-01T00:00:00Z</time>
				</trkpt>
				<trkpt lat="59.04680" lon="7.34200">
					<ele>851</ele>
					<time>0001-01-01T00:00:00Z</time>
				</trkpt>
				<trkpt lat="59.04654" lon="7.34088">
					<ele>851</ele>
					<time>0001-01-01T00:00:00Z</time>
				</trkpt>
				<trkpt lat="59.04626" lon="7.33980">
					<ele>852</ele>
					<time>0001-01-01T00:00:00Z</time>
				</trkpt>
				<trkpt lat="59.04593" lon="7.33839">
					<ele>862</ele>
					<time>0001-01-01T00:00:00Z</time>
				</trkpt>
				<trkpt lat="59.04554" lon="7.33696">
					<ele>868</ele>
					<time>0001-01-01T00:00:00Z</time>
				</trkpt>
				<trkpt lat="59.04500" lon="7.33537">
					<ele>868</ele>
					<time>0001-01-01T00:00:00Z</time>
				</trkpt>
				<trkpt lat="59.04414" lon="7.33287">
					<ele>867</ele>
					<time>0001-01-01T00:00:00Z</time>
				</trkpt>
				<trkpt lat="59.04384" lon="7.33122">
					<ele>868</ele>
					<time>0001-01-01T00:00:00Z</time>
				</trkpt>
				<trkpt lat="59.04342" lon="7.32955">
					<ele>872</ele>
					<time>0001-01-01T00:00:00Z</time>
				</trkpt>
				<trkpt lat="59.04265" lon="7.32815">
					<ele>873</ele>
					<time>0001-01-01T00:00:00Z</time>
				</trkpt>
				<trkpt lat="59.04211" lon="7.32719">
					<ele>879</ele>
					<time>0001-01-01T00:00:00Z</time>
				</trkpt>
				<trkpt lat="59.04147" lon="7.32618">
					<ele>885</ele>
					<time>0001-01-01T00:00:00Z</time>
				</trkpt>
				<trkpt lat="59.04079" lon="7.32541">
					<ele>888</ele>
					<time>0001-01-01T00:00:00Z</time>
				</trkpt>
				<trkpt lat="59.03981" lon="7.32440">
					<ele>891</ele>
					<time>0001-01-01T00:00:00Z</time>
				</trkpt>
				<trkpt lat="59.03896" lon="7.32295">
					<ele>895</ele>
					<time>0001-01-01T00:00:00Z</time>
				</trkpt>
				<trkpt lat="59.03846" lon="7.32161">
					<ele>898</ele>
					<time>0001-01-01T00:00:00Z</time>
				</trkpt>
				<trkpt lat="59.03808" lon="7.32005">
					<ele>899</ele>
					<time>0001-01-01T00:00:00Z</time>
				</trkpt>
				<trkpt lat="59.03785" lon="7.31827">
					<ele>899</ele>
					<time>0001-01-01T00:00:00Z</time>
				</trkpt>
				<trkpt lat="59.03765" lon="7.31541">
					<ele>896</ele>
					<time>0001-01-01T00:00:00Z</time>
				</trkpt>
				<trkpt lat="59.03745" lon="7.31252">
					<ele>892</ele>
					<time>0001-01-01T00:00:00Z</time>
				</trkpt>
				<trkpt lat="59.03727" lon="7.30986">
					<ele>890</ele>
					<time>0001-01-01T00:00:00Z</time>
				</trkpt>
				<trkpt lat="59.03702" lon="7.30621">
					<ele>889</ele>
					<time>0001-01-01T00:00:00Z</time>
				</trkpt>
				<trkpt lat="59.03680" lon="7.30305">
					<ele>889</ele>
					<time>0001-01-01T00:00:00Z</time>
				</trkpt>
				<trkpt lat="59.03659" lon="7.30064">
					<ele>890</ele>
					<time>0001-01-01T00:00:00Z</time>
				</trkpt>
				<trkpt lat="59.03630" lon="7.29919">
					<ele>892</ele>
					<time>0001-01-01T00:00:00Z</time>
				</trkpt>
				<trkpt lat="59.03598" lon="7.29779">
					<ele>895</ele>
					<time>0001-01-01T00:00:00Z</time>
				</trkpt>
				<trkpt lat="59.03559" lon="7.29635">
					<ele>901</ele>
					<time>0001-01-01T00:00:00Z</time>
				</trkpt>
				<trkpt lat="59.03500" lon="7.29442">
					<ele>909</ele>
					<time>0001-01-01T00:00:00Z</time>
				</trkpt>
				<trkpt lat="59.03477" lon="7.29325">
					<ele>912</ele>
					<time>0001-01-01T00:00:00Z</time>
				</trkpt>
				<trkpt lat="59.03483" lon="7.29219">
					<ele>916</ele>
					<time>0001-01-01T00:00:00Z</time>
				</trkpt>
				<trkpt lat="59.03505" lon="7.29106">
					<ele>924</ele>
					<time>0001-01-01T00:00:00Z</time>
				</trkpt>
				<trkpt lat="59.03509" lon="7.28994">
					<ele>930</ele>
					<time>0001-01-01T00:00:00Z</time>
				</trkpt>
				<trkpt lat="59.03501" lon="7.28929">
					<ele>933</ele>
					<time>0001-01-01T00:00:00Z</time>
				</trkpt>
				<trkpt lat="59.03492" lon="7.28861">
					<ele>936</ele>
					<time>0001-01-01T00:00:00Z</time>
				</trkpt>
				<trkpt lat="59.03485" lon="7.28763">
					<ele>942</ele>
					<time>0001-01-01T00:00:00Z</time>
				</trkpt>
				<trkpt lat="59.03484" lon="7.28686">
					<ele>947</ele>
					<time>0001-01-01T00:00:00Z</time>
				</trkpt>
				<trkpt lat="59.03482" lon="7.28615">
					<ele>949</ele>
					<time>0001-01-01T00:00:00Z</time>
				</trkpt>
				<trkpt lat="59.03480" lon="7.28521">
					<ele>956</ele>
					<time>0001-01-01T00:00:00Z</time>
				</trkpt>
				<trkpt lat="59.03475" lon="7.28426">
					<ele>960</ele>
					<time>0001-01-01T00:00:00Z</time>
				</trkpt>
				<trkpt lat="59.03465" lon="7.28321">
					<ele>966</ele>
					<time>0001-01-01T00:00:00Z</time>
				</trkpt>
				<trkpt lat="59.03445" lon="7.28215">
					<ele>971</ele>
					<time>0001-01-01T00:00:00Z</time>
				</trkpt>
				<trkpt lat="59.03428" lon="7.28132">
					<ele>975</ele>
					<time>0001-01-01T00:00:00Z</time>
				</trkpt>
				<trkpt lat="59.03406" lon="7.28019">
					<ele>982</ele>
					<time>0001-01-01T00:00:00Z</time>
				</trkpt>
				<trkpt lat="59.03395" lon="7.27938">
					<ele>987</ele>
					<time>0001-01-01T00:00:00Z</time>
				</trkpt>
				<trkpt lat="59.03388" lon="7.27841">
					<ele>993</ele>
					<time>0001-01-01T00:00:00Z</time>
				</trkpt>
				<trkpt lat="59.03381" lon="7.27733">
					<ele>1000</ele>
					<time>0001-01-01T00:00:00Z</time>
				</trkpt>
				<trkpt lat="59.03372" lon="7.27645">
					<ele>1006</ele>
					<time>0001-01-01T00:00:00Z</time>
				</trkpt>
				<trkpt lat="59.03355" lon="7.27564">
					<ele>1010</ele>
					<time>0001-01-01T00:00:00Z</time>
				</trkpt>
				<trkpt lat="59.03328" lon="7.27462">
					<ele>1012</ele>
					<time>0001-01-01T00:00:00Z</time>
				</trkpt>
				<trkpt lat="59.03297" lon="7.27294">
					<ele>1015</ele>
					<time>0001-01-01T00:00:00Z</time>
				</trkpt>
				<trkpt lat="59.03292" lon="7.27172">
					<ele>1021</ele>
					<time>0001-01-01T00:00:00Z</time>
				</trkpt>
				<trkpt lat="59.03292" lon="7.27158">
					<ele>1021</ele>
					<time>0001-01-01T00:00:00Z</time>
				</trkpt>
				<trkpt lat="59.03290" lon="7.27161">
					<ele>1020</ele>
					<time>0001-01-01T00:00:00Z</time>
				</trkpt>
				<trkpt lat="59.03292" lon="7.27153">
					<ele>1021</ele>
					<time>0001-01-01T00:00:00Z</time>
				</trkpt>
				<trkpt lat="59.03292" lon="7.27148">
					<ele>1021</ele>
					<time>0001-01-01T00:00:00Z</time>
				</trkpt>
				<trkpt lat="59.03287" lon="7.27096">
					<ele>1021</ele>
					<time>0001-01-01T00:00:00Z</time>
				</trkpt>
				<trkpt lat="59.03250" lon="7.26944">
					<ele>1016</ele>
					<time>0001-01-01T00:00:00Z</time>
				</trkpt>
				<trkpt lat="59.03212" lon="7.26770">
					<ele>1006</ele>
					<time>0001-01-01T00:00:00Z</time>
				</trkpt>
				<trkpt lat="59.03188" lon="7.26451">
					<ele>993</ele>
					<time>0001-01-01T00:00:00Z</time>
				</trkpt>
				<trkpt lat="59.03156" lon="7.26052">
					<ele>979</ele>
					<time>0001-01-01T00:00:00Z</time>
				</trkpt>
				<trkpt lat="59.03135" lon="7.25802">
					<ele>978</ele>
					<time>0001-01-01T00:00:00Z</time>
				</trkpt>
				<trkpt lat="59.03121" lon="7.25667">
					<ele>978</ele>
					<time>0001-01-01T00:00:00Z</time>
				</trkpt>
				<trkpt lat="59.03101" lon="7.25606">
					<ele>978</ele>
					<time>0001-01-01T00:00:00Z</time>
				</trkpt>
				<trkpt lat="59.03027" lon="7.25515">
					<ele>978</ele>
					<time>0001-01-01T00:00:00Z</time>
				</trkpt>
				<trkpt lat="59.02998" lon="7.25482">
					<ele>978</ele>
					<time>0001-01-01T00:00:00Z</time>
				</trkpt>
				<trkpt lat="59.02954" lon="7.25340">
					<ele>978</ele>
					<time>0001-01-01T00:00:00Z</time>
				</trkpt>
				<trkpt lat="59.02899" lon="7.25087">
					<ele>978</ele>
					<time>0001-01-01T00:00:00Z</time>
				</trkpt>
				<trkpt lat="59.02901" lon="7.24951">
					<ele>979</ele>
					<time>0001-01-01T00:00:00Z</time>
				</trkpt>
				<trkpt lat="59.02905" lon="7.24930">
					<ele>979</ele>
					<time>0001-01-01T00:00:00Z</time>
				</trkpt>
				<trkpt lat="59.02948" lon="7.24812">
					<ele>982</ele>
					<time>0001-01-01T00:00:00Z</time>
				</trkpt>
				<trkpt lat="59.02994" lon="7.24686">
					<ele>985</ele>
					<time>0001-01-01T00:00:00Z</time>
				</trkpt>
				<trkpt lat="59.03018" lon="7.24559">
					<ele>986</ele>
					<time>0001-01-01T00:00:00Z</time>
				</trkpt>
				<trkpt lat="59.03044" lon="7.24416">
					<ele>989</ele>
					<time>0001-01-01T00:00:00Z</time>
				</trkpt>
				<trkpt lat="59.03061" lon="7.24329">
					<ele>990</ele>
					<time>0001-01-01T00:00:00Z</time>
				</trkpt>
				<trkpt lat="59.03081" lon="7.24217">
					<ele>996</ele>
					<time>0001-01-01T00:00:00Z</time>
				</trkpt>
				<trkpt lat="59.03095" lon="7.24141">
					<ele>997</ele>
					<time>0001-01-01T00:00:00Z</time>
				</trkpt>
				<trkpt lat="59.03111" lon="7.24049">
					<ele>1001</ele>
					<time>0001-01-01T00:00:00Z</time>
				</trkpt>
				<trkpt lat="59.03131" lon="7.23917">
					<ele>1007</ele>
					<time>0001-01-01T00:00:00Z</time>
				</trkpt>
				<trkpt lat="59.03144" lon="7.23809">
					<ele>1009</ele>
					<time>0001-01-01T00:00:00Z</time>
				</trkpt>
				<trkpt lat="59.03157" lon="7.23725">
					<ele>1012</ele>
					<time>0001-01-01T00:00:00Z</time>
				</trkpt>
				<trkpt lat="59.03186" lon="7.23589">
					<ele>1018</ele>
					<time>0001-01-01T00:00:00Z</time>
				</trkpt>
				<trkpt lat="59.03225" lon="7.23460">
					<ele>1021</ele>
					<time>0001-01-01T00:00:00Z</time>
				</trkpt>
				<trkpt lat="59.03293" lon="7.23246">
					<ele>1019</ele>
					<time>0001-01-01T00:00:00Z</time>
				</trkpt>
				<trkpt lat="59.03330" lon="7.23062">
					<ele>1022</ele>
					<time>0001-01-01T00:00:00Z</time>
				</trkpt>
				<trkpt lat="59.03329" lon="7.22847">
					<ele>1023</ele>
					<time>0001-01-01T00:00:00Z</time>
				</trkpt>
				<trkpt lat="59.03347" lon="7.22682">
					<ele>1029</ele>
					<time>0001-01-01T00:00:00Z</time>
				</trkpt>
				<trkpt lat="59.03370" lon="7.22568">
					<ele>1035</ele>
					<time>0001-01-01T00:00:00Z</time>
				</trkpt>
				<trkpt lat="59.03389" lon="7.22480">
					<ele>1041</ele>
					<time>0001-01-01T00:00:00Z</time>
				</trkpt>
				<trkpt lat="59.03410" lon="7.22387">
					<ele>1047</ele>
					<time>0001-01-01T00:00:00Z</time>
				</trkpt>
				<trkpt lat="59.03434" lon="7.22226">
					<ele>1050</ele>
					<time>0001-01-01T00:00:00Z</time>
				</trkpt>
				<trkpt lat="59.03437" lon="7.22158">
					<ele>1048</ele>
					<time>0001-01-01T00:00:00Z</time>
				</trkpt>
				<trkpt lat="59.03423" lon="7.21965">
					<ele>1040</ele>
					<time>0001-01-01T00:00:00Z</time>
				</trkpt>
				<trkpt lat="59.03383" lon="7.21556">
					<ele>1033</ele>
					<time>0001-01-01T00:00:00Z</time>
				</trkpt>
				<trkpt lat="59.03384" lon="7.21518">
					<ele>1033</ele>
					<time>0001-01-01T00:00:00Z</time>
				</trkpt>
				<trkpt lat="59.03416" lon="7.21380">
					<ele>1031</ele>
					<time>0001-01-01T00:00:00Z</time>
				</trkpt>
				<trkpt lat="59.03486" lon="7.21184">
					<ele>1031</ele>
					<time>0001-01-01T00:00:00Z</time>
				</trkpt>
				<trkpt lat="59.03516" lon="7.20974">
					<ele>1030</ele>
					<time>0001-01-01T00:00:00Z</time>
				</trkpt>
				<trkpt lat="59.03494" lon="7.20780">
					<ele>1023</ele>
					<time>0001-01-01T00:00:00Z</time>
				</trkpt>
				<trkpt lat="59.03456" lon="7.20519">
					<ele>1019</ele>
					<time>0001-01-01T00:00:00Z</time>
				</trkpt>
				<trkpt lat="59.03473" lon="7.20363">
					<ele>1017</ele>
					<time>0001-01-01T00:00:00Z</time>
				</trkpt>
				<trkpt lat="59.03534" lon="7.20080">
					<ele>1012</ele>
					<time>0001-01-01T00:00:00Z</time>
				</trkpt>
				<trkpt lat="59.03597" lon="7.19722">
					<ele>1004</ele>
					<time>0001-01-01T00:00:00Z</time>
				</trkpt>
				<trkpt lat="59.03661" lon="7.19400">
					<ele>997</ele>
					<time>0001-01-01T00:00:00Z</time>
				</trkpt>
				<trkpt lat="59.03756" lon="7.19046">
					<ele>988</ele>
					<time>0001-01-01T00:00:00Z</time>
				</trkpt>
				<trkpt lat="59.03798" lon="7.18894">
					<ele>983</ele>
					<time>0001-01-01T00:00:00Z</time>
				</trkpt>
				<trkpt lat="59.03842" lon="7.18612">
					<ele>969</ele>
					<time>0001-01-01T00:00:00Z</time>
				</trkpt>
				<trkpt lat="59.03896" lon="7.18329">
					<ele>960</ele>
					<time>0001-01-01T00:00:00Z</time>
				</trkpt>
				<trkpt lat="59.03997" lon="7.17949">
					<ele>948</ele>
					<time>0001-01-01T00:00:00Z</time>
				</trkpt>
				<trkpt lat="59.04087" lon="7.17531">
					<ele>932</ele>
					<time>0001-01-01T00:00:00Z</time>
				</trkpt>
				<trkpt lat="59.04151" lon="7.17200">
					<ele>917</ele>
					<time>0001-01-01T00:00:00Z</time>
				</trkpt>
				<trkpt lat="59.04212" lon="7.16851">
					<ele>910</ele>
					<time>0001-01-01T00:00:00Z</time>
				</trkpt>
				<trkpt lat="59.04215" lon="7.16592">
					<ele>906</ele>
					<time>0001-01-01T00:00:00Z</time>
				</trkpt>
				<trkpt lat="59.04191" lon="7.16350">
					<ele>899</ele>
					<time>0001-01-01T00:00:00Z</time>
				</trkpt>
				<trkpt lat="59.04160" lon="7.16298">
					<ele>898</ele>
					<time>0001-01-01T00:00:00Z</time>
				</trkpt>
				<trkpt lat="59.04082" lon="7.16262">
					<ele>896</ele>
					<time>0001-01-01T00:00:00Z</time>
				</trkpt>
				<trkpt lat="59.04052" lon="7.16197">
					<ele>895</ele>
					<time>0001-01-01T00:00:00Z</time>
				</trkpt>
				<trkpt lat="59.03996" lon="7.15958">
					<ele>893</ele>
					<time>0001-01-01T00:00:00Z</time>
				</trkpt>
				<trkpt lat="59.03972" lon="7.15713">
					<ele>885</ele>
					<time>0001-01-01T00:00:00Z</time>
				</trkpt>
				<trkpt lat="59.03935" lon="7.15315">
					<ele>875</ele>
					<time>0001-01-01T00:00:00Z</time>
				</trkpt>
				<trkpt lat="59.03912" lon="7.15038">
					<ele>870</ele>
					<time>0001-01-01T00:00:00Z</time>
				</trkpt>
				<trkpt lat="59.03881" lon="7.14868">
					<ele>871</ele>
					<time>0001-01-01T00:00:00Z</time>
				</trkpt>
				<trkpt lat="59.03880" lon="7.14854">
					<ele>871</ele>
					<time>0001-01-01T00:00:00Z</time>
				</trkpt>
				<trkpt lat="59.03898" lon="7.14722">
					<ele>873</ele>
					<time>0001-01-01T00:00:00Z</time>
				</trkpt>
				<trkpt lat="59.03922" lon="7.14657">
					<ele>874</ele>
					<time>0001-01-01T00:00:00Z</time>
				</trkpt>
				<trkpt lat="59.03999" lon="7.14552">
					<ele>876</ele>
					<time>0001-01-01T00:00:00Z</time>
				</trkpt>
				<trkpt lat="59.04103" lon="7.14428">
					<ele>878</ele>
					<time>0001-01-01T00:00:00Z</time>
				</trkpt>
				<trkpt lat="59.04180" lon="7.14325">
					<ele>875</ele>
					<time>0001-01-01T00:00:00Z</time>
				</trkpt>
				<trkpt lat="59.04192" lon="7.14308">
					<ele>875</ele>
					<time>0001-01-01T00:00:00Z</time>
				</trkpt>
				<trkpt lat="59.04202" lon="7.14222">
					<ele>875</ele>
					<time>0001-01-01T00:00:00Z</time>
				</trkpt>
				<trkpt lat="59.04173" lon="7.14185">
					<ele>875</ele>
					<time>0001-01-01T00:00:00Z</time>
				</trkpt>
				<trkpt lat="59.04096" lon="7.14134">
					<ele>873</ele>
					<time>0001-01-01T00:00:00Z</time>
				</trkpt>
				<trkpt lat="59.04059" lon="7.14086">
					<ele>872</ele>
					<time>0001-01-01T00:00:00Z</time>
				</trkpt>
				<trkpt lat="59.03910" lon="7.13998">
					<ele>871</ele>
					<time>0001-01-01T00:00:00Z</time>
				</trkpt>
				<trkpt lat="59.03829" lon="7.14001">
					<ele>875</ele>
					<time>0001-01-01T00:00:00Z</time>
				</trkpt>
				<trkpt lat="59.03817" lon="7.14001">
					<ele>875</ele>
					<time>0001-01-01T00:00:00Z</time>
				</trkpt>
				<trkpt lat="59.03731" lon="7.13952">
					<ele>874</ele>
					<time>0001-01-01T00:00:00Z</time>
				</trkpt>
				<trkpt lat="59.03724" lon="7.13947">
					<ele>874</ele>
					<time>0001-01-01T00:00:00Z</time>
				</trkpt>
				<trkpt lat="59.03688" lon="7.13896">
					<ele>873</ele>
					<time>0001-01-01T00:00:00Z</time>
				</trkpt>
				<trkpt lat="59.03599" lon="7.13680">
					<ele>869</ele>
					<time>0001-01-01T00:00:00Z</time>
				</trkpt>
				<trkpt lat="59.03557" lon="7.13638">
					<ele>869</ele>
					<time>0001-01-01T00:00:00Z</time>
				</trkpt>
				<trkpt lat="59.03459" lon="7.13607">
					<ele>869</ele>
					<time>0001-01-01T00:00:00Z</time>
				</trkpt>
				<trkpt lat="59.03426" lon="7.13575">
					<ele>870</ele>
					<time>0001-01-01T00:00:00Z</time>
				</trkpt>
				<trkpt lat="59.03418" lon="7.13572">
					<ele>869</ele>
					<time>0001-01-01T00:00:00Z</time>
				</trkpt>
				<trkpt lat="59.03420" lon="7.13557">
					<ele>869</ele>
					<time>0001-01-01T00:00:00Z</time>
				</trkpt>
				<trkpt lat="59.03420" lon="7.13556">
					<ele>868</ele>
					<time>0001-01-01T00:00:00Z</time>
				</trkpt>
				<trkpt lat="59.03426" lon="7.13563">
					<ele>868</ele>
					<time>0001-01-01T00:00:00Z</time>
				</trkpt>
				<trkpt lat="59.03456" lon="7.13604">
					<ele>868</ele>
					<time>0001-01-01T00:00:00Z</time>
				</trkpt>
				<trkpt lat="59.03460" lon="7.13590">
					<ele>868</ele>
					<time>0001-01-01T00:00:00Z</time>
				</trkpt>
				<trkpt lat="59.03408" lon="7.13500">
					<ele>868</ele>
					<time>0001-01-01T00:00:00Z</time>
				</trkpt>
				<trkpt lat="59.03364" lon="7.13341">
					<ele>865</ele>
					<time>0001-01-01T00:00:00Z</time>
				</trkpt>
				<trkpt lat="59.03344" lon="7.13304">
					<ele>865</ele>
					<time>0001-01-01T00:00:00Z</time>
				</trkpt>
				<trkpt lat="59.03299" lon="7.13269">
					<ele>869</ele>
					<time>0001-01-01T00:00:00Z</time>
				</trkpt>
				<trkpt lat="59.03238" lon="7.13226">
					<ele>873</ele>
					<time>0001-01-01T00:00:00Z</time>
				</trkpt>
				<trkpt lat="59.03187" lon="7.13187">
					<ele>879</ele>
					<time>0001-01-01T00:00:00Z</time>
				</trkpt>
				<trkpt lat="59.03138" lon="7.13144">
					<ele>885</ele>
					<time>0001-01-01T00:00:00Z</time>
				</trkpt>
				<trkpt lat="59.03088" lon="7.13091">
					<ele>891</ele>
					<time>0001-01-01T00:00:00Z</time>
				</trkpt>
				<trkpt lat="59.03054" lon="7.13036">
					<ele>896</ele>
					<time>0001-01-01T00:00:00Z</time>
				</trkpt>
				<trkpt lat="59.03019" lon="7.12943">
					<ele>901</ele>
					<time>0001-01-01T00:00:00Z</time>
				</trkpt>
				<trkpt lat="59.02988" lon="7.12900">
					<ele>905</ele>
					<time>0001-01-01T00:00:00Z</time>
				</trkpt>
				<trkpt lat="59.02934" lon="7.12841">
					<ele>910</ele>
					<time>0001-01-01T00:00:00Z</time>
				</trkpt>
				<trkpt lat="59.02872" lon="7.12767">
					<ele>910</ele>
					<time>0001-01-01T00:00:00Z</time>
				</trkpt>
				<trkpt lat="59.02868" lon="7.12759">
					<ele>910</ele>
					<time>0001-01-01T00:00:00Z</time>
				</trkpt>
				<trkpt lat="59.02856" lon="7.12734">
					<ele>910</ele>
					<time>0001-01-01T00:00:00Z</time>
				</trkpt>
				<trkpt lat="59.02793" lon="7.12532">
					<ele>913</ele>
					<time>0001-01-01T00:00:00Z</time>
				</trkpt>
				<trkpt lat="59.02766" lon="7.12436">
					<ele>920</ele>
					<time>0001-01-01T00:00:00Z</time>
				</trkpt>
				<trkpt lat="59.02721" lon="7.12348">
					<ele>924</ele>
					<time>0001-01-01T00:00:00Z</time>
				</trkpt>
				<trkpt lat="59.02669" lon="7.12258">
					<ele>930</ele>
					<time>0001-01-01T00:00:00Z</time>
				</trkpt>
				<trkpt lat="59.02646" lon="7.12181">
					<ele>935</ele>
					<time>0001-01-01T00:00:00Z</time>
				</trkpt>
				<trkpt lat="59.02628" lon="7.12058">
					<ele>940</ele>
					<time>0001-01-01T00:00:00Z</time>
				</trkpt>
				<trkpt lat="59.02637" lon="7.11961">
					<ele>943</ele>
					<time>0001-01-01T00:00:00Z</time>
				</trkpt>
				<trkpt lat="59.02657" lon="7.11860">
					<ele>945</ele>
					<time>0001-01-01T00:00:00Z</time>
				</trkpt>
				<trkpt lat="59.02650" lon="7.11743">
					<ele>943</ele>
					<time>0001-01-01T00:00:00Z</time>
				</trkpt>
				<trkpt lat="59.02614" lon="7.11554">
					<ele>941</ele>
					<time>0001-01-01T00:00:00Z</time>
				</trkpt>
				<trkpt lat="59.02598" lon="7.11401">
					<ele>943</ele>
					<time>0001-01-01T00:00:00Z</time>
				</trkpt>
				<trkpt lat="59.02611" lon="7.11241">
					<ele>947</ele>
					<time>0001-01-01T00:00:00Z</time>
				</trkpt>
				<trkpt lat="59.02623" lon="7.11074">
					<ele>948</ele>
					<time>0001-01-01T00:00:00Z</time>
				</trkpt>
				<trkpt lat="59.02631" lon="7.10857">
					<ele>951</ele>
					<time>0001-01-01T00:00:00Z</time>
				</trkpt>
				<trkpt lat="59.02620" lon="7.10684">
					<ele>952</ele>
					<time>0001-01-01T00:00:00Z</time>
				</trkpt>
				<trkpt lat="59.02639" lon="7.10524">
					<ele>949</ele>
					<time>0001-01-01T00:00:00Z</time>
				</trkpt>
				<trkpt lat="59.02641" lon="7.10307">
					<ele>947</ele>
					<time>0001-01-01T00:00:00Z</time>
				</trkpt>
				<trkpt lat="59.02671" lon="7.10239">
					<ele>946</ele>
					<time>0001-01-01T00:00:00Z</time>
				</trkpt>
				<trkpt lat="59.02745" lon="7.10099">
					<ele>944</ele>
					<time>0001-01-01T00:00:00Z</time>
				</trkpt>
				<trkpt lat="59.02762" lon="7.10025">
					<ele>941</ele>
					<time>0001-01-01T00:00:00Z</time>
				</trkpt>
				<trkpt lat="59.02770" lon="7.09762">
					<ele>936</ele>
					<time>0001-01-01T00:00:00Z</time>
				</trkpt>
				<trkpt lat="59.02747" lon="7.09565">
					<ele>936</ele>
					<time>0001-01-01T00:00:00Z</time>
				</trkpt>
				<trkpt lat="59.02761" lon="7.09375">
					<ele>933</ele>
					<time>0001-01-01T00:00:00Z</time>
				</trkpt>
				<trkpt lat="59.02798" lon="7.09103">
					<ele>922</ele>
					<time>0001-01-01T00:00:00Z</time>
				</trkpt>
				<trkpt lat="59.02801" lon="7.09083">
					<ele>921</ele>
					<time>0001-01-01T00:00:00Z</time>
				</trkpt>
				<trkpt lat="59.02802" lon="7.09001">
					<ele>919</ele>
					<time>0001-01-01T00:00:00Z</time>
				</trkpt>
				<trkpt lat="59.02786" lon="7.08842">
					<ele>914</ele>
					<time>0001-01-01T00:00:00Z</time>
				</trkpt>
				<trkpt lat="59.02801" lon="7.08687">
					<ele>912</ele>
					<time>0001-01-01T00:00:00Z</time>
				</trkpt>
				<trkpt lat="59.02826" lon="7.08628">
					<ele>910</ele>
					<time>0001-01-01T00:00:00Z</time>
				</trkpt>
				<trkpt lat="59.02971" lon="7.08452">
					<ele>900</ele>
					<time>0001-01-01T00:00:00Z</time>
				</trkpt>
				<trkpt lat="59.03001" lon="7.08422">
					<ele>899</ele>
					<time>0001-01-01T00:00:00Z</time>
				</trkpt>
				<trkpt lat="59.03031" lon="7.08309">
					<ele>899</ele>
					<time>0001-01-01T00:00:00Z</time>
				</trkpt>
				<trkpt lat="59.03024" lon="7.08257">
					<ele>899</ele>
					<time>0001-01-01T00:00:00Z</time>
				</trkpt>
				<trkpt lat="59.02993" lon="7.08080">
					<ele>893</ele>
					<time>0001-01-01T00:00:00Z</time>
				</trkpt>
				<trkpt lat="59.03013" lon="7.07976">
					<ele>889</ele>
					<time>0001-01-01T00:00:00Z</time>
				</trkpt>
				<trkpt lat="59.03022" lon="7.07964">
					<ele>888</ele>
					<time>0001-01-01T00:00:00Z</time>
				</trkpt>
				<trkpt lat="59.03070" lon="7.07904">
					<ele>884</ele>
					<time>0001-01-01T00:00:00Z</time>
				</trkpt>
				<trkpt lat="59.03094" lon="7.07778">
					<ele>877</ele>
					<time>0001-01-01T00:00:00Z</time>
				</trkpt>
				<trkpt lat="59.03092" lon="7.07754">
					<ele>876</ele>
					<time>0001-01-01T00:00:00Z</time>
				</trkpt>
				<trkpt lat="59.03056" lon="7.07399">
					<ele>862</ele>
					<time>0001-01-01T00:00:00Z</time>
				</trkpt>
				<trkpt lat="59.03053" lon="7.07178">
					<ele>854</ele>
					<time>0001-01-01T00:00:00Z</time>
				</trkpt>
				<trkpt lat="59.03059" lon="7.06885">
					<ele>850</ele>
					<time>0001-01-01T00:00:00Z</time>
				</trkpt>
				<trkpt lat="59.03061" lon="7.06610">
					<ele>848</ele>
					<time>0001-01-01T00:00:00Z</time>
				</trkpt>
				<trkpt lat="59.03065" lon="7.06579">
					<ele>848</ele>
					<time>0001-01-01T00:00:00Z</time>
				</trkpt>
				<trkpt lat="59.03071" lon="7.06550">
					<ele>848</ele>
					<time>0001-01-01T00:00:00Z</time>
				</trkpt>
				<trkpt lat="59.03160" lon="7.06336">
					<ele>844</ele>
					<time>0001-01-01T00:00:00Z</time>
				</trkpt>
				<trkpt lat="59.03245" lon="7.06110">
					<ele>843</ele>
					<time>0001-01-01T00:00:00Z</time>
				</trkpt>
				<trkpt lat="59.03248" lon="7.06020">
					<ele>842</ele>
					<time>0001-01-01T00:00:00Z</time>
				</trkpt>
				<trkpt lat="59.03201" lon="7.05720">
					<ele>841</ele>
					<time>0001-01-01T00:00:00Z</time>
				</trkpt>
				<trkpt lat="59.03164" lon="7.05511">
					<ele>843</ele>
					<time>0001-01-01T00:00:00Z</time>
				</trkpt>
				<trkpt lat="59.03149" lon="7.05380">
					<ele>844</ele>
					<time>0001-01-01T00:00:00Z</time>
				</trkpt>
				<trkpt lat="59.03163" lon="7.05231">
					<ele>847</ele>
					<time>0001-01-01T00:00:00Z</time>
				</trkpt>
				<trkpt lat="59.03183" lon="7.05031">
					<ele>848</ele>
					<time>0001-01-01T00:00:00Z</time>
				</trkpt>
				<trkpt lat="59.03186" lon="7.04964">
					<ele>848</ele>
					<time>0001-01-01T00:00:00Z</time>
				</trkpt>
				<trkpt lat="59.03152" lon="7.04802">
					<ele>843</ele>
					<time>0001-01-01T00:00:00Z</time>
				</trkpt>
				<trkpt lat="59.03091" lon="7.04625">
					<ele>845</ele>
					<time>0001-01-01T00:00:00Z</time>
				</trkpt>
				<trkpt lat="59.03058" lon="7.04531">
					<ele>847</ele>
					<time>0001-01-01T00:00:00Z</time>
				</trkpt>
				<trkpt lat="59.03014" lon="7.04406">
					<ele>849</ele>
					<time>0001-01-01T00:00:00Z</time>
				</trkpt>
				<trkpt lat="59.02950" lon="7.04230">
					<ele>853</ele>
					<time>0001-01-01T00:00:00Z</time>
				</trkpt>
				<trkpt lat="59.02912" lon="7.04122">
					<ele>857</ele>
					<time>0001-01-01T00:00:00Z</time>
				</trkpt>
				<trkpt lat="59.02872" lon="7.04004">
					<ele>860</ele>
					<time>0001-01-01T00:00:00Z</time>
				</trkpt>
				<trkpt lat="59.02820" lon="7.03811">
					<ele>859</ele>
					<time>0001-01-01T00:00:00Z</time>
				</trkpt>
				<trkpt lat="59.02773" lon="7.03646">
					<ele>862</ele>
					<time>0001-01-01T00:00:00Z</time>
				</trkpt>
				<trkpt lat="59.02736" lon="7.03505">
					<ele>868</ele>
					<time>0001-01-01T00:00:00Z</time>
				</trkpt>
				<trkpt lat="59.02724" lon="7.03363">
					<ele>870</ele>
					<time>0001-01-01T00:00:00Z</time>
				</trkpt>
				<trkpt lat="59.02716" lon="7.03182">
					<ele>870</ele>
					<time>0001-01-01T00:00:00Z</time>
				</trkpt>
				<trkpt lat="59.02728" lon="7.02986">
					<ele>873</ele>
					<time>0001-01-01T00:00:00Z</time>
				</trkpt>
				<trkpt lat="59.02729" lon="7.02718">
					<ele>873</ele>
					<time>0001-01-01T00:00:00Z</time>
				</trkpt>
				<trkpt lat="59.02719" lon="7.02489">
					<ele>873</ele>
					<time>0001-01-01T00:00:00Z</time>
				</trkpt>
				<trkpt lat="59.02708" lon="7.02377">
					<ele>873</ele>
					<time>0001-01-01T00:00:00Z</time>
				</trkpt>
				<trkpt lat="59.02729" lon="7.02219">
					<ele>875</ele>
					<time>0001-01-01T00:00:00Z</time>
				</trkpt>
				<trkpt lat="59.02766" lon="7.02006">
					<ele>873</ele>
					<time>0001-01-01T00:00:00Z</time>
				</trkpt>
				<trkpt lat="59.02796" lon="7.01811">
					<ele>873</ele>
					<time>0001-01-01T00:00:00Z</time>
				</trkpt>
				<trkpt lat="59.02837" lon="7.01663">
					<ele>873</ele>
					<time>0001-01-01T00:00:00Z</time>
				</trkpt>
				<trkpt lat="59.02835" lon="7.01530">
					<ele>873</ele>
					<time>0001-01-01T00:00:00Z</time>
				</trkpt>
				<trkpt lat="59.02785" lon="7.01353">
					<ele>873</ele>
					<time>0001-01-01T00:00:00Z</time>
				</trkpt>
				<trkpt lat="59.02736" lon="7.01239">
					<ele>873</ele>
					<time>0001-01-01T00:00:00Z</time>
				</trkpt>
				<trkpt lat="59.02739" lon="7.01134">
					<ele>871</ele>
					<time>0001-01-01T00:00:00Z</time>
				</trkpt>
				<trkpt lat="59.02750" lon="7.01116">
					<ele>871</ele>
					<time>0001-01-01T00:00:00Z</time>
				</trkpt>
				<trkpt lat="59.02780" lon="7.01072">
					<ele>871</ele>
					<time>0001-01-01T00:00:00Z</time>
				</trkpt>
				<trkpt lat="59.02800" lon="7.00996">
					<ele>871</ele>
					<time>0001-01-01T00:00:00Z</time>
				</trkpt>
				<trkpt lat="59.02814" lon="7.00852">
					<ele>871</ele>
					<time>0001-01-01T00:00:00Z</time>
				</trkpt>
				<trkpt lat="59.02808" lon="7.00800">
					<ele>871</ele>
					<time>0001-01-01T00:00:00Z</time>
				</trkpt>
				<trkpt lat="59.02750" lon="7.00640">
					<ele>873</ele>
					<time>0001-01-01T00:00:00Z</time>
				</trkpt>
				<trkpt lat="59.02683" lon="7.00487">
					<ele>875</ele>
					<time>0001-01-01T00:00:00Z</time>
				</trkpt>
				<trkpt lat="59.02612" lon="7.00416">
					<ele>877</ele>
					<time>0001-01-01T00:00:00Z</time>
				</trkpt>
				<trkpt lat="59.02537" lon="7.00348">
					<ele>883</ele>
					<time>0001-01-01T00:00:00Z</time>
				</trkpt>
				<trkpt lat="59.02513" lon="7.00328">
					<ele>884</ele>
					<time>0001-01-01T00:00:00Z</time>
				</trkpt>
				<trkpt lat="59.02454" lon="7.00235">
					<ele>884</ele>
					<time>0001-01-01T00:00:00Z</time>
				</trkpt>
				<trkpt lat="59.02418" lon="7.00124">
					<ele>887</ele>
					<time>0001-01-01T00:00:00Z</time>
				</trkpt>
				<trkpt lat="59.02378" lon="6.99966">
					<ele>886</ele>
					<time>0001-01-01T00:00:00Z</time>
				</trkpt>
				<trkpt lat="59.02319" lon="6.99752">
					<ele>891</ele>
					<time>0001-01-01T00:00:00Z</time>
				</trkpt>
				<trkpt lat="59.02285" lon="6.99626">
					<ele>897</ele>
					<time>0001-01-01T00:00:00Z</time>
				</trkpt>
				<trkpt lat="59.02246" lon="6.99481">
					<ele>901</ele>
					<time>0001-01-01T00:00:00Z</time>
				</trkpt>
				<trkpt lat="59.02208" lon="6.99344">
					<ele>908</ele>
					<time>0001-01-01T00:00:00Z</time>
				</trkpt>
				<trkpt lat="59.02175" lon="6.99221">
					<ele>911</ele>
					<time>0001-01-01T00:00:00Z</time>
				</trkpt>
				<trkpt lat="59.02145" lon="6.99081">
					<ele>912</ele>
					<time>0001-01-01T00:00:00Z</time>
				</trkpt>
				<trkpt lat="59.02123" lon="6.98967">
					<ele>911</ele>
					<time>0001-01-01T00:00:00Z</time>
				</trkpt>
				<trkpt lat="59.02094" lon="6.98833">
					<ele>908</ele>
					<time>0001-01-01T00:00:00Z</time>
				</trkpt>
				<trkpt lat="59.02040" lon="6.98691">
					<ele>903</ele>
					<time>0001-01-01T00:00:00Z</time>
				</trkpt>
				<trkpt lat="59.01976" lon="6.98619">
					<ele>898</ele>
					<time>0001-01-01T00:00:00Z</time>
				</trkpt>
				<trkpt lat="59.01950" lon="6.98532">
					<ele>892</ele>
					<time>0001-01-01T00:00:00Z</time>
				</trkpt>
				<trkpt lat="59.01948" lon="6.98434">
					<ele>886</ele>
					<time>0001-01-01T00:00:00Z</time>
				</trkpt>
				<trkpt lat="59.01962" lon="6.98320">
					<ele>879</ele>
					<time>0001-01-01T00:00:00Z</time>
				</trkpt>
				<trkpt lat="59.01965" lon="6.98301">
					<ele>877</ele>
					<time>0001-01-01T00:00:00Z</time>
				</trkpt>
				<trkpt lat="59.01962" lon="6.98297">
					<ele>876</ele>
					<time>0001-01-01T00:00:00Z</time>
				</trkpt>
				<trkpt lat="59.01962" lon="6.98289">
					<ele>876</ele>
					<time>0001-01-01T00:00:00Z</time>
				</trkpt>
				<trkpt lat="59.01962" lon="6.98288">
					<ele>876</ele>
					<time>0001-01-01T00:00:00Z</time>
				</trkpt>
				<trkpt lat="59.01973" lon="6.98212">
					<ele>872</ele>
					<time>0001-01-01T00:00:00Z</time>
				</trkpt>
				<trkpt lat="59.02009" lon="6.98048">
					<ele>861</ele>
					<time>0001-01-01T00:00:00Z</time>
				</trkpt>
				<trkpt lat="59.02034" lon="6.97968">
					<ele>857</ele>
					<time>0001-01-01T00:00:00Z</time>
				</trkpt>
				<trkpt lat="59.02077" lon="6.97916">
					<ele>852</ele>
					<time>0001-01-01T00:00:00Z</time>
				</trkpt>
				<trkpt lat="59.02114" lon="6.97846">
					<ele>847</ele>
					<time>0001-01-01T00:00:00Z</time>
				</trkpt>
				<trkpt lat="59.02166" lon="6.97714">
					<ele>837</ele>
					<time>0001-01-01T00:00:00Z</time>
				</trkpt>
				<trkpt lat="59.02185" lon="6.97603">
					<ele>830</ele>
					<time>0001-01-01T00:00:00Z</time>
				</trkpt>
				<trkpt lat="59.02234" lon="6.97524">
					<ele>821</ele>
					<time>0001-01-01T00:00:00Z</time>
				</trkpt>
				<trkpt lat="59.02279" lon="6.97528">
					<ele>815</ele>
					<time>0001-01-01T00:00:00Z</time>
				</trkpt>
				<trkpt lat="59.02339" lon="6.97581">
					<ele>809</ele>
					<time>0001-01-01T00:00:00Z</time>
				</trkpt>
				<trkpt lat="59.02386" lon="6.97535">
					<ele>806</ele>
					<time>0001-01-01T00:00:00Z</time>
				</trkpt>
				<trkpt lat="59.02383" lon="6.97455">
					<ele>802</ele>
					<time>0001-01-01T00:00:00Z</time>
				</trkpt>
				<trkpt lat="59.02377" lon="6.97436">
					<ele>801</ele>
					<time>0001-01-01T00:00:00Z</time>
				</trkpt>
				<trkpt lat="59.02357" lon="6.97379">
					<ele>796</ele>
					<time>0001-01-01T00:00:00Z</time>
				</trkpt>
				<trkpt lat="59.02274" lon="6.97099">
					<ele>778</ele>
					<time>0001-01-01T00:00:00Z</time>
				</trkpt>
				<trkpt lat="59.02279" lon="6.96990">
					<ele>772</ele>
					<time>0001-01-01T00:00:00Z</time>
				</trkpt>
				<trkpt lat="59.02287" lon="6.96973">
					<ele>770</ele>
					<time>0001-01-01T00:00:00Z</time>
				</trkpt>
				<trkpt lat="59.02304" lon="6.96844">
					<ele>762</ele>
					<time>0001-01-01T00:00:00Z</time>
				</trkpt>
				<trkpt lat="59.02275" lon="6.96808">
					<ele>759</ele>
					<time>0001-01-01T00:00:00Z</time>
				</trkpt>
				<trkpt lat="59.02251" lon="6.96794">
					<ele>757</ele>
					<time>0001-01-01T00:00:00Z</time>
				</trkpt>
				<trkpt lat="59.02214" lon="6.96729">
					<ele>751</ele>
					<time>0001-01-01T00:00:00Z</time>
				</trkpt>
				<trkpt lat="59.02198" lon="6.96692">
					<ele>749</ele>
					<time>0001-01-01T00:00:00Z</time>
				</trkpt>
				<trkpt lat="59.02149" lon="6.96667">
					<ele>744</ele>
					<time>0001-01-01T00:00:00Z</time>
				</trkpt>
				<trkpt lat="59.02139" lon="6.96677">
					<ele>743</ele>
					<time>0001-01-01T00:00:00Z</time>
				</trkpt>
				<trkpt lat="59.02017" lon="6.96877">
					<ele>726</ele>
					<time>0001-01-01T00:00:00Z</time>
				</trkpt>
				<trkpt lat="59.01903" lon="6.96978">
					<ele>717</ele>
					<time>0001-01-01T00:00:00Z</time>
				</trkpt>
				<trkpt lat="59.01852" lon="6.96995">
					<ele>712</ele>
					<time>0001-01-01T00:00:00Z</time>
				</trkpt>
				<trkpt lat="59.01780" lon="6.96941">
					<ele>707</ele>
					<time>0001-01-01T00:00:00Z</time>
				</trkpt>
				<trkpt lat="59.01744" lon="6.96870">
					<ele>703</ele>
					<time>0001-01-01T00:00:00Z</time>
				</trkpt>
				<trkpt lat="59.01642" lon="6.96593">
					<ele>688</ele>
					<time>0001-01-01T00:00:00Z</time>
				</trkpt>
				<trkpt lat="59.01621" lon="6.96503">
					<ele>686</ele>
					<time>0001-01-01T00:00:00Z</time>
				</trkpt>
				<trkpt lat="59.01562" lon="6.96287">
					<ele>676</ele>
					<time>0001-01-01T00:00:00Z</time>
				</trkpt>
				<trkpt lat="59.01554" lon="6.96191">
					<ele>673</ele>
					<time>0001-01-01T00:00:00Z</time>
				</trkpt>
				<trkpt lat="59.01559" lon="6.96060">
					<ele>666</ele>
					<time>0001-01-01T00:00:00Z</time>
				</trkpt>
				<trkpt lat="59.01551" lon="6.95960">
					<ele>660</ele>
					<time>0001-01-01T00:00:00Z</time>
				</trkpt>
				<trkpt lat="59.01539" lon="6.95870">
					<ele>654</ele>
					<time>0001-01-01T00:00:00Z</time>
				</trkpt>
				<trkpt lat="59.01543" lon="6.95684">
					<ele>644</ele>
					<time>0001-01-01T00:00:00Z</time>
				</trkpt>
				<trkpt lat="59.01520" lon="6.95526">
					<ele>636</ele>
					<time>0001-01-01T00:00:00Z</time>
				</trkpt>
				<trkpt lat="59.01461" lon="6.95205">
					<ele>617</ele>
					<time>0001-01-01T00:00:00Z</time>
				</trkpt>
				<trkpt lat="59.01453" lon="6.94993">
					<ele>609</ele>
					<time>0001-01-01T00:00:00Z</time>
				</trkpt>
				<trkpt lat="59.01427" lon="6.94656">
					<ele>598</ele>
					<time>0001-01-01T00:00:00Z</time>
				</trkpt>
				<trkpt lat="59.01347" lon="6.94367">
					<ele>587</ele>
					<time>0001-01-01T00:00:00Z</time>
				</trkpt>
				<trkpt lat="59.01260" lon="6.94042">
					<ele>573</ele>
					<time>0001-01-01T00:00:00Z</time>
				</trkpt>
				<trkpt lat="59.01229" lon="6.93882">
					<ele>571</ele>
					<time>0001-01-01T00:00:00Z</time>
				</trkpt>
				<trkpt lat="59.01225" lon="6.93813">
					<ele>570</ele>
					<time>0001-01-01T00:00:00Z</time>
				</trkpt>
				<trkpt lat="59.01216" lon="6.93799">
					<ele>569</ele>
					<time>0001-01-01T00:00:00Z</time>
				</trkpt>
				<trkpt lat="59.01132" lon="6.93676">
					<ele>569</ele>
					<time>0001-01-01T00:00:00Z</time>
				</trkpt>
				<trkpt lat="59.01022" lon="6.93501">
					<ele>569</ele>
					<time>0001-01-01T00:00:00Z</time>
				</trkpt>
				<trkpt lat="59.00929" lon="6.93325">
					<ele>570</ele>
					<time>0001-01-01T00:00:00Z</time>
				</trkpt>
				<trkpt lat="59.00840" lon="6.93259">
					<ele>568</ele>
					<time>0001-01-01T00:00:00Z</time>
				</trkpt>
				<trkpt lat="59.00685" lon="6.93217">
					<ele>568</ele>
					<time>0001-01-01T00:00:00Z</time>
				</trkpt>
				<trkpt lat="59.00508" lon="6.93190">
					<ele>568</ele>
					<time>0001-01-01T00:00:00Z</time>
				</trkpt>
				<trkpt lat="59.00436" lon="6.93131">
					<ele>568</ele>
					<time>0001-01-01T00:00:00Z</time>
				</trkpt>
				<trkpt lat="59.00420" lon="6.93058">
					<ele>567</ele>
					<time>0001-01-01T00:00:00Z</time>
				</trkpt>
				<trkpt lat="59.00424" lon="6.93027">
					<ele>567</ele>
					<time>0001-01-01T00:00:00Z</time>
				</trkpt>
				<trkpt lat="59.00411" lon="6.92931">
					<ele>565</ele>
					<time>0001-01-01T00:00:00Z</time>
				</trkpt>
				<trkpt lat="59.00341" lon="6.92707">
					<ele>565</ele>
					<time>0001-01-01T00:00:00Z</time>
				</trkpt>
				<trkpt lat="59.00275" lon="6.92594">
					<ele>566</ele>
					<time>0001-01-01T00:00:00Z</time>
				</trkpt>
				<trkpt lat="59.00173" lon="6.92479">
					<ele>569</ele>
					<time>0001-01-01T00:00:00Z</time>
				</trkpt>
				<trkpt lat="59.00115" lon="6.92436">
					<ele>573</ele>
					<time>0001-01-01T00:00:00Z</time>
				</trkpt>
				<trkpt lat="59.00053" lon="6.92354">
					<ele>577</ele>
					<time>0001-01-01T00:00:00Z</time>
				</trkpt>
				<trkpt lat="58.99984" lon="6.92255">
					<ele>580</ele>
					<time>0001-01-01T00:00:00Z</time>
				</trkpt>
				<trkpt lat="58.99907" lon="6.92222">
					<ele>586</ele>
					<time>0001-01-01T00:00:00Z</time>
				</trkpt>
				<trkpt lat="58.99845" lon="6.92170">
					<ele>590</ele>
					<time>0001-01-01T00:00:00Z</time>
				</trkpt>
				<trkpt lat="58.99780" lon="6.92081">
					<ele>594</ele>
					<time>0001-01-01T00:00:00Z</time>
				</trkpt>
				<trkpt lat="58.99696" lon="6.91966">
					<ele>594</ele>
					<time>0001-01-01T00:00:00Z</time>
				</trkpt>
				<trkpt lat="58.99614" lon="6.91902">
					<ele>587</ele>
					<time>0001-01-01T00:00:00Z</time>
				</trkpt>
				<trkpt lat="58.99559" lon="6.91825">
					<ele>584</ele>
					<time>0001-01-01T00:00:00Z</time>
				</trkpt>
				<trkpt lat="58.99542" lon="6.91760">
					<ele>582</ele>
					<time>0001-01-01T00:00:00Z</time>
				</trkpt>
				<trkpt lat="58.99512" lon="6.91503">
					<ele>575</ele>
					<time>0001-01-01T00:00:00Z</time>
				</trkpt>
				<trkpt lat="58.99537" lon="6.91395">
					<ele>577</ele>
					<time>0001-01-01T00:00:00Z</time>
				</trkpt>
				<trkpt lat="58.99573" lon="6.91370">
					<ele>578</ele>
					<time>0001-01-01T00:00:00Z</time>
				</trkpt>
				<trkpt lat="58.99590" lon="6.91365">
					<ele>577</ele>
					<time>0001-01-01T00:00:00Z</time>
				</trkpt>
				<trkpt lat="58.99631" lon="6.91315">
					<ele>574</ele>
					<time>0001-01-01T00:00:00Z</time>
				</trkpt>
				<trkpt lat="58.99699" lon="6.91186">
					<ele>571</ele>
					<time>0001-01-01T00:00:00Z</time>
				</trkpt>
				<trkpt lat="58.99715" lon="6.91169">
					<ele>571</ele>
					<time>0001-01-01T00:00:00Z</time>
				</trkpt>
				<trkpt lat="58.99765" lon="6.91168">
					<ele>570</ele>
					<time>0001-01-01T00:00:00Z</time>
				</trkpt>
				<trkpt lat="58.99840" lon="6.91213">
					<ele>572</ele>
					<time>0001-01-01T00:00:00Z</time>
				</trkpt>
				<trkpt lat="58.99863" lon="6.91219">
					<ele>573</ele>
					<time>0001-01-01T00:00:00Z</time>
				</trkpt>
				<trkpt lat="58.99936" lon="6.91209">
					<ele>578</ele>
					<time>0001-01-01T00:00:00Z</time>
				</trkpt>
				<trkpt lat="58.99977" lon="6.91201">
					<ele>580</ele>
					<time>0001-01-01T00:00:00Z</time>
				</trkpt>
				<trkpt lat="59.00044" lon="6.91153">
					<ele>576</ele>
					<time>0001-01-01T00:00:00Z</time>
				</trkpt>
				<trkpt lat="59.00135" lon="6.91079">
					<ele>576</ele>
					<time>0001-01-01T00:00:00Z</time>
				</trkpt>
				<trkpt lat="59.00164" lon="6.91029">
					<ele>580</ele>
					<time>0001-01-01T00:00:00Z</time>
				</trkpt>
				<trkpt lat="59.00201" lon="6.90963">
					<ele>583</ele>
					<time>0001-01-01T00:00:00Z</time>
				</trkpt>
				<trkpt lat="59.00253" lon="6.90946">
					<ele>588</ele>
					<time>0001-01-01T00:00:00Z</time>
				</trkpt>
				<trkpt lat="59.00280" lon="6.90894">
					<ele>592</ele>
					<time>0001-01-01T00:00:00Z</time>
				</trkpt>
				<trkpt lat="59.00276" lon="6.90797">
					<ele>597</ele>
					<time>0001-01-01T00:00:00Z</time>
				</trkpt>
				<trkpt lat="59.00283" lon="6.90697">
					<ele>603</ele>
					<time>0001-01-01T00:00:00Z</time>
				</trkpt>
				<trkpt lat="59.00314" lon="6.90608">
					<ele>608</ele>
					<time>0001-01-01T00:00:00Z</time>
				</trkpt>
				<trkpt lat="59.00335" lon="6.90518">
					<ele>612</ele>
					<time>0001-01-01T00:00:00Z</time>
				</trkpt>
				<trkpt lat="59.00324" lon="6.90402">
					<ele>614</ele>
					<time>0001-01-01T00:00:00Z</time>
				</trkpt>
				<trkpt lat="59.00283" lon="6.90320">
					<ele>620</ele>
					<time>0001-01-01T00:00:00Z</time>
				</trkpt>
				<trkpt lat="59.00230" lon="6.90242">
					<ele>623</ele>
					<time>0001-01-01T00:00:00Z</time>
				</trkpt>
				<trkpt lat="59.00159" lon="6.90214">
					<ele>624</ele>
					<time>0001-01-01T00:00:00Z</time>
				</trkpt>
				<trkpt lat="59.00119" lon="6.90177">
					<ele>627</ele>
					<time>0001-01-01T00:00:00Z</time>
				</trkpt>
				<trkpt lat="59.00117" lon="6.90105">
					<ele>631</ele>
					<time>0001-01-01T00:00:00Z</time>
				</trkpt>
				<trkpt lat="59.00154" lon="6.90063">
					<ele>632</ele>
					<time>0001-01-01T00:00:00Z</time>
				</trkpt>
				<trkpt lat="59.00177" lon="6.90081">
					<ele>633</ele>
					<time>0001-01-01T00:00:00Z</time>
				</trkpt>
				<trkpt lat="59.00217" lon="6.90171">
					<ele>634</ele>
					<time>0001-01-01T00:00:00Z</time>
				</trkpt>
				<trkpt lat="59.00229" lon="6.90190">
					<ele>634</ele>
					<time>0001-01-01T00:00:00Z</time>
				</trkpt>
				<trkpt lat="59.00296" lon="6.90246">
					<ele>639</ele>
					<time>0001-01-01T00:00:00Z</time>
				</trkpt>
				<trkpt lat="59.00354" lon="6.90250">
					<ele>644</ele>
					<time>0001-01-01T00:00:00Z</time>
				</trkpt>
				<trkpt lat="59.00408" lon="6.90211">
					<ele>649</ele>
					<time>0001-01-01T00:00:00Z</time>
				</trkpt>
				<trkpt lat="59.00474" lon="6.90154">
					<ele>652</ele>
					<time>0001-01-01T00:00:00Z</time>
				</trkpt>
				<trkpt lat="59.00549" lon="6.90097">
					<ele>656</ele>
					<time>0001-01-01T00:00:00Z</time>
				</trkpt>
				<trkpt lat="59.00574" lon="6.90076">
					<ele>658</ele>
					<time>0001-01-01T00:00:00Z</time>
				</trkpt>
				<trkpt lat="59.00583" lon="6.90072">
					<ele>658</ele>
					<time>0001-01-01T00:00:00Z</time>
				</trkpt>
				<trkpt lat="59.00629" lon="6.90117">
					<ele>657</ele>
					<time>0001-01-01T00:00:00Z</time>
				</trkpt>
				<trkpt lat="59.00633" lon="6.90126">
					<ele>657</ele>
					<time>0001-01-01T00:00:00Z</time>
				</trkpt>
				<trkpt lat="59.00681" lon="6.90251">
					<ele>662</ele>
					<time>0001-01-01T00:00:00Z</time>
				</trkpt>
				<trkpt lat="59.00704" lon="6.90347">
					<ele>669</ele>
					<time>0001-01-01T00:00:00Z</time>
				</trkpt>
				<trkpt lat="59.00709" lon="6.90427">
					<ele>674</ele>
					<time>0001-01-01T00:00:00Z</time>
				</trkpt>
				<trkpt lat="59.00732" lon="6.90444">
					<ele>678</ele>
					<time>0001-01-01T00:00:00Z</time>
				</trkpt>
				<trkpt lat="59.00780" lon="6.90395">
					<ele>680</ele>
					<time>0001-01-01T00:00:00Z</time>
				</trkpt>
				<trkpt lat="59.00807" lon="6.90297">
					<ele>684</ele>
					<time>0001-01-01T00:00:00Z</time>
				</trkpt>
				<trkpt lat="59.00811" lon="6.90191">
					<ele>690</ele>
					<time>0001-01-01T00:00:00Z</time>
				</trkpt>
				<trkpt lat="59.00813" lon="6.90111">
					<ele>691</ele>
					<time>0001-01-01T00:00:00Z</time>
				</trkpt>
				<trkpt lat="59.00848" lon="6.90007">
					<ele>690</ele>
					<time>0001-01-01T00:00:00Z</time>
				</trkpt>
				<trkpt lat="59.00880" lon="6.89977">
					<ele>692</ele>
					<time>0001-01-01T00:00:00Z</time>
				</trkpt>
				<trkpt lat="59.00945" lon="6.89939">
					<ele>696</ele>
					<time>0001-01-01T00:00:00Z</time>
				</trkpt>
				<trkpt lat="59.00993" lon="6.89826">
					<ele>703</ele>
					<time>0001-01-01T00:00:00Z</time>
				</trkpt>
				<trkpt lat="59.00999" lon="6.89689">
					<ele>703</ele>
					<time>0001-01-01T00:00:00Z</time>
				</trkpt>
				<trkpt lat="59.01000" lon="6.89679">
					<ele>703</ele>
					<time>0001-01-01T00:00:00Z</time>
				</trkpt>
				<trkpt lat="59.01031" lon="6.89621">
					<ele>705</ele>
					<time>0001-01-01T00:00:00Z</time>
				</trkpt>
				<trkpt lat="59.01035" lon="6.89619">
					<ele>706</ele>
					<time>0001-01-01T00:00:00Z</time>
				</trkpt>
				<trkpt lat="59.01101" lon="6.89582">
					<ele>709</ele>
					<time>0001-01-01T00:00:00Z</time>
				</trkpt>
				<trkpt lat="59.01145" lon="6.89503">
					<ele>708</ele>
					<time>0001-01-01T00:00:00Z</time>
				</trkpt>
				<trkpt lat="59.01179" lon="6.89517">
					<ele>708</ele>
					<time>0001-01-01T00:00:00Z</time>
				</trkpt>
				<trkpt lat="59.01221" lon="6.89542">
					<ele>707</ele>
					<time>0001-01-01T00:00:00Z</time>
				</trkpt>
				<trkpt lat="59.01300" lon="6.89553">
					<ele>699</ele>
					<time>0001-01-01T00:00:00Z</time>
				</trkpt>
				<trkpt lat="59.01348" lon="6.89584">
					<ele>695</ele>
					<time>0001-01-01T00:00:00Z</time>
				</trkpt>
				<trkpt lat="59.01411" lon="6.89672">
					<ele>687</ele>
					<time>0001-01-01T00:00:00Z</time>
				</trkpt>
				<trkpt lat="59.01457" lon="6.89641">
					<ele>681</ele>
					<time>0001-01-01T00:00:00Z</time>
				</trkpt>
				<trkpt lat="59.01450" lon="6.89560">
					<ele>682</ele>
					<time>0001-01-01T00:00:00Z</time>
				</trkpt>
				<trkpt lat="59.01414" lon="6.89306">
					<ele>684</ele>
					<time>0001-01-01T00:00:00Z</time>
				</trkpt>
				<trkpt lat="59.01411" lon="6.89226">
					<ele>684</ele>
					<time>0001-01-01T00:00:00Z</time>
				</trkpt>
				<trkpt lat="59.01425" lon="6.89157">
					<ele>684</ele>
					<time>0001-01-01T00:00:00Z</time>
				</trkpt>
				<trkpt lat="59.01628" lon="6.88817">
					<ele>667</ele>
					<time>0001-01-01T00:00:00Z</time>
				</trkpt>
				<trkpt lat="59.01678" lon="6.88683">
					<ele>671</ele>
					<time>0001-01-01T00:00:00Z</time>
				</trkpt>
				<trkpt lat="59.01698" lon="6.88649">
					<ele>671</ele>
					<time>0001-01-01T00:00:00Z</time>
				</trkpt>
				<trkpt lat="59.01735" lon="6.88623">
					<ele>670</ele>
					<time>0001-01-01T00:00:00Z</time>
				</trkpt>
				<trkpt lat="59.01854" lon="6.88607">
					<ele>662</ele>
					<time>0001-01-01T00:00:00Z</time>
				</trkpt>
				<trkpt lat="59.01939" lon="6.88675">
					<ele>657</ele>
					<time>0001-01-01T00:00:00Z</time>
				</trkpt>
				<trkpt lat="59.01957" lon="6.88726">
					<ele>655</ele>
					<time>0001-01-01T00:00:00Z</time>
				</trkpt>
				<trkpt lat="59.01965" lon="6.88765">
					<ele>655</ele>
					<time>0001-01-01T00:00:00Z</time>
				</trkpt>
				<trkpt lat="59.01982" lon="6.88844">
					<ele>654</ele>
					<time>0001-01-01T00:00:00Z</time>
				</trkpt>
				<trkpt lat="59.02010" lon="6.88911">
					<ele>657</ele>
					<time>0001-01-01T00:00:00Z</time>
				</trkpt>
				<trkpt lat="59.02030" lon="6.88969">
					<ele>659</ele>
					<time>0001-01-01T00:00:00Z</time>
				</trkpt>
				<trkpt lat="59.02061" lon="6.88988">
					<ele>656</ele>
					<time>0001-01-01T00:00:00Z</time>
				</trkpt>
				<trkpt lat="59.02114" lon="6.88986">
					<ele>666</ele>
					<time>0001-01-01T00:00:00Z</time>
				</trkpt>
				<trkpt lat="59.02152" lon="6.88956">
					<ele>673</ele>
					<time>0001-01-01T00:00:00Z</time>
				</trkpt>
				<trkpt lat="59.02188" lon="6.88901">
					<ele>682</ele>
					<time>0001-01-01T00:00:00Z</time>
				</trkpt>
				<trkpt lat="59.02236" lon="6.88852">
					<ele>691</ele>
					<time>0001-01-01T00:00:00Z</time>
				</trkpt>
				<trkpt lat="59.02282" lon="6.88836">
					<ele>692</ele>
					<time>0001-01-01T00:00:00Z</time>
				</trkpt>
				<trkpt lat="59.02323" lon="6.88800">
					<ele>694</ele>
					<time>0001-01-01T00:00:00Z</time>
				</trkpt>
				<trkpt lat="59.02366" lon="6.88735">
					<ele>702</ele>
					<time>0001-01-01T00:00:00Z</time>
				</trkpt>
				<trkpt lat="59.02398" lon="6.88632">
					<ele>713</ele>
					<time>0001-01-01T00:00:00Z</time>
				</trkpt>
				<trkpt lat="59.02434" lon="6.88504">
					<ele>714</ele>
					<time>0001-01-01T00:00:00Z</time>
				</trkpt>
				<trkpt lat="59.02461" lon="6.88339">
					<ele>711</ele>
					<time>0001-01-01T00:00:00Z</time>
				</trkpt>
				<trkpt lat="59.02481" lon="6.88291">
					<ele>709</ele>
					<time>0001-01-01T00:00:00Z</time>
				</trkpt>
				<trkpt lat="59.02590" lon="6.88114">
					<ele>696</ele>
					<time>0001-01-01T00:00:00Z</time>
				</trkpt>
				<trkpt lat="59.02660" lon="6.87982">
					<ele>687</ele>
					<time>0001-01-01T00:00:00Z</time>
				</trkpt>
				<trkpt lat="59.02678" lon="6.87889">
					<ele>684</ele>
					<time>0001-01-01T00:00:00Z</time>
				</trkpt>
				<trkpt lat="59.02682" lon="6.87840">
					<ele>681</ele>
					<time>0001-01-01T00:00:00Z</time>
				</trkpt>
				<trkpt lat="59.02725" lon="6.87580">
					<ele>673</ele>
					<time>0001-01-01T00:00:00Z</time>
				</trkpt>
				<trkpt lat="59.02771" lon="6.87424">
					<ele>677</ele>
					<time>0001-01-01T00:00:00Z</time>
				</trkpt>
				<trkpt lat="59.02829" lon="6.87247">
					<ele>677</ele>
					<time>0001-01-01T00:00:00Z</time>
				</trkpt>
				<trkpt lat="59.02903" lon="6.87073">
					<ele>673</ele>
					<time>0001-01-01T00:00:00Z</time>
				</trkpt>
				<trkpt lat="59.02930" lon="6.87032">
					<ele>672</ele>
					<time>0001-01-01T00:00:00Z</time>
				</trkpt>
				<trkpt lat="59.02958" lon="6.86957">
					<ele>673</ele>
					<time>0001-01-01T00:00:00Z</time>
				</trkpt>
				<trkpt lat="59.02995" lon="6.86808">
					<ele>674</ele>
					<time>0001-01-01T00:00:00Z</time>
				</trkpt>
				<trkpt lat="59.03056" lon="6.86735">
					<ele>677</ele>
					<time>0001-01-01T00:00:00Z</time>
				</trkpt>
				<trkpt lat="59.03060" lon="6.86730">
					<ele>677</ele>
					<time>0001-01-01T00:00:00Z</time>
				</trkpt>
				<trkpt lat="59.03078" lon="6.86683">
					<ele>678</ele>
					<time>0001-01-01T00:00:00Z</time>
				</trkpt>
				<trkpt lat="59.03097" lon="6.86570">
					<ele>677</ele>
					<time>0001-01-01T00:00:00Z</time>
				</trkpt>
				<trkpt lat="59.03151" lon="6.86491">
					<ele>675</ele>
					<time>0001-01-01T00:00:00Z</time>
				</trkpt>
				<trkpt lat="59.03197" lon="6.86408">
					<ele>676</ele>
					<time>0001-01-01T00:00:00Z</time>
				</trkpt>
				<trkpt lat="59.03262" lon="6.86361">
					<ele>681</ele>
					<time>0001-01-01T00:00:00Z</time>
				</trkpt>
				<trkpt lat="59.03360" lon="6.86342">
					<ele>681</ele>
					<time>0001-01-01T00:00:00Z</time>
				</trkpt>
				<trkpt lat="59.03389" lon="6.86322">
					<ele>680</ele>
					<time>0001-01-01T00:00:00Z</time>
				</trkpt>
				<trkpt lat="59.03505" lon="6.86172">
					<ele>680</ele>
					<time>0001-01-01T00:00:00Z</time>
				</trkpt>
				<trkpt lat="59.03551" lon="6.86037">
					<ele>680</ele>
					<time>0001-01-01T00:00:00Z</time>
				</trkpt>
				<trkpt lat="59.03597" lon="6.85891">
					<ele>681</ele>
					<time>0001-01-01T00:00:00Z</time>
				</trkpt>
				<trkpt lat="59.03619" lon="6.85793">
					<ele>684</ele>
					<time>0001-01-01T00:00:00Z</time>
				</trkpt>
				<trkpt lat="59.03646" lon="6.85704">
					<ele>686</ele>
					<time>0001-01-01T00:00:00Z</time>
				</trkpt>
				<trkpt lat="59.03696" lon="6.85563">
					<ele>687</ele>
					<time>0001-01-01T00:00:00Z</time>
				</trkpt>
				<trkpt lat="59.03759" lon="6.85332">
					<ele>686</ele>
					<time>0001-01-01T00:00:00Z</time>
				</trkpt>
				<trkpt lat="59.03793" lon="6.85197">
					<ele>688</ele>
					<time>0001-01-01T00:00:00Z</time>
				</trkpt>
				<trkpt lat="59.03813" lon="6.85075">
					<ele>692</ele>
					<time>0001-01-01T00:00:00Z</time>
				</trkpt>
				<trkpt lat="59.03844" lon="6.84965">
					<ele>691</ele>
					<time>0001-01-01T00:00:00Z</time>
				</trkpt>
				<trkpt lat="59.03849" lon="6.84919">
					<ele>691</ele>
					<time>0001-01-01T00:00:00Z</time>
				</trkpt>
				<trkpt lat="59.03844" lon="6.84766">
					<ele>693</ele>
					<time>0001-01-01T00:00:00Z</time>
				</trkpt>
				<trkpt lat="59.03849" lon="6.84637">
					<ele>695</ele>
					<time>0001-01-01T00:00:00Z</time>
				</trkpt>
				<trkpt lat="59.03871" lon="6.84549">
					<ele>702</ele>
					<time>0001-01-01T00:00:00Z</time>
				</trkpt>
				<trkpt lat="59.03894" lon="6.84454">
					<ele>708</ele>
					<time>0001-01-01T00:00:00Z</time>
				</trkpt>
				<trkpt lat="59.03910" lon="6.84329">
					<ele>713</ele>
					<time>0001-01-01T00:00:00Z</time>
				</trkpt>
				<trkpt lat="59.03917" lon="6.84177">
					<ele>718</ele>
					<time>0001-01-01T00:00:00Z</time>
				</trkpt>
				<trkpt lat="59.03934" lon="6.84079">
					<ele>724</ele>
					<time>0001-01-01T00:00:00Z</time>
				</trkpt>
				<trkpt lat="59.03947" lon="6.83966">
					<ele>726</ele>
					<time>0001-01-01T00:00:00Z</time>
				</trkpt>
				<trkpt lat="59.03928" lon="6.83841">
					<ele>726</ele>
					<time>0001-01-01T00:00:00Z</time>
				</trkpt>
				<trkpt lat="59.03939" lon="6.83678">
					<ele>729</ele>
					<time>0001-01-01T00:00:00Z</time>
				</trkpt>
				<trkpt lat="59.03945" lon="6.83524">
					<ele>733</ele>
					<time>0001-01-01T00:00:00Z</time>
				</trkpt>
				<trkpt lat="59.03923" lon="6.83400">
					<ele>734</ele>
					<time>0001-01-01T00:00:00Z</time>
				</trkpt>
				<trkpt lat="59.03939" lon="6.83272">
					<ele>736</ele>
					<time>0001-01-01T00:00:00Z</time>
				</trkpt>
				<trkpt lat="59.03973" lon="6.83152">
					<ele>739</ele>
					<time>0001-01-01T00:00:00Z</time>
				</trkpt>
				<trkpt lat="59.03986" lon="6.83040">
					<ele>740</ele>
					<time>0001-01-01T00:00:00Z</time>
				</trkpt>
				<trkpt lat="59.04010" lon="6.82967">
					<ele>742</ele>
					<time>0001-01-01T00:00:00Z</time>
				</trkpt>
				<trkpt lat="59.04018" lon="6.82901">
					<ele>747</ele>
					<time>0001-01-01T00:00:00Z</time>
				</trkpt>
				<trkpt lat="59.04028" lon="6.82795">
					<ele>754</ele>
					<time>0001-01-01T00:00:00Z</time>
				</trkpt>
				<trkpt lat="59.04041" lon="6.82680">
					<ele>763</ele>
					<time>0001-01-01T00:00:00Z</time>
				</trkpt>
				<trkpt lat="59.04034" lon="6.82600">
					<ele>771</ele>
					<time>0001-01-01T00:00:00Z</time>
				</trkpt>
				<trkpt lat="59.04037" lon="6.82543">
					<ele>775</ele>
					<time>0001-01-01T00:00:00Z</time>
				</trkpt>
				<trkpt lat="59.04041" lon="6.82483">
					<ele>776</ele>
					<time>0001-01-01T00:00:00Z</time>
				</trkpt>
				<trkpt lat="59.04041" lon="6.82410">
					<ele>784</ele>
					<time>0001-01-01T00:00:00Z</time>
				</trkpt>
				<trkpt lat="59.04043" lon="6.82319">
					<ele>791</ele>
					<time>0001-01-01T00:00:00Z</time>
				</trkpt>
				<trkpt lat="59.04048" lon="6.82245">
					<ele>800</ele>
					<time>0001-01-01T00:00:00Z</time>
				</trkpt>
				<trkpt lat="59.04043" lon="6.82158">
					<ele>803</ele>
					<time>0001-01-01T00:00:00Z</time>
				</trkpt>
				<trkpt lat="59.04051" lon="6.82064">
					<ele>812</ele>
					<time>0001-01-01T00:00:00Z</time>
				</trkpt>
				<trkpt lat="59.04066" lon="6.82012">
					<ele>812</ele>
					<time>0001-01-01T00:00:00Z</time>
				</trkpt>
				<trkpt lat="59.04089" lon="6.81961">
					<ele>813</ele>
					<time>0001-01-01T00:00:00Z</time>
				</trkpt>
				<trkpt lat="59.04109" lon="6.81875">
					<ele>818</ele>
					<time>0001-01-01T00:00:00Z</time>
				</trkpt>
				<trkpt lat="59.04128" lon="6.81788">
					<ele>822</ele>
					<time>0001-01-01T00:00:00Z</time>
				</trkpt>
				<trkpt lat="59.04124" lon="6.81673">
					<ele>823</ele>
					<time>0001-01-01T00:00:00Z</time>
				</trkpt>
				<trkpt lat="59.04105" lon="6.81613">
					<ele>823</ele>
					<time>0001-01-01T00:00:00Z</time>
				</trkpt>
				<trkpt lat="59.04107" lon="6.81536">
					<ele>823</ele>
					<time>0001-01-01T00:00:00Z</time>
				</trkpt>
				<trkpt lat="59.04128" lon="6.81457">
					<ele>827</ele>
					<time>0001-01-01T00:00:00Z</time>
				</trkpt>
				<trkpt lat="59.04148" lon="6.81384">
					<ele>829</ele>
					<time>0001-01-01T00:00:00Z</time>
				</trkpt>
				<trkpt lat="59.04163" lon="6.81322">
					<ele>832</ele>
					<time>0001-01-01T00:00:00Z</time>
				</trkpt>
				<trkpt lat="59.04169" lon="6.81225">
					<ele>839</ele>
					<time>0001-01-01T00:00:00Z</time>
				</trkpt>
				<trkpt lat="59.04181" lon="6.81123">
					<ele>845</ele>
					<time>0001-01-01T00:00:00Z</time>
				</trkpt>
				<trkpt lat="59.04193" lon="6.81004">
					<ele>848</ele>
					<time>0001-01-01T00:00:00Z</time>
				</trkpt>
				<trkpt lat="59.04188" lon="6.80846">
					<ele>852</ele>
					<time>0001-01-01T00:00:00Z</time>
				</trkpt>
				<trkpt lat="59.04198" lon="6.80688">
					<ele>856</ele>
					<time>0001-01-01T00:00:00Z</time>
				</trkpt>
				<trkpt lat="59.04219" lon="6.80530">
					<ele>859</ele>
					<time>0001-01-01T00:00:00Z</time>
				</trkpt>
				<trkpt lat="59.04207" lon="6.80386">
					<ele>861</ele>
					<time>0001-01-01T00:00:00Z</time>
				</trkpt>
				<trkpt lat="59.04177" lon="6.80288">
					<ele>867</ele>
					<time>0001-01-01T00:00:00Z</time>
				</trkpt>
				<trkpt lat="59.04158" lon="6.80172">
					<ele>871</ele>
					<time>0001-01-01T00:00:00Z</time>
				</trkpt>
				<trkpt lat="59.04152" lon="6.80027">
					<ele>875</ele>
					<time>0001-01-01T00:00:00Z</time>
				</trkpt>
				<trkpt lat="59.04146" lon="6.79939">
					<ele>876</ele>
					<time>0001-01-01T00:00:00Z</time>
				</trkpt>
				<trkpt lat="59.04119" lon="6.79793">
					<ele>878</ele>
					<time>0001-01-01T00:00:00Z</time>
				</trkpt>
				<trkpt lat="59.04108" lon="6.79665">
					<ele>882</ele>
					<time>0001-01-01T00:00:00Z</time>
				</trkpt>
				<trkpt lat="59.04085" lon="6.79517">
					<ele>886</ele>
					<time>0001-01-01T00:00:00Z</time>
				</trkpt>
				<trkpt lat="59.04067" lon="6.79320">
					<ele>888</ele>
					<time>0001-01-01T00:00:00Z</time>
				</trkpt>
				<trkpt lat="59.04058" lon="6.79214">
					<ele>893</ele>
					<time>0001-01-01T00:00:00Z</time>
				</trkpt>
				<trkpt lat="59.04057" lon="6.79133">
					<ele>898</ele>
					<time>0001-01-01T00:00:00Z</time>
				</trkpt>
				<trkpt lat="59.04052" lon="6.79060">
					<ele>898</ele>
					<time>0001-01-01T00:00:00Z</time>
				</trkpt>
				<trkpt lat="59.04046" lon="6.78973">
					<ele>902</ele>
					<time>0001-01-01T00:00:00Z</time>
				</trkpt>
				<trkpt lat="59.04046" lon="6.78966">
					<ele>902</ele>
					<time>0001-01-01T00:00:00Z</time>
				</trkpt>
				<trkpt lat="59.04061" lon="6.78858">
					<ele>898</ele>
					<time>0001-01-01T00:00:00Z</time>
				</trkpt>
				<trkpt lat="59.04047" lon="6.78630">
					<ele>892</ele>
					<time>0001-01-01T00:00:00Z</time>
				</trkpt>
				<trkpt lat="59.04034" lon="6.78481">
					<ele>890</ele>
					<time>0001-01-01T00:00:00Z</time>
				</trkpt>
				<trkpt lat="59.04042" lon="6.78394">
					<ele>889</ele>
					<time>0001-01-01T00:00:00Z</time>
				</trkpt>
				<trkpt lat="59.04074" lon="6.78251">
					<ele>891</ele>
					<time>0001-01-01T00:00:00Z</time>
				</trkpt>
				<trkpt lat="59.04060" lon="6.78162">
					<ele>889</ele>
					<time>0001-01-01T00:00:00Z</time>
				</trkpt>
				<trkpt lat="59.04022" lon="6.78154">
					<ele>890</ele>
					<time>0001-01-01T00:00:00Z</time>
				</trkpt>
				<trkpt lat="59.03979" lon="6.78112">
					<ele>893</ele>
					<time>0001-01-01T00:00:00Z</time>
				</trkpt>
				<trkpt lat="59.03975" lon="6.78090">
					<ele>892</ele>
					<time>0001-01-01T00:00:00Z</time>
				</trkpt>
				<trkpt lat="59.03962" lon="6.77996">
					<ele>887</ele>
					<time>0001-01-01T00:00:00Z</time>
				</trkpt>
				<trkpt lat="59.03921" lon="6.77932">
					<ele>886</ele>
					<time>0001-01-01T00:00:00Z</time>
				</trkpt>
				<trkpt lat="59.03913" lon="6.77930">
					<ele>886</ele>
					<time>0001-01-01T00:00:00Z</time>
				</trkpt>
				<trkpt lat="59.03826" lon="6.77955">
					<ele>881</ele>
					<time>0001-01-01T00:00:00Z</time>
				</trkpt>
				<trkpt lat="59.03778" lon="6.77929">
					<ele>886</ele>
					<time>0001-01-01T00:00:00Z</time>
				</trkpt>
				<trkpt lat="59.03775" lon="6.77920">
					<ele>886</ele>
					<time>0001-01-01T00:00:00Z</time>
				</trkpt>
				<trkpt lat="59.03757" lon="6.77812">
					<ele>892</ele>
					<time>0001-01-01T00:00:00Z</time>
				</trkpt>
				<trkpt lat="59.03756" lon="6.77774">
					<ele>892</ele>
					<time>0001-01-01T00:00:00Z</time>
				</trkpt>
				<trkpt lat="59.03752" lon="6.77716">
					<ele>891</ele>
					<time>0001-01-01T00:00:00Z</time>
				</trkpt>
				<trkpt lat="59.03736" lon="6.77556">
					<ele>889</ele>
					<time>0001-01-01T00:00:00Z</time>
				</trkpt>
				<trkpt lat="59.03717" lon="6.77468">
					<ele>888</ele>
					<time>0001-01-01T00:00:00Z</time>
				</trkpt>
				<trkpt lat="59.03697" lon="6.77417">
					<ele>886</ele>
					<time>0001-01-01T00:00:00Z</time>
				</trkpt>
				<trkpt lat="59.03679" lon="6.77381">
					<ele>885</ele>
					<time>0001-01-01T00:00:00Z</time>
				</trkpt>
				<trkpt lat="59.03672" lon="6.77275">
					<ele>885</ele>
					<time>0001-01-01T00:00:00Z</time>
				</trkpt>
				<trkpt lat="59.03699" lon="6.77058">
					<ele>885</ele>
					<time>0001-01-01T00:00:00Z</time>
				</trkpt>
				<trkpt lat="59.03672" lon="6.76892">
					<ele>885</ele>
					<time>0001-01-01T00:00:00Z</time>
				</trkpt>
				<trkpt lat="59.03667" lon="6.76812">
					<ele>885</ele>
					<time>0001-01-01T00:00:00Z</time>
				</trkpt>
				<trkpt lat="59.03644" lon="6.76700">
					<ele>885</ele>
					<time>0001-01-01T00:00:00Z</time>
				</trkpt>
				<trkpt lat="59.03642" lon="6.76648">
					<ele>885</ele>
					<time>0001-01-01T00:00:00Z</time>
				</trkpt>
				<trkpt lat="59.03662" lon="6.76434">
					<ele>885</ele>
					<time>0001-01-01T00:00:00Z</time>
				</trkpt>
				<trkpt lat="59.03698" lon="6.76297">
					<ele>887</ele>
					<time>0001-01-01T00:00:00Z</time>
				</trkpt>
				<trkpt lat="59.03701" lon="6.76198">
					<ele>888</ele>
					<time>0001-01-01T00:00:00Z</time>
				</trkpt>
				<trkpt lat="59.03710" lon="6.76160">
					<ele>888</ele>
					<time>0001-01-01T00:00:00Z</time>
				</trkpt>
				<trkpt lat="59.03747" lon="6.76065">
					<ele>887</ele>
					<time>0001-01-01T00:00:00Z</time>
				</trkpt>
				<trkpt lat="59.03778" lon="6.76028">
					<ele>886</ele>
					<time>0001-01-01T00:00:00Z</time>
				</trkpt>
				<trkpt lat="59.03829" lon="6.75989">
					<ele>886</ele>
					<time>0001-01-01T00:00:00Z</time>
				</trkpt>
				<trkpt lat="59.03865" lon="6.75903">
					<ele>889</ele>
					<time>0001-01-01T00:00:00Z</time>
				</trkpt>
				<trkpt lat="59.03867" lon="6.75815">
					<ele>891</ele>
					<time>0001-01-01T00:00:00Z</time>
				</trkpt>
				<trkpt lat="59.03863" lon="6.75694">
					<ele>896</ele>
					<time>0001-01-01T00:00:00Z</time>
				</trkpt>
				<trkpt lat="59.03871" lon="6.75609">
					<ele>900</ele>
					<time>0001-01-01T00:00:00Z</time>
				</trkpt>
				<trkpt lat="59.03912" lon="6.75536">
					<ele>902</ele>
					<time>0001-01-01T00:00:00Z</time>
				</trkpt>
				<trkpt lat="59.03961" lon="6.75483">
					<ele>903</ele>
					<time>0001-01-01T00:00:00Z</time>
				</trkpt>
				<trkpt lat="59.03982" lon="6.75374">
					<ele>899</ele>
					<time>0001-01-01T00:00:00Z</time>
				</trkpt>
				<trkpt lat="59.03961" lon="6.75309">
					<ele>895</ele>
					<time>0001-01-01T00:00:00Z</time>
				</trkpt>
				<trkpt lat="59.03926" lon="6.75233">
					<ele>889</ele>
					<time>0001-01-01T00:00:00Z</time>
				</trkpt>
				<trkpt lat="59.03878" lon="6.75225">
					<ele>887</ele>
					<time>0001-01-01T00:00:00Z</time>
				</trkpt>
				<trkpt lat="59.03868" lon="6.75233">
					<ele>888</ele>
					<time>0001-01-01T00:00:00Z</time>
				</trkpt>
				<trkpt lat="59.03830" lon="6.75278">
					<ele>894</ele>
					<time>0001-01-01T00:00:00Z</time>
				</trkpt>
				<trkpt lat="59.03790" lon="6.75298">
					<ele>899</ele>
					<time>0001-01-01T00:00:00Z</time>
				</trkpt>
				<trkpt lat="59.03759" lon="6.75266">
					<ele>903</ele>
					<time>0001-01-01T00:00:00Z</time>
				</trkpt>
				<trkpt lat="59.03735" lon="6.75211">
					<ele>907</ele>
					<time>0001-01-01T00:00:00Z</time>
				</trkpt>
				<trkpt lat="59.03711" lon="6.75112">
					<ele>913</ele>
					<time>0001-01-01T00:00:00Z</time>
				</trkpt>
				<trkpt lat="59.03696" lon="6.75029">
					<ele>918</ele>
					<time>0001-01-01T00:00:00Z</time>
				</trkpt>
				<trkpt lat="59.03690" lon="6.74928">
					<ele>923</ele>
					<time>0001-01-01T00:00:00Z</time>
				</trkpt>
				<trkpt lat="59.03677" lon="6.74811">
					<ele>925</ele>
					<time>0001-01-01T00:00:00Z</time>
				</trkpt>
				<trkpt lat="59.03638" lon="6.74689">
					<ele>924</ele>
					<time>0001-01-01T00:00:00Z</time>
				</trkpt>
				<trkpt lat="59.03590" lon="6.74611">
					<ele>929</ele>
					<time>0001-01-01T00:00:00Z</time>
				</trkpt>
				<trkpt lat="59.03523" lon="6.74493">
					<ele>936</ele>
					<time>0001-01-01T00:00:00Z</time>
				</trkpt>
				<trkpt lat="59.03495" lon="6.74353">
					<ele>938</ele>
					<time>0001-01-01T00:00:00Z</time>
				</trkpt>
				<trkpt lat="59.03488" lon="6.74258">
					<ele>938</ele>
					<time>0001-01-01T00:00:00Z</time>
				</trkpt>
				<trkpt lat="59.03464" lon="6.74127">
					<ele>935</ele>
					<time>0001-01-01T00:00:00Z</time>
				</trkpt>
				<trkpt lat="59.03442" lon="6.73961">
					<ele>935</ele>
					<time>0001-01-01T00:00:00Z</time>
				</trkpt>
				<trkpt lat="59.03413" lon="6.73724">
					<ele>931</ele>
					<time>0001-01-01T00:00:00Z</time>
				</trkpt>
				<trkpt lat="59.03411" lon="6.73498">
					<ele>932</ele>
					<time>0001-01-01T00:00:00Z</time>
				</trkpt>
				<trkpt lat="59.03432" lon="6.73294">
					<ele>927</ele>
					<time>0001-01-01T00:00:00Z</time>
				</trkpt>
				<trkpt lat="59.03439" lon="6.73088">
					<ele>919</ele>
					<time>0001-01-01T00:00:00Z</time>
				</trkpt>
				<trkpt lat="59.03470" lon="6.72933">
					<ele>920</ele>
					<time>0001-01-01T00:00:00Z</time>
				</trkpt>
				<trkpt lat="59.03476" lon="6.72838">
					<ele>921</ele>
					<time>0001-01-01T00:00:00Z</time>
				</trkpt>
				<trkpt lat="59.03481" lon="6.72751">
					<ele>921</ele>
					<time>0001-01-01T00:00:00Z</time>
				</trkpt>
				<trkpt lat="59.03469" lon="6.72664">
					<ele>920</ele>
					<time>0001-01-01T00:00:00Z</time>
				</trkpt>
				<trkpt lat="59.03461" lon="6.72638">
					<ele>919</ele>
					<time>0001-01-01T00:00:00Z</time>
				</trkpt>
				<trkpt lat="59.03446" lon="6.72512">
					<ele>920</ele>
					<time>0001-01-01T00:00:00Z</time>
				</trkpt>
				<trkpt lat="59.03447" lon="6.72485">
					<ele>920</ele>
					<time>0001-01-01T00:00:00Z</time>
				</trkpt>
				<trkpt lat="59.03468" lon="6.72346">
					<ele>923</ele>
					<time>0001-01-01T00:00:00Z</time>
				</trkpt>
				<trkpt lat="59.03471" lon="6.72246">
					<ele>927</ele>
					<time>0001-01-01T00:00:00Z</time>
				</trkpt>
				<trkpt lat="59.03503" lon="6.72149">
					<ele>929</ele>
					<time>0001-01-01T00:00:00Z</time>
				</trkpt>
				<trkpt lat="59.03509" lon="6.72132">
					<ele>929</ele>
					<time>0001-01-01T00:00:00Z</time>
				</trkpt>
				<trkpt lat="59.03525" lon="6.72009">
					<ele>931</ele>
					<time>0001-01-01T00:00:00Z</time>
				</trkpt>
				<trkpt lat="59.03567" lon="6.71940">
					<ele>928</ele>
					<time>0001-01-01T00:00:00Z</time>
				</trkpt>
				<trkpt lat="59.03598" lon="6.71912">
					<ele>925</ele>
					<time>0001-01-01T00:00:00Z</time>
				</trkpt>
				<trkpt lat="59.03641" lon="6.71835">
					<ele>921</ele>
					<time>0001-01-01T00:00:00Z</time>
				</trkpt>
				<trkpt lat="59.03665" lon="6.71807">
					<ele>918</ele>
					<time>0001-01-01T00:00:00Z</time>
				</trkpt>
				<trkpt lat="59.03676" lon="6.71771">
					<ele>915</ele>
					<time>0001-01-01T00:00:00Z</time>
				</trkpt>
				<trkpt lat="59.03676" lon="6.71770">
					<ele>915</ele>
					<time>0001-01-01T00:00:00Z</time>
				</trkpt>
				<trkpt lat="59.03669" lon="6.71761">
					<ele>914</ele>
					<time>0001-01-01T00:00:00Z</time>
				</trkpt>
				<trkpt lat="59.03620" lon="6.71736">
					<ele>909</ele>
					<time>0001-01-01T00:00:00Z</time>
				</trkpt>
				<trkpt lat="59.03593" lon="6.71658">
					<ele>903</ele>
					<time>0001-01-01T00:00:00Z</time>
				</trkpt>
				<trkpt lat="59.03595" lon="6.71636">
					<ele>903</ele>
					<time>0001-01-01T00:00:00Z</time>
				</trkpt>
				<trkpt lat="59.03572" lon="6.71515">
					<ele>898</ele>
					<time>0001-01-01T00:00:00Z</time>
				</trkpt>
				<trkpt lat="59.03562" lon="6.71363">
					<ele>890</ele>
					<time>0001-01-01T00:00:00Z</time>
				</trkpt>
				<trkpt lat="59.03601" lon="6.71266">
					<ele>887</ele>
					<time>0001-01-01T00:00:00Z</time>
				</trkpt>
				<trkpt lat="59.03646" lon="6.71258">
					<ele>881</ele>
					<time>0001-01-01T00:00:00Z</time>
				</trkpt>
				<trkpt lat="59.03697" lon="6.71256">
					<ele>874</ele>
					<time>0001-01-01T00:00:00Z</time>
				</trkpt>
				<trkpt lat="59.03710" lon="6.71182">
					<ele>874</ele>
					<time>0001-01-01T00:00:00Z</time>
				</trkpt>
				<trkpt lat="59.03711" lon="6.71142">
					<ele>874</ele>
					<time>0001-01-01T00:00:00Z</time>
				</trkpt>
				<trkpt lat="59.03717" lon="6.71089">
					<ele>875</ele>
					<time>0001-01-01T00:00:00Z</time>
				</trkpt>
				<trkpt lat="59.03708" lon="6.70998">
					<ele>876</ele>
					<time>0001-01-01T00:00:00Z</time>
				</trkpt>
				<trkpt lat="59.03700" lon="6.70969">
					<ele>874</ele>
					<time>0001-01-01T00:00:00Z</time>
				</trkpt>
				<trkpt lat="59.03691" lon="6.70797">
					<ele>867</ele>
					<time>0001-01-01T00:00:00Z</time>
				</trkpt>
				<trkpt lat="59.03672" lon="6.70648">
					<ele>859</ele>
					<time>0001-01-01T00:00:00Z</time>
				</trkpt>
				<trkpt lat="59.03667" lon="6.70514">
					<ele>859</ele>
					<time>0001-01-01T00:00:00Z</time>
				</trkpt>
				<trkpt lat="59.03642" lon="6.70464">
					<ele>863</ele>
					<time>0001-01-01T00:00:00Z</time>
				</trkpt>
				<trkpt lat="59.03609" lon="6.70411">
					<ele>869</ele>
					<time>0001-01-01T00:00:00Z</time>
				</trkpt>
				<trkpt lat="59.03585" lon="6.70357">
					<ele>872</ele>
					<time>0001-01-01T00:00:00Z</time>
				</trkpt>
				<trkpt lat="59.03567" lon="6.70301">
					<ele>871</ele>
					<time>0001-01-01T00:00:00Z</time>
				</trkpt>
				<trkpt lat="59.03559" lon="6.70249">
					<ele>875</ele>
					<time>0001-01-01T00:00:00Z</time>
				</trkpt>
				<trkpt lat="59.03552" lon="6.70198">
					<ele>877</ele>
					<time>0001-01-01T00:00:00Z</time>
				</trkpt>
				<trkpt lat="59.03534" lon="6.70151">
					<ele>883</ele>
					<time>0001-01-01T00:00:00Z</time>
				</trkpt>
				<trkpt lat="59.03518" lon="6.70060">
					<ele>888</ele>
					<time>0001-01-01T00:00:00Z</time>
				</trkpt>
				<trkpt lat="59.03511" lon="6.69930">
					<ele>881</ele>
					<time>0001-01-01T00:00:00Z</time>
				</trkpt>
				<trkpt lat="59.03486" lon="6.69731">
					<ele>876</ele>
					<time>0001-01-01T00:00:00Z</time>
				</trkpt>
				<trkpt lat="59.03479" lon="6.69666">
					<ele>875</ele>
					<time>0001-01-01T00:00:00Z</time>
				</trkpt>
				<trkpt lat="59.03499" lon="6.69565">
					<ele>870</ele>
					<time>0001-01-01T00:00:00Z</time>
				</trkpt>
				<trkpt lat="59.03519" lon="6.69515">
					<ele>866</ele>
					<time>0001-01-01T00:00:00Z</time>
				</trkpt>
				<trkpt lat="59.03531" lon="6.69428">
					<ele>861</ele>
					<time>0001-01-01T00:00:00Z</time>
				</trkpt>
				<trkpt lat="59.03538" lon="6.69307">
					<ele>854</ele>
					<time>0001-01-01T00:00:00Z</time>
				</trkpt>
				<trkpt lat="59.03535" lon="6.69160">
					<ele>844</ele>
					<time>0001-01-01T00:00:00Z</time>
				</trkpt>
				<trkpt lat="59.03536" lon="6.69116">
					<ele>841</ele>
					<time>0001-01-01T00:00:00Z</time>
				</trkpt>
				<trkpt lat="59.03496" lon="6.69029">
					<ele>833</ele>
					<time>0001-01-01T00:00:00Z</time>
				</trkpt>
				<trkpt lat="59.03476" lon="6.69011">
					<ele>831</ele>
					<time>0001-01-01T00:00:00Z</time>
				</trkpt>
				<trkpt lat="59.03453" lon="6.68925">
					<ele>826</ele>
					<time>0001-01-01T00:00:00Z</time>
				</trkpt>
				<trkpt lat="59.03480" lon="6.68898">
					<ele>825</ele>
					<time>0001-01-01T00:00:00Z</time>
				</trkpt>
				<trkpt lat="59.03553" lon="6.68778">
					<ele>821</ele>
					<time>0001-01-01T00:00:00Z</time>
				</trkpt>
				<trkpt lat="59.03606" lon="6.68558">
					<ele>819</ele>
					<time>0001-01-01T00:00:00Z</time>
				</trkpt>
				<trkpt lat="59.03640" lon="6.68506">
					<ele>818</ele>
					<time>0001-01-01T00:00:00Z</time>
				</trkpt>
				<trkpt lat="59.03669" lon="6.68481">
					<ele>819</ele>
					<time>0001-01-01T00:00:00Z</time>
				</trkpt>
				<trkpt lat="59.03695" lon="6.68410">
					<ele>822</ele>
					<time>0001-01-01T00:00:00Z</time>
				</trkpt>
				<trkpt lat="59.03695" lon="6.68383">
					<ele>823</ele>
					<time>0001-01-01T00:00:00Z</time>
				</trkpt>
				<trkpt lat="59.03694" lon="6.68322">
					<ele>823</ele>
					<time>0001-01-01T00:00:00Z</time>
				</trkpt>
				<trkpt lat="59.03713" lon="6.68265">
					<ele>824</ele>
					<time>0001-01-01T00:00:00Z</time>
				</trkpt>
				<trkpt lat="59.03732" lon="6.68240">
					<ele>825</ele>
					<time>0001-01-01T00:00:00Z</time>
				</trkpt>
				<trkpt lat="59.03743" lon="6.68151">
					<ele>825</ele>
					<time>0001-01-01T00:00:00Z</time>
				</trkpt>
				<trkpt lat="59.03698" lon="6.67954">
					<ele>827</ele>
					<time>0001-01-01T00:00:00Z</time>
				</trkpt>
				<trkpt lat="59.03679" lon="6.67844">
					<ele>830</ele>
					<time>0001-01-01T00:00:00Z</time>
				</trkpt>
				<trkpt lat="59.03683" lon="6.67804">
					<ele>830</ele>
					<time>0001-01-01T00:00:00Z</time>
				</trkpt>
				<trkpt lat="59.03705" lon="6.67744">
					<ele>829</ele>
					<time>0001-01-01T00:00:00Z</time>
				</trkpt>
				<trkpt lat="59.03709" lon="6.67647">
					<ele>831</ele>
					<time>0001-01-01T00:00:00Z</time>
				</trkpt>
				<trkpt lat="59.03706" lon="6.67640">
					<ele>832</ele>
					<time>0001-01-01T00:00:00Z</time>
				</trkpt>
				<trkpt lat="59.03678" lon="6.67590">
					<ele>835</ele>
					<time>0001-01-01T00:00:00Z</time>
				</trkpt>
				<trkpt lat="59.03658" lon="6.67529">
					<ele>839</ele>
					<time>0001-01-01T00:00:00Z</time>
				</trkpt>
				<trkpt lat="59.03645" lon="6.67440">
					<ele>844</ele>
					<time>0001-01-01T00:00:00Z</time>
				</trkpt>
				<trkpt lat="59.03603" lon="6.67353">
					<ele>851</ele>
					<time>0001-01-01T00:00:00Z</time>
				</trkpt>
				<trkpt lat="59.03549" lon="6.67289">
					<ele>853</ele>
					<time>0001-01-01T00:00:00Z</time>
				</trkpt>
				<trkpt lat="59.03469" lon="6.67228">
					<ele>854</ele>
					<time>0001-01-01T00:00:00Z</time>
				</trkpt>
				<trkpt lat="59.03447" lon="6.67185">
					<ele>856</ele>
					<time>0001-01-01T00:00:00Z</time>
				</trkpt>
				<trkpt lat="59.03423" lon="6.67109">
					<ele>860</ele>
					<time>0001-01-01T00:00:00Z</time>
				</trkpt>
				<trkpt lat="59.03399" lon="6.67067">
					<ele>865</ele>
					<time>0001-01-01T00:00:00Z</time>
				</trkpt>
				<trkpt lat="59.03372" lon="6.67042">
					<ele>868</ele>
					<time>0001-01-01T00:00:00Z</time>
				</trkpt>
				<trkpt lat="59.03328" lon="6.67034">
					<ele>874</ele>
					<time>0001-01-01T00:00:00Z</time>
				</trkpt>
				<trkpt lat="59.03325" lon="6.67034">
					<ele>875</ele>
					<time>0001-01-01T00:00:00Z</time>
				</trkpt>
				<trkpt lat="59.03315" lon="6.67031">
					<ele>876</ele>
					<time>0001-01-01T00:00:00Z</time>
				</trkpt>
				<trkpt lat="59.03275" lon="6.66975">
					<ele>881</ele>
					<time>0001-01-01T00:00:00Z</time>
				</trkpt>
				<trkpt lat="59.03239" lon="6.66877">
					<ele>890</ele>
					<time>0001-01-01T00:00:00Z</time>
				</trkpt>
				<trkpt lat="59.03201" lon="6.66819">
					<ele>897</ele>
					<time>0001-01-01T00:00:00Z</time>
				</trkpt>
				<trkpt lat="59.03154" lon="6.66750">
					<ele>898</ele>
					<time>0001-01-01T00:00:00Z</time>
				</trkpt>
				<trkpt lat="59.03116" lon="6.66636">
					<ele>893</ele>
					<time>0001-01-01T00:00:00Z</time>
				</trkpt>
				<trkpt lat="59.03053" lon="6.66496">
					<ele>889</ele>
					<time>0001-01-01T00:00:00Z</time>
				</trkpt>
				<trkpt lat="59.02989" lon="6.66276">
					<ele>885</ele>
					<time>0001-01-01T00:00:00Z</time>
				</trkpt>
				<trkpt lat="59.02921" lon="6.66133">
					<ele>884</ele>
					<time>0001-01-01T00:00:00Z</time>
				</trkpt>
				<trkpt lat="59.02907" lon="6.66113">
					<ele>884</ele>
					<time>0001-01-01T00:00:00Z</time>
				</trkpt>
				<trkpt lat="59.02885" lon="6.66024">
					<ele>882</ele>
					<time>0001-01-01T00:00:00Z</time>
				</trkpt>
				<trkpt lat="59.02881" lon="6.65957">
					<ele>881</ele>
					<time>0001-01-01T00:00:00Z</time>
				</trkpt>
				<trkpt lat="59.02837" lon="6.65883">
					<ele>877</ele>
					<time>0001-01-01T00:00:00Z</time>
				</trkpt>
				<trkpt lat="59.02794" lon="6.65849">
					<ele>874</ele>
					<time>0001-01-01T00:00:00Z</time>
				</trkpt>
				<trkpt lat="59.02794" lon="6.65806">
					<ele>873</ele>
					<time>0001-01-01T00:00:00Z</time>
				</trkpt>
				<trkpt lat="59.02802" lon="6.65802">
					<ele>872</ele>
					<time>0001-01-01T00:00:00Z</time>
				</trkpt>
				<trkpt lat="59.02879" lon="6.65816">
					<ele>863</ele>
					<time>0001-01-01T00:00:00Z</time>
				</trkpt>
				<trkpt lat="59.02905" lon="6.65790">
					<ele>861</ele>
					<time>0001-01-01T00:00:00Z</time>
				</trkpt>
				<trkpt lat="59.02914" lon="6.65768">
					<ele>860</ele>
					<time>0001-01-01T00:00:00Z</time>
				</trkpt>
				<trkpt lat="59.02943" lon="6.65735">
					<ele>857</ele>
					<time>0001-01-01T00:00:00Z</time>
				</trkpt>
				<trkpt lat="59.03047" lon="6.65692">
					<ele>843</ele>
					<time>0001-01-01T00:00:00Z</time>
				</trkpt>
				<trkpt lat="59.03072" lon="6.65689">
					<ele>839</ele>
					<time>0001-01-01T00:00:00Z</time>
				</trkpt>
				<trkpt lat="59.03073" lon="6.65689">
					<ele>841</ele>
					<time>0001-01-01T00:00:00Z</time>
				</trkpt>
				<trkpt lat="59.03072" lon="6.65694">
					<ele>838</ele>
					<time>0001-01-01T00:00:00Z</time>
				</trkpt>
				<trkpt lat="59.03088" lon="6.65693">
					<ele>836</ele>
					<time>0001-01-01T00:00:00Z</time>
				</trkpt>
				<trkpt lat="59.03153" lon="6.65660">
					<ele>832</ele>
					<time>0001-01-01T00:00:00Z</time>
				</trkpt>
				<trkpt lat="59.03197" lon="6.65630">
					<ele>829</ele>
					<time>0001-01-01T00:00:00Z</time>
				</trkpt>
				<trkpt lat="59.03226" lon="6.65576">
					<ele>824</ele>
					<time>0001-01-01T00:00:00Z</time>
				</trkpt>
				<trkpt lat="59.03240" lon="6.65518">
					<ele>821</ele>
					<time>0001-01-01T00:00:00Z</time>
				</trkpt>
				<trkpt lat="59.03258" lon="6.65468">
					<ele>817</ele>
					<time>0001-01-01T00:00:00Z</time>
				</trkpt>
				<trkpt lat="59.03257" lon="6.65466">
					<ele>814</ele>
					<time>0001-01-01T00:00:00Z</time>
				</trkpt>
				<trkpt lat="59.03257" lon="6.65466">
					<ele>816</ele>
					<time>0001-01-01T00:00:00Z</time>
				</trkpt>
				<trkpt lat="59.03270" lon="6.65405">
					<ele>811</ele>
					<time>0001-01-01T00:00:00Z</time>
				</trkpt>
				<trkpt lat="59.03336" lon="6.65309">
					<ele>800</ele>
					<time>0001-01-01T00:00:00Z</time>
				</trkpt>
				<trkpt lat="59.03346" lon="6.65298">
					<ele>798</ele>
					<time>0001-01-01T00:00:00Z</time>
				</trkpt>
				<trkpt lat="59.03474" lon="6.65252">
					<ele>782</ele>
					<time>0001-01-01T00:00:00Z</time>
				</trkpt>
				<trkpt lat="59.03502" lon="6.65249">
					<ele>778</ele>
					<time>0001-01-01T00:00:00Z</time>
				</trkpt>
				<trkpt lat="59.03665" lon="6.65178">
					<ele>763</ele>
					<time>0001-01-01T00:00:00Z</time>
				</trkpt>
				<trkpt lat="59.03741" lon="6.65169">
					<ele>758</ele>
					<time>0001-01-01T00:00:00Z</time>
				</trkpt>
				<trkpt lat="59.03871" lon="6.65157">
					<ele>748</ele>
					<time>0001-01-01T00:00:00Z</time>
				</trkpt>
				<trkpt lat="59.03932" lon="6.65116">
					<ele>742</ele>
					<time>0001-01-01T00:00:00Z</time>
				</trkpt>
				<trkpt lat="59.04008" lon="6.65101">
					<ele>735</ele>
					<time>0001-01-01T00:00:00Z</time>
				</trkpt>
				<trkpt lat="59.04042" lon="6.65107">
					<ele>731</ele>
					<time>0001-01-01T00:00:00Z</time>
				</trkpt>
				<trkpt lat="59.04066" lon="6.65094">
					<ele>729</ele>
					<time>0001-01-01T00:00:00Z</time>
				</trkpt>
				<trkpt lat="59.04074" lon="6.65086">
					<ele>727</ele>
					<time>0001-01-01T00:00:00Z</time>
				</trkpt>
				<trkpt lat="59.04099" lon="6.65050">
					<ele>723</ele>
					<time>0001-01-01T00:00:00Z</time>
				</trkpt>
				<trkpt lat="59.04118" lon="6.65023">
					<ele>720</ele>
					<time>0001-01-01T00:00:00Z</time>
				</trkpt>
				<trkpt lat="59.04181" lon="6.64978">
					<ele>711</ele>
					<time>0001-01-01T00:00:00Z</time>
				</trkpt>
				<trkpt lat="59.04227" lon="6.64929">
					<ele>705</ele>
					<time>0001-01-01T00:00:00Z</time>
				</trkpt>
				<trkpt lat="59.04269" lon="6.64944">
					<ele>699</ele>
					<time>0001-01-01T00:00:00Z</time>
				</trkpt>
				<trkpt lat="59.04256" lon="6.64956">
					<ele>697</ele>
					<time>0001-01-01T00:00:00Z</time>
				</trkpt>
				<trkpt lat="59.04205" lon="6.65050">
					<ele>689</ele>
					<time>0001-01-01T00:00:00Z</time>
				</trkpt>
				<trkpt lat="59.04223" lon="6.65066">
					<ele>686</ele>
					<time>0001-01-01T00:00:00Z</time>
				</trkpt>
				<trkpt lat="59.04229" lon="6.65057">
					<ele>686</ele>
					<time>0001-01-01T00:00:00Z</time>
				</trkpt>
				<trkpt lat="59.04242" lon="6.65036">
					<ele>684</ele>
					<time>0001-01-01T00:00:00Z</time>
				</trkpt>
				<trkpt lat="59.04280" lon="6.65018">
					<ele>680</ele>
					<time>0001-01-01T00:00:00Z</time>
				</trkpt>
				<trkpt lat="59.04423" lon="6.65007">
					<ele>664</ele>
					<time>0001-01-01T00:00:00Z</time>
				</trkpt>
				<trkpt lat="59.04454" lon="6.64993">
					<ele>660</ele>
					<time>0001-01-01T00:00:00Z</time>
				</trkpt>
				<trkpt lat="59.04507" lon="6.65025">
					<ele>653</ele>
					<time>0001-01-01T00:00:00Z</time>
				</trkpt>
				<trkpt lat="59.04531" lon="6.65062">
					<ele>650</ele>
					<time>0001-01-01T00:00:00Z</time>
				</trkpt>
				<trkpt lat="59.04549" lon="6.65154">
					<ele>645</ele>
					<time>0001-01-01T00:00:00Z</time>
				</trkpt>
				<trkpt lat="59.04545" lon="6.65201">
					<ele>642</ele>
					<time>0001-01-01T00:00:00Z</time>
				</trkpt>
				<trkpt lat="59.04547" lon="6.65179">
					<ele>644</ele>
					<time>0001-01-01T00:00:00Z</time>
				</trkpt>
				<trkpt lat="59.04555" lon="6.65133">
					<ele>646</ele>
					<time>0001-01-01T00:00:00Z</time>
				</trkpt>
				<trkpt lat="59.04587" lon="6.65141">
					<ele>646</ele>
					<time>0001-01-01T00:00:00Z</time>
				</trkpt>
				<trkpt lat="59.04591" lon="6.65144">
					<ele>646</ele>
					<time>0001-01-01T00:00:00Z</time>
				</trkpt>
				<trkpt lat="59.04619" lon="6.65178">
					<ele>645</ele>
					<time>0001-01-01T00:00:00Z</time>
				</trkpt>
				<trkpt lat="59.04629" lon="6.65224">
					<ele>644</ele>
					<time>0001-01-01T00:00:00Z</time>
				</trkpt>
				<trkpt lat="59.04633" lon="6.65218">
					<ele>645</ele>
					<time>0001-01-01T00:00:00Z</time>
				</trkpt>
				<trkpt lat="59.04654" lon="6.65205">
					<ele>647</ele>
					<time>0001-01-01T00:00:00Z</time>
				</trkpt>
				<trkpt lat="59.04665" lon="6.65218">
					<ele>648</ele>
					<time>0001-01-01T00:00:00Z</time>
				</trkpt>
				<trkpt lat="59.04671" lon="6.65228">
					<ele>647</ele>
					<time>0001-01-01T00:00:00Z</time>
				</trkpt>
				<trkpt lat="59.04663" lon="6.65208">
					<ele>647</ele>
					<time>0001-01-01T00:00:00Z</time>
				</trkpt>
				<trkpt lat="59.04659" lon="6.65202">
					<ele>648</ele>
					<time>0001-01-01T00:00:00Z</time>
				</trkpt>
				<trkpt lat="59.04654" lon="6.65199">
					<ele>649</ele>
					<time>0001-01-01T00:00:00Z</time>
				</trkpt>
				<trkpt lat="59.04654" lon="6.65198">
					<ele>649</ele>
					<time>0001-01-01T00:00:00Z</time>
				</trkpt>
				<trkpt lat="59.04641" lon="6.65201">
					<ele>647</ele>
					<time>0001-01-01T00:00:00Z</time>
				</trkpt>
				<trkpt lat="59.04623" lon="6.65205">
					<ele>645</ele>
					<time>0001-01-01T00:00:00Z</time>
				</trkpt>
				<trkpt lat="59.04604" lon="6.65154">
					<ele>646</ele>
					<time>0001-01-01T00:00:00Z</time>
				</trkpt>
				<trkpt lat="59.04559" lon="6.65128">
					<ele>647</ele>
					<time>0001-01-01T00:00:00Z</time>
				</trkpt>
				<trkpt lat="59.04545" lon="6.65172">
					<ele>644</ele>
					<time>0001-01-01T00:00:00Z</time>
				</trkpt>
				<trkpt lat="59.04520" lon="6.65242">
					<ele>639</ele>
					<time>0001-01-01T00:00:00Z</time>
				</trkpt>
				<trkpt lat="59.04505" lon="6.65330">
					<ele>634</ele>
					<time>0001-01-01T00:00:00Z</time>
				</trkpt>
				<trkpt lat="59.04459" lon="6.65381">
					<ele>628</ele>
					<time>0001-01-01T00:00:00Z</time>
				</trkpt>
				<trkpt lat="59.04439" lon="6.65448">
					<ele>623</ele>
					<time>0001-01-01T00:00:00Z</time>
				</trkpt>
				<trkpt lat="59.04469" lon="6.65488">
					<ele>619</ele>
					<time>0001-01-01T00:00:00Z</time>
				</trkpt>
				<trkpt lat="59.04479" lon="6.65492">
					<ele>618</ele>
					<time>0001-01-01T00:00:00Z</time>
				</trkpt>
				<trkpt lat="59.04525" lon="6.65510">
					<ele>612</ele>
					<time>0001-01-01T00:00:00Z</time>
				</trkpt>
				<trkpt lat="59.04608" lon="6.65508">
					<ele>603</ele>
					<time>0001-01-01T00:00:00Z</time>
				</trkpt>
				<trkpt lat="59.04647" lon="6.65486">
					<ele>598</ele>
					<time>0001-01-01T00:00:00Z</time>
				</trkpt>
				<trkpt lat="59.04674" lon="6.65461">
					<ele>595</ele>
					<time>0001-01-01T00:00:00Z</time>
				</trkpt>
				<trkpt lat="59.04709" lon="6.65390">
					<ele>588</ele>
					<time>0001-01-01T00:00:00Z</time>
				</trkpt>
				<trkpt lat="59.04725" lon="6.65406">
					<ele>585</ele>
					<time>0001-01-01T00:00:00Z</time>
				</trkpt>
				<trkpt lat="59.04717" lon="6.65429">
					<ele>583</ele>
					<time>0001-01-01T00:00:00Z</time>
				</trkpt>
				<trkpt lat="59.04698" lon="6.65487">
					<ele>579</ele>
					<time>0001-01-01T00:00:00Z</time>
				</trkpt>
				<trkpt lat="59.04675" lon="6.65563">
					<ele>573</ele>
					<time>0001-01-01T00:00:00Z</time>
				</trkpt>
				<trkpt lat="59.04697" lon="6.65543">
					<ele>570</ele>
					<time>0001-01-01T00:00:00Z</time>
				</trkpt>
				<trkpt lat="59.04752" lon="6.65455">
					<ele>561</ele>
					<time>0001-01-01T00:00:00Z</time>
				</trkpt>
				<trkpt lat="59.04757" lon="6.65448">
					<ele>560</ele>
					<time>0001-01-01T00:00:00Z</time>
				</trkpt>
				<trkpt lat="59.04774" lon="6.65390">
					<ele>555</ele>
					<time>0001-01-01T00:00:00Z</time>
				</trkpt>
				<trkpt lat="59.04778" lon="6.65367">
					<ele>553</ele>
					<time>0001-01-01T00:00:00Z</time>
				</trkpt>
				<trkpt lat="59.04796" lon="6.65357">
					<ele>550</ele>
					<time>0001-01-01T00:00:00Z</time>
				</trkpt>
				<trkpt lat="59.04800" lon="6.65361">
					<ele>550</ele>
					<time>0001-01-01T00:00:00Z</time>
				</trkpt>
				<trkpt lat="59.04801" lon="6.65365">
					<ele>550</ele>
					<time>0001-01-01T00:00:00Z</time>
				</trkpt>
				<trkpt lat="59.04790" lon="6.65392">
					<ele>549</ele>
					<time>0001-01-01T00:00:00Z</time>
				</trkpt>
				<trkpt lat="59.04755" lon="6.65505">
					<ele>542</ele>
					<time>0001-01-01T00:00:00Z</time>
				</trkpt>
				<trkpt lat="59.04765" lon="6.65619">
					<ele>536</ele>
					<time>0001-01-01T00:00:00Z</time>
				</trkpt>
				<trkpt lat="59.04784" lon="6.65660">
					<ele>532</ele>
					<time>0001-01-01T00:00:00Z</time>
				</trkpt>
				<trkpt lat="59.04793" lon="6.65699">
					<ele>530</ele>
					<time>0001-01-01T00:00:00Z</time>
				</trkpt>
				<trkpt lat="59.04815" lon="6.65693">
					<ele>526</ele>
					<time>0001-01-01T00:00:00Z</time>
				</trkpt>
				<trkpt lat="59.04816" lon="6.65679">
					<ele>526</ele>
					<time>0001-01-01T00:00:00Z</time>
				</trkpt>
				<trkpt lat="59.04840" lon="6.65520">
					<ele>517</ele>
					<time>0001-01-01T00:00:00Z</time>
				</trkpt>
				<trkpt lat="59.04843" lon="6.65449">
					<ele>513</ele>
					<time>0001-01-01T00:00:00Z</time>
				</trkpt>
				<trkpt lat="59.04861" lon="6.65461">
					<ele>509</ele>
					<time>0001-01-01T00:00:00Z</time>
				</trkpt>
				<trkpt lat="59.04913" lon="6.65612">
					<ele>499</ele>
					<time>0001-01-01T00:00:00Z</time>
				</trkpt>
				<trkpt lat="59.04915" lon="6.65689">
					<ele>494</ele>
					<time>0001-01-01T00:00:00Z</time>
				</trkpt>
				<trkpt lat="59.04910" lon="6.65699">
					<ele>493</ele>
					<time>0001-01-01T00:00:00Z</time>
				</trkpt>
				<trkpt lat="59.04886" lon="6.65747">
					<ele>489</ele>
					<time>0001-01-01T00:00:00Z</time>
				</trkpt>
				<trkpt lat="59.04892" lon="6.65797">
					<ele>487</ele>
					<time>0001-01-01T00:00:00Z</time>
				</trkpt>
				<trkpt lat="59.04919" lon="6.65741">
					<ele>482</ele>
					<time>0001-01-01T00:00:00Z</time>
				</trkpt>
				<trkpt lat="59.04944" lon="6.65737">
					<ele>477</ele>
					<time>0001-01-01T00:00:00Z</time>
				</trkpt>
				<trkpt lat="59.04935" lon="6.65763">
					<ele>475</ele>
					<time>0001-01-01T00:00:00Z</time>
				</trkpt>
				<trkpt lat="59.04925" lon="6.65791">
					<ele>473</ele>
					<time>0001-01-01T00:00:00Z</time>
				</trkpt>
				<trkpt lat="59.04911" lon="6.65849">
					<ele>469</ele>
					<time>0001-01-01T00:00:00Z</time>
				</trkpt>
				<trkpt lat="59.04932" lon="6.65882">
					<ele>465</ele>
					<time>0001-01-01T00:00:00Z</time>
				</trkpt>
				<trkpt lat="59.04937" lon="6.65871">
					<ele>464</ele>
					<time>0001-01-01T00:00:00Z</time>
				</trkpt>
				<trkpt lat="59.04972" lon="6.65813">
					<ele>460</ele>
					<time>0001-01-01T00:00:00Z</time>
				</trkpt>
				<trkpt lat="59.04983" lon="6.65754">
					<ele>456</ele>
					<time>0001-01-01T00:00:00Z</time>
				</trkpt>
				<trkpt lat="59.04982" lon="6.65723">
					<ele>453</ele>
					<time>0001-01-01T00:00:00Z</time>
				</trkpt>
				<trkpt lat="59.05000" lon="6.65708">
					<ele>450</ele>
					<time>0001-01-01T00:00:00Z</time>
				</trkpt>
				<trkpt lat="59.05001" lon="6.65735">
					<ele>448</ele>
					<time>0001-01-01T00:00:00Z</time>
				</trkpt>
				<trkpt lat="59.05001" lon="6.65808">
					<ele>443</ele>
					<time>0001-01-01T00:00:00Z</time>
				</trkpt>
				<trkpt lat="59.04985" lon="6.65889">
					<ele>438</ele>
					<time>0001-01-01T00:00:00Z</time>
				</trkpt>
				<trkpt lat="59.04985" lon="6.66004">
					<ele>431</ele>
					<time>0001-01-01T00:00:00Z</time>
				</trkpt>
				<trkpt lat="59.05004" lon="6.65990">
					<ele>429</ele>
					<time>0001-01-01T00:00:00Z</time>
				</trkpt>
				<trkpt lat="59.05006" lon="6.65977">
					<ele>428</ele>
					<time>0001-01-01T00:00:00Z</time>
				</trkpt>
				<trkpt lat="59.05038" lon="6.65898">
					<ele>422</ele>
					<time>0001-01-01T00:00:00Z</time>
				</trkpt>
				<trkpt lat="59.05067" lon="6.65827">
					<ele>416</ele>
					<time>0001-01-01T00:00:00Z</time>
				</trkpt>
				<trkpt lat="59.05087" lon="6.65818">
					<ele>412</ele>
					<time>0001-01-01T00:00:00Z</time>
				</trkpt>
				<trkpt lat="59.05086" lon="6.65832">
					<ele>411</ele>
					<time>0001-01-01T00:00:00Z</time>
				</trkpt>
				<trkpt lat="59.05082" lon="6.65949">
					<ele>404</ele>
					<time>0001-01-01T00:00:00Z</time>
				</trkpt>
				<trkpt lat="59.05074" lon="6.66012">
					<ele>400</ele>
					<time>0001-01-01T00:00:00Z</time>
				</trkpt>
				<trkpt lat="59.05070" lon="6.66046">
					<ele>397</ele>
					<time>0001-01-01T00:00:00Z</time>
				</trkpt>
				<trkpt lat="59.05073" lon="6.66122">
					<ele>392</ele>
					<time>0001-01-01T00:00:00Z</time>
				</trkpt>
				<trkpt lat="59.05085" lon="6.66229">
					<ele>385</ele>
					<time>0001-01-01T00:00:00Z</time>
				</trkpt>
				<trkpt lat="59.05095" lon="6.66269">
					<ele>382</ele>
					<time>0001-01-01T00:00:00Z</time>
				</trkpt>
				<trkpt lat="59.05131" lon="6.66280">
					<ele>378</ele>
					<time>0001-01-01T00:00:00Z</time>
				</trkpt>
				<trkpt lat="59.05125" lon="6.66219">
					<ele>375</ele>
					<time>0001-01-01T00:00:00Z</time>
				</trkpt>
				<trkpt lat="59.05146" lon="6.66117">
					<ele>366</ele>
					<time>0001-01-01T00:00:00Z</time>
				</trkpt>
				<trkpt lat="59.05175" lon="6.66018">
					<ele>360</ele>
					<time>0001-01-01T00:00:00Z</time>
				</trkpt>
				<trkpt lat="59.05193" lon="6.66023">
					<ele>357</ele>
					<time>0001-01-01T00:00:00Z</time>
				</trkpt>
				<trkpt lat="59.05192" lon="6.66071">
					<ele>354</ele>
					<time>0001-01-01T00:00:00Z</time>
				</trkpt>
				<trkpt lat="59.05183" lon="6.66150">
					<ele>349</ele>
					<time>0001-01-01T00:00:00Z</time>
				</trkpt>
				<trkpt lat="59.05184" lon="6.66224">
					<ele>344</ele>
					<time>0001-01-01T00:00:00Z</time>
				</trkpt>
				<trkpt lat="59.05201" lon="6.66182">
					<ele>341</ele>
					<time>0001-01-01T00:00:00Z</time>
				</trkpt>
				<trkpt lat="59.05208" lon="6.66133">
					<ele>338</ele>
					<time>0001-01-01T00:00:00Z</time>
				</trkpt>
				<trkpt lat="59.05211" lon="6.66104">
					<ele>337</ele>
					<time>0001-01-01T00:00:00Z</time>
				</trkpt>
				<trkpt lat="59.05230" lon="6.66113">
					<ele>332</ele>
					<time>0001-01-01T00:00:00Z</time>
				</trkpt>
				<trkpt lat="59.05228" lon="6.66161">
					<ele>329</ele>
					<time>0001-01-01T00:00:00Z</time>
				</trkpt>
				<trkpt lat="59.05220" lon="6.66235">
					<ele>324</ele>
					<time>0001-01-01T00:00:00Z</time>
				</trkpt>
				<trkpt lat="59.05230" lon="6.66308">
					<ele>319</ele>
					<time>0001-01-01T00:00:00Z</time>
				</trkpt>
				<trkpt lat="59.05241" lon="6.66359">
					<ele>315</ele>
					<time>0001-01-01T00:00:00Z</time>
				</trkpt>
				<trkpt lat="59.05247" lon="6.66490">
					<ele>308</ele>
					<time>0001-01-01T00:00:00Z</time>
				</trkpt>
				<trkpt lat="59.05267" lon="6.66505">
					<ele>306</ele>
					<time>0001-01-01T00:00:00Z</time>
				</trkpt>
				<trkpt lat="59.05271" lon="6.66472">
					<ele>305</ele>
					<time>0001-01-01T00:00:00Z</time>
				</trkpt>
				<trkpt lat="59.05275" lon="6.66346">
					<ele>298</ele>
					<time>0001-01-01T00:00:00Z</time>
				</trkpt>
				<trkpt lat="59.05294" lon="6.66314">
					<ele>293</ele>
					<time>0001-01-01T00:00:00Z</time>
				</trkpt>
				<trkpt lat="59.05299" lon="6.66330">
					<ele>292</ele>
					<time>0001-01-01T00:00:00Z</time>
				</trkpt>
				<trkpt lat="59.05312" lon="6.66380">
					<ele>289</ele>
					<time>0001-01-01T00:00:00Z</time>
				</trkpt>
				<trkpt lat="59.05310" lon="6.66441">
					<ele>285</ele>
					<time>0001-01-01T00:00:00Z</time>
				</trkpt>
				<trkpt lat="59.05295" lon="6.66555">
					<ele>278</ele>
					<time>0001-01-01T00:00:00Z</time>
				</trkpt>
				<trkpt lat="59.05311" lon="6.66597">
					<ele>275</ele>
					<time>0001-01-01T00:00:00Z</time>
				</trkpt>
				<trkpt lat="59.05320" lon="6.66549">
					<ele>273</ele>
					<time>0001-01-01T00:00:00Z</time>
				</trkpt>
				<trkpt lat="59.05323" lon="6.66509">
					<ele>271</ele>
					<time>0001-01-01T00:00:00Z</time>
				</trkpt>
				<trkpt lat="59.05339" lon="6.66490">
					<ele>267</ele>
					<time>0001-01-01T00:00:00Z</time>
				</trkpt>
				<trkpt lat="59.05339" lon="6.66505">
					<ele>266</ele>
					<time>0001-01-01T00:00:00Z</time>
				</trkpt>
				<trkpt lat="59.05339" lon="6.66506">
					<ele>264</ele>
					<time>0001-01-01T00:00:00Z</time>
				</trkpt>
				<trkpt lat="59.05336" lon="6.66581">
					<ele>259</ele>
					<time>0001-01-01T00:00:00Z</time>
				</trkpt>
				<trkpt lat="59.05329" lon="6.66627">
					<ele>257</ele>
					<time>0001-01-01T00:00:00Z</time>
				</trkpt>
				<trkpt lat="59.05347" lon="6.66648">
					<ele>254</ele>
					<time>0001-01-01T00:00:00Z</time>
				</trkpt>
				<trkpt lat="59.05356" lon="6.66588">
					<ele>251</ele>
					<time>0001-01-01T00:00:00Z</time>
				</trkpt>
				<trkpt lat="59.05379" lon="6.66568">
					<ele>245</ele>
					<time>0001-01-01T00:00:00Z</time>
				</trkpt>
				<trkpt lat="59.05373" lon="6.66638">
					<ele>241</ele>
					<time>0001-01-01T00:00:00Z</time>
				</trkpt>
				<trkpt lat="59.05366" lon="6.66670">
					<ele>239</ele>
					<time>0001-01-01T00:00:00Z</time>
				</trkpt>
				<trkpt lat="59.05387" lon="6.66685">
					<ele>236</ele>
					<time>0001-01-01T00:00:00Z</time>
				</trkpt>
				<trkpt lat="59.05395" lon="6.66660">
					<ele>235</ele>
					<time>0001-01-01T00:00:00Z</time>
				</trkpt>
				<trkpt lat="59.05406" lon="6.66612">
					<ele>233</ele>
					<time>0001-01-01T00:00:00Z</time>
				</trkpt>
				<trkpt lat="59.05394" lon="6.66511">
					<ele>228</ele>
					<time>0001-01-01T00:00:00Z</time>
				</trkpt>
				<trkpt lat="59.05411" lon="6.66494">
					<ele>226</ele>
					<time>0001-01-01T00:00:00Z</time>
				</trkpt>
				<trkpt lat="59.05436" lon="6.66597">
					<ele>219</ele>
					<time>0001-01-01T00:00:00Z</time>
				</trkpt>
				<trkpt lat="59.05435" lon="6.66613">
					<ele>218</ele>
					<time>0001-01-01T00:00:00Z</time>
				</trkpt>
				<trkpt lat="59.05445" lon="6.66658">
					<ele>213</ele>
					<time>0001-01-01T00:00:00Z</time>
				</trkpt>
				<trkpt lat="59.05458" lon="6.66601">
					<ele>210</ele>
					<time>0001-01-01T00:00:00Z</time>
				</trkpt>
				<trkpt lat="59.05452" lon="6.66546">
					<ele>205</ele>
					<time>0001-01-01T00:00:00Z</time>
				</trkpt>
				<trkpt lat="59.05542" lon="6.66439">
					<ele>124</ele>
					<time>0001-01-01T00:00:00Z</time>
				</trkpt>
				<trkpt lat="59.05512" lon="6.66372">
					<ele>105</ele>
					<time>0001-01-01T00:00:00Z</time>
				</trkpt>
				<trkpt lat="59.05524" lon="6.66376">
					<ele>101</ele>
					<time>0001-01-01T00:00:00Z</time>
				</trkpt>
				<trkpt lat="59.05548" lon="6.66445">
					<ele>92</ele>
					<time>0001-01-01T00:00:00Z</time>
				</trkpt>
				<trkpt lat="59.05563" lon="6.66564">
					<ele>80</ele>
					<time>0001-01-01T00:00:00Z</time>
				</trkpt>
				<trkpt lat="59.05583" lon="6.66635">
					<ele>75</ele>
					<time>0001-01-01T00:00:00Z</time>
				</trkpt>
				<trkpt lat="59.05595" lon="6.66659">
					<ele>71</ele>
					<time>0001-01-01T00:00:00Z</time>
				</trkpt>
				<trkpt lat="59.05616" lon="6.66711">
					<ele>68</ele>
					<time>0001-01-01T00:00:00Z</time>
				</trkpt>
				<trkpt lat="59.05630" lon="6.66773">
					<ele>65</ele>
					<time>0001-01-01T00:00:00Z</time>
				</trkpt>
				<trkpt lat="59.05640" lon="6.66884">
					<ele>58</ele>
					<time>0001-01-01T00:00:00Z</time>
				</trkpt>
				<trkpt lat="59.05656" lon="6.66823">
					<ele>54</ele>
					<time>0001-01-01T00:00:00Z</time>
				</trkpt>
				<trkpt lat="59.05672" lon="6.66787">
					<ele>53</ele>
					<time>0001-01-01T00:00:00Z</time>
				</trkpt>
				<trkpt lat="59.05677" lon="6.66722">
					<ele>49</ele>
					<time>0001-01-01T00:00:00Z</time>
				</trkpt>
				<trkpt lat="59.05658" lon="6.66661">
					<ele>48</ele>
					<time>0001-01-01T00:00:00Z</time>
				</trkpt>
				<trkpt lat="59.05653" lon="6.66576">
					<ele>40</ele>
					<time>0001-01-01T00:00:00Z</time>
				</trkpt>
				<trkpt lat="59.05654" lon="6.66534">
					<ele>34</ele>
					<time>0001-01-01T00:00:00Z</time>
				</trkpt>
				<trkpt lat="59.05662" lon="6.66496">
					<ele>33</ele>
					<time>0001-01-01T00:00:00Z</time>
				</trkpt>
				<trkpt lat="59.05726" lon="6.66322">
					<ele>28</ele>
					<time>0001-01-01T00:00:00Z</time>
				</trkpt>
				<trkpt lat="59.05734" lon="6.66293">
					<ele>28</ele>
					<time>0001-01-01T00:00:00Z</time>
				</trkpt>
				<trkpt lat="59.05748" lon="6.66216">
					<ele>28</ele>
					<time>0001-01-01T00:00:00Z</time>
				</trkpt>
				<trkpt lat="59.05753" lon="6.66134">
					<ele>26</ele>
					<time>0001-01-01T00:00:00Z</time>
				</trkpt>
				<trkpt lat="59.05745" lon="6.66072">
					<ele>23</ele>
					<time>0001-01-01T00:00:00Z</time>
				</trkpt>
				<trkpt lat="59.05716" lon="6.65960">
					<ele>20</ele>
					<time>0001-01-01T00:00:00Z</time>
				</trkpt>
				<trkpt lat="59.05716" lon="6.65958">
					<ele>25</ele>
					<time>0001-01-01T00:00:00Z</time>
				</trkpt>
				<trkpt lat="59.05704" lon="6.65913">
					<ele>23</ele>
					<time>0001-01-01T00:00:00Z</time>
				</trkpt>
				<trkpt lat="59.05676" lon="6.65819">
					<ele>20</ele>
					<time>0001-01-01T00:00:00Z</time>
				</trkpt>
				<trkpt lat="59.05674" lon="6.65811">
					<ele>19</ele>
					<time>0001-01-01T00:00:00Z</time>
				</trkpt>
				<trkpt lat="59.05668" lon="6.65797">
					<ele>19</ele>
					<time>0001-01-01T00:00:00Z</time>
				</trkpt>
				<trkpt lat="59.05667" lon="6.65782">
					<ele>19</ele>
					<time>0001-01-01T00:00:00Z</time>
				</trkpt>
				<trkpt lat="59.05667" lon="6.65663">
					<ele>18</ele>
					<time>0001-01-01T00:00:00Z</time>
				</trkpt>
				<trkpt lat="59.05614" lon="6.65411">
					<ele>16</ele>
					<time>0001-01-01T00:00:00Z</time>
				</trkpt>
				<trkpt lat="59.05559" lon="6.65178">
					<ele>14</ele>
					<time>0001-01-01T00:00:00Z</time>
				</trkpt>
				<trkpt lat="59.05480" lon="6.64886">
					<ele>12</ele>
					<time>0001-01-01T00:00:00Z</time>
				</trkpt>
				<trkpt lat="59.05453" lon="6.64783">
					<ele>10</ele>
					<time>0001-01-01T00:00:00Z</time>
				</trkpt>
				<trkpt lat="59.05445" lon="6.64670">
					<ele>10</ele>
					<time>0001-01-01T00:00:00Z</time>
				</trkpt>
				<trkpt lat="59.05445" lon="6.64613">
					<ele>10</ele>
					<time>0001-01-01T00:00:00Z</time>
				</trkpt>
				<trkpt lat="59.05448" lon="6.64606">
					<ele>12</ele>
					<time>0001-01-01T00:00:00Z</time>
				</trkpt>
				<trkpt lat="59.05449" lon="6.64604">
					<ele>8</ele>
					<time>0001-01-01T00:00:00Z</time>
				</trkpt>
				<trkpt lat="59.05459" lon="6.64561">
					<ele>4</ele>
					<time>0001-01-01T00:00:00Z</time>
				</trkpt>
				<trkpt lat="59.05463" lon="6.64555">
					<ele>5</ele>
					<time>0001-01-01T00:00:00Z</time>
				</trkpt>
				<trkpt lat="59.05493" lon="6.64563">
					<ele>9</ele>
					<time>0001-01-01T00:00:00Z</time>
				</trkpt>
				<trkpt lat="59.05495" lon="6.64564">
					<ele>9</ele>
					<time>0001-01-01T00:00:00Z</time>
				</trkpt>
				<trkpt lat="59.05495" lon="6.64559">
					<ele>9</ele>
					<time>0001-01-01T00:00:00Z</time>
				</trkpt>
				<trkpt lat="59.05480" lon="6.64543">
					<ele>9</ele>
					<time>0001-01-01T00:00:00Z</time>
				</trkpt>
				<trkpt lat="59.05474" lon="6.64545">
					<ele>9</ele>
					<time>0001-01-01T00:00:00Z</time>
				</trkpt>
				<trkpt lat="59.05482" lon="6.64513">
					<ele>7</ele>
					<time>0001-01-01T00:00:00Z</time>
				</trkpt>
				<trkpt lat="59.05471" lon="6.64526">
					<ele>0</ele>
					<time>0001-01-01T00:00:00Z</time>
				</trkpt>
				<trkpt lat="59.05468" lon="6.64540">
					<ele>2</ele>
					<time>0001-01-01T00:00:00Z</time>
				</trkpt>
				<trkpt lat="59.05452" lon="6.64569">
					<ele>5</ele>
					<time>0001-01-01T00:00:00Z</time>
				</trkpt>
				<trkpt lat="59.05448" lon="6.64642">
					<ele>18</ele>
					<time>0001-01-01T00:00:00Z</time>
				</trkpt>
				<trkpt lat="59.05453" lon="6.64754">
					<ele>23</ele>
					<time>0001-01-01T00:00:00Z</time>
				</trkpt>
				<trkpt lat="59.05489" lon="6.64902">
					<ele>23</ele>
					<time>0001-01-01T00:00:00Z</time>
				</trkpt>
				<trkpt lat="59.05492" lon="6.64912">
					<ele>23</ele>
					<time>0001-01-01T00:00:00Z</time>
				</trkpt>
				<trkpt lat="59.05471" lon="6.64931">
					<ele>23</ele>
					<time>0001-01-01T00:00:00Z</time>
				</trkpt>
				<trkpt lat="59.05442" lon="6.64912">
					<ele>24</ele>
					<time>0001-01-01T00:00:00Z</time>
				</trkpt>
				<trkpt lat="59.05441" lon="6.64899">
					<ele>23</ele>
					<time>0001-01-01T00:00:00Z</time>
				</trkpt>
				<trkpt lat="59.05442" lon="6.64886">
					<ele>23</ele>
					<time>0001-01-01T00:00:00Z</time>
				</trkpt>
				<trkpt lat="59.05455" lon="6.64875">
					<ele>38</ele>
					<time>0001-01-01T00:00:00Z</time>
				</trkpt>
				<trkpt lat="59.05456" lon="6.64906">
					<ele>35</ele>
					<time>0001-01-01T00:00:00Z</time>
				</trkpt>
				<trkpt lat="59.05455" lon="6.64906">
					<ele>30</ele>
					<time>0001-01-01T00:00:00Z</time>
				</trkpt>
				<trkpt lat="59.05461" lon="6.64921">
					<ele>28</ele>
					<time>0001-01-01T00:00:00Z</time>
				</trkpt>
				<trkpt lat="59.05503" lon="6.64920">
					<ele>28</ele>
					<time>0001-01-01T00:00:00Z</time>
				</trkpt>
				<trkpt lat="59.05479" lon="6.64843">
					<ele>25</ele>
					<time>0001-01-01T00:00:00Z</time>
				</trkpt>
				<trkpt lat="59.05447" lon="6.64669">
					<ele>22</ele>
					<time>0001-01-01T00:00:00Z</time>
				</trkpt>
				<trkpt lat="59.05445" lon="6.64601">
					<ele>17</ele>
					<time>0001-01-01T00:00:00Z</time>
				</trkpt>
				<trkpt lat="59.05452" lon="6.64589">
					<ele>15</ele>
					<time>0001-01-01T00:00:00Z</time>
				</trkpt>
				<trkpt lat="59.05457" lon="6.64581">
					<ele>6</ele>
					<time>0001-01-01T00:00:00Z</time>
				</trkpt>
				<trkpt lat="59.05457" lon="6.64576">
					<ele>7</ele>
					<time>0001-01-01T00:00:00Z</time>
				</trkpt>
				<trkpt lat="59.05452" lon="6.64587">
					<ele>9</ele>
					<time>0001-01-01T00:00:00Z</time>
				</trkpt>
				<trkpt lat="59.05451" lon="6.64584">
					<ele>6</ele>
					<time>0001-01-01T00:00:00Z</time>
				</trkpt>
				<trkpt lat="59.05453" lon="6.64587">
					<ele>7</ele>
					<time>0001-01-01T00:00:00Z</time>
				</trkpt>
				<trkpt lat="59.05472" lon="6.64541">
					<ele>6</ele>
					<time>0001-01-01T00:00:00Z</time>
				</trkpt>
		</trkseg>
	</trk>
</gpx>
